[[{"header":{"parameterUnit":"m.s-1","parameterCategory":1,"la1":30.6,"la2":28.766,"lo1":-90.7593,"lo2":-88.6598,"dy":0.0162,"dx":0.0183,"nx":116,"ny":114,"refTime":"2024-04-08T06:00:00:Z","depth":0,"parameterNumber":2,"parameterNumberName":"U-component_of_WINDS"},"data":[0.0,0.0,0.0,0.0,0.0,0.0,0.0,0.0,0.0,0.0,0.0,0.0,0.0,0.0,0.0,0.0,0.0,0.0,0.0,0.0,0.0,0.0,0.0,0.0,0.0,0.0,0.0,0.0,0.0,0.0,0.0,0.0,0.0,0.0,0.0,0.0,0.0,0.0,0.0,0.0,0.0,0.0,0.0,0.0,0.0,0.0,0.0,0.0,0.0,0.0,0.0,0.0,0.0,0.0,0.0,0.0,0.0,0.0,0.0,0.0,0.0,0.0,0.0,0.0,0.0,0.0,0.0,0.0,0.0,0.0,0.0,0.0,0.0,0.0,0.0,0.0,0.0,0.0,0.0,0.0,0.0,0.0,0.0,0.0,0.0,0.0,0.0,0.0,0.0,0.0,0.0,0.0,0.0,0.0,0.0,0.0,0.0,0.0,0.0,0.0,0.0,0.0,0.0,0.0,0.0,0.0,0.0,0.0,0.0,0.0,0.0,0.0,0.0,0.0,0.0,0.0,0.0,0.0,0.0,0.0,0.0,0.0,0.0,0.0,0.0,0.0,0.0,0.0,0.0,0.0,0.0,0.0,0.0,0.0,0.0,0.0,0.0,0.0,0.0,0.0,0.0,0.0,0.0,0.0,0.0,0.0,0.0,0.0,0.0,0.0,0.0,0.0,0.0,0.0,0.0,0.0,0.0,0.0,0.0,0.0,0.0,0.0,0.0,0.0,0.0,0.0,0.0,0.0,0.0,0.0,0.0,0.0,0.0,0.0,0.0,0.0,0.0,0.0,0.0,0.0,0.0,0.0,0.0,0.0,0.0,0.0,0.0,0.0,0.0,0.0,0.0,0.0,0.0,0.0,0.0,0.0,0.0,0.0,0.0,0.0,0.0,0.0,0.0,0.0,0.0,0.0,0.0,0.0,0.0,0.0,0.0,0.0,0.0,0.0,0.0,0.0,0.0,0.0,0.0,0.0,0.0,0.0,0.0,0.0,0.0,0.0,0.0,0.0,0.0,0.0,0.0,0.0,0.0,0.0,0.0,0.0,0.0,0.0,0.0,0.0,0.0,0.0,0.0,0.0,0.0,0.0,0.0,0.0,0.0,0.0,0.0,0.0,0.0,0.0,0.0,0.0,0.0,0.0,0.0,0.0,0.0,0.0,0.0,0.0,0.0,0.0,0.0,0.0,0.0,0.0,0.0,0.0,0.0,0.0,0.0,0.0,0.0,0.0,0.0,0.0,0.0,0.0,0.0,0.0,0.0,0.0,0.0,0.0,0.0,0.0,0.0,0.0,0.0,0.0,0.0,0.0,0.0,0.0,0.0,0.0,0.0,0.0,0.0,0.0,0.0,0.0,0.0,0.0,0.0,0.0,0.0,0.0,0.0,0.0,0.0,0.0,0.0,0.0,0.0,0.0,0.0,0.0,0.0,0.0,0.0,0.0,0.0,0.0,0.0,0.0,0.0,0.0,0.0,0.0,0.0,0.0,0.0,0.0,0.0,0.0,0.0,0.0,0.0,0.0,0.0,0.0,0.0,0.0,0.0,0.0,0.0,0.0,0.0,0.0,0.0,0.0,0.0,0.0,0.0,0.0,0.0,0.0,0.0,0.0,0.0,0.0,0.0,0.0,0.0,0.0,0.0,0.0,0.0,0.0,0.0,0.0,0.0,0.0,0.0,0.0,0.0,0.0,0.0,0.0,0.0,0.0,0.0,0.0,0.0,0.0,0.0,0.0,0.0,0.0,0.0,0.0,0.0,0.0,0.0,0.0,0.0,0.0,0.0,0.0,0.0,0.0,0.0,0.0,0.0,0.0,0.0,0.0,0.0,0.0,0.0,0.0,0.0,0.0,0.0,0.0,0.0,0.0,0.0,0.0,0.0,0.0,0.0,0.0,0.0,0.0,0.0,0.0,0.0,0.0,0.0,0.0,0.0,0.0,0.0,0.0,0.0,0.0,0.0,0.0,0.0,0.0,0.0,0.0,0.0,0.0,0.0,0.0,0.0,0.0,0.0,0.0,0.0,0.0,0.0,0.0,0.0,0.0,0.0,0.0,0.0,0.0,0.0,0.0,0.0,0.0,0.0,0.0,0.0,0.0,0.0,0.0,0.0,0.0,0.0,0.0,0.0,0.0,0.0,0.0,0.0,0.0,0.0,0.0,0.0,0.0,0.0,0.0,0.0,0.0,0.0,0.0,0.0,0.0,0.0,0.0,0.0,0.0,0.0,0.0,0.0,0.0,0.0,0.0,0.0,0.0,0.0,0.0,0.0,0.0,0.0,0.0,0.0,0.0,0.0,0.0,0.0,0.0,0.0,0.0,0.0,0.0,0.0,0.0,0.0,0.0,0.0,0.0,0.0,0.0,0.0,0.0,0.0,0.0,0.0,0.0,0.0,0.0,0.0,0.0,0.0,0.0,0.0,0.0,0.0,0.0,0.0,0.0,0.0,0.0,0.0,0.0,0.0,0.0,0.0,0.0,0.0,0.0,0.0,0.0,0.0,0.0,0.0,0.0,0.0,0.0,0.0,0.0,0.0,0.0,0.0,0.0,0.0,0.0,0.0,0.0,0.0,0.0,0.0,0.0,0.0,0.0,0.0,0.0,0.0,0.0,0.0,0.0,0.0,0.0,0.0,0.0,0.0,0.0,0.0,0.0,0.0,0.0,0.0,0.0,0.0,0.0,0.0,0.0,0.0,0.0,0.0,0.0,0.0,0.0,0.0,0.0,0.0,0.0,0.0,0.0,0.0,0.0,0.0,0.0,0.0,0.0,0.0,0.0,0.0,0.0,0.0,0.0,0.0,0.0,0.0,0.0,0.0,0.0,0.0,0.0,0.0,0.0,0.0,0.0,0.0,0.0,0.0,0.0,0.0,0.0,0.0,0.0,0.0,0.0,0.0,0.0,0.0,0.0,0.0,0.0,0.0,0.0,0.0,0.0,0.0,0.0,0.0,0.0,0.0,0.0,0.0,0.0,0.0,0.0,0.0,0.0,0.0,0.0,0.0,0.0,0.0,0.0,0.0,0.0,0.0,0.0,0.0,0.0,0.0,0.0,0.0,0.0,0.0,0.0,0.0,0.0,0.0,0.0,0.0,0.0,0.0,0.0,0.0,0.0,0.0,0.0,0.0,0.0,0.0,0.0,0.0,0.0,0.0,0.0,0.0,0.0,0.0,0.0,0.0,0.0,0.0,0.0,0.0,0.0,0.0,0.0,0.0,0.0,0.0,0.0,0.0,0.0,0.0,0.0,0.0,0.0,0.0,0.0,0.0,0.0,0.0,0.0,0.0,0.0,0.0,0.0,0.0,0.0,0.0,0.0,0.0,0.0,0.0,0.0,0.0,0.0,0.0,0.0,0.0,0.0,0.0,0.0,0.0,0.0,0.0,0.0,0.0,0.0,0.0,0.0,0.0,0.0,0.0,0.0,0.0,0.0,0.0,0.0,0.0,0.0,0.0,0.0,0.0,0.0,0.0,0.0,0.0,0.0,0.0,0.0,0.0,0.0,0.0,0.0,0.0,0.0,0.0,0.0,0.0,0.0,0.0,0.0,0.0,0.0,0.0,0.0,0.0,0.0,0.0,0.0,0.0,0.0,0.0,0.0,0.0,0.0,0.0,0.0,0.0,0.0,0.0,0.0,0.0,0.0,0.0,0.0,0.0,0.0,0.0,0.0,0.0,0.0,0.0,0.0,0.0,0.0,0.0,0.0,0.0,0.0,0.0,0.0,0.0,0.0,0.0,0.0,0.0,0.0,0.0,0.0,0.0,0.0,0.0,0.0,0.0,0.0,0.0,0.0,0.0,0.0,0.0,0.0,0.0,0.0,0.0,0.0,0.0,0.0,0.0,0.0,0.0,0.0,0.0,0.0,0.0,0.0,0.0,0.0,0.0,0.0,0.0,0.0,0.0,0.0,0.0,0.0,0.0,0.0,0.0,0.0,0.0,0.0,0.0,0.0,0.0,0.0,0.0,0.0,0.0,0.0,0.0,0.0,0.0,0.0,0.0,0.0,0.0,0.0,0.0,0.0,0.0,0.0,0.0,0.0,0.0,0.0,0.0,0.0,0.0,0.0,0.0,0.0,0.0,0.0,0.0,0.0,0.0,0.0,0.0,0.0,0.0,0.0,0.0,0.0,0.0,0.0,0.0,0.0,0.0,0.0,0.0,0.0,0.0,0.0,0.0,0.0,0.0,0.0,0.0,0.0,0.0,0.0,0.0,0.0,0.0,0.0,0.0,0.0,0.0,0.0,0.0,0.0,0.0,0.0,0.0,0.0,0.0,0.0,0.0,0.0,0.0,0.0,0.0,0.0,0.0,0.0,0.0,0.0,0.0,0.0,0.0,0.0,0.0,0.0,0.0,0.0,0.0,0.0,0.0,0.0,0.0,0.0,0.0,0.0,0.0,0.0,0.0,0.0,0.0,0.0,0.0,0.0,0.0,0.0,0.0,0.0,0.0,0.0,0.0,0.0,0.0,0.0,0.0,0.0,0.0,0.0,0.0,0.0,0.0,0.0,0.0,0.0,0.0,0.0,0.0,0.0,0.0,0.0,0.0,0.0,0.0,0.0,0.0,0.0,0.0,0.0,0.0,0.0,0.0,0.0,0.0,0.0,0.0,0.0,0.0,0.0,0.0,0.0,0.0,0.0,0.0,0.0,0.0,0.0,0.0,0.0,0.0,0.0,0.0,0.0,0.0,0.0,0.0,0.0,0.0,0.0,0.0,0.0,0.0,0.0,0.0,0.0,0.0,0.0,0.0,0.0,0.0,0.0,0.0,0.0,0.0,0.0,0.0,0.0,0.0,0.0,0.0,0.0,0.0,0.0,0.0,0.0,0.0,0.0,0.0,0.0,0.0,0.0,0.0,0.0,0.0,0.0,0.0,0.0,0.0,0.0,0.0,0.0,0.0,0.0,0.0,0.0,0.0,0.0,0.0,0.0,0.0,0.0,0.0,0.0,0.0,0.0,0.0,0.0,0.0,0.0,0.0,0.0,0.0,0.0,0.0,0.0,0.0,0.0,0.0,0.0,0.0,0.0,0.0,0.0,0.0,0.0,0.0,0.0,0.0,0.0,0.0,0.0,0.0,0.0,0.0,0.0,0.0,0.0,0.0,0.0,0.0,0.0,0.0,0.0,0.0,0.0,0.0,0.0,0.0,0.0,0.0,0.0,0.0,0.0,0.0,0.0,0.0,0.0,0.0,0.0,0.0,0.0,0.0,0.0,0.0,0.0,0.0,0.0,0.0,0.0,0.0,0.0,0.0,0.0,0.0,0.0,0.0,0.0,0.0,0.0,0.0,0.0,0.0,0.0,0.0,0.0,0.0,0.0,0.0,0.0,0.0,0.0,0.0,0.0,0.0,0.0,0.0,0.0,0.0,0.0,0.0,0.0,0.0,0.0,0.0,0.0,0.0,0.0,0.0,0.0,0.0,0.0,0.0,0.0,0.0,0.0,0.0,0.0,0.0,0.0,0.0,0.0,0.0,0.0,0.0,0.0,0.0,0.0,0.0,0.0,0.0,0.0,0.0,0.0,0.0,0.0,0.0,0.0,0.0,0.0,0.0,0.0,0.0,0.0,0.0,0.0,0.0,0.0,0.0,0.0,0.0,0.0,0.0,0.0,0.0,0.0,0.0,0.0,0.0,0.0,0.0,0.0,0.0,0.0,0.0,0.0,0.0,0.0,0.0,0.0,0.0,0.0,0.0,0.0,0.0,0.0,0.0,0.0,0.0,0.0,0.0,0.0,0.0,0.0,0.0,0.0,0.0,0.0,0.0,0.0,0.0,0.0,0.0,0.0,0.0,0.0,0.0,0.0,0.0,0.0,0.0,0.0,0.0,0.0,0.0,0.0,0.0,0.0,0.0,0.0,0.0,0.0,0.0,0.0,0.0,0.0,0.0,0.0,0.0,0.0,0.0,0.0,0.0,0.0,0.0,0.0,0.0,0.0,0.0,0.0,0.0,0.0,0.0,0.0,0.0,0.0,0.0,0.0,0.0,0.0,0.0,0.0,0.0,0.0,0.0,0.0,0.0,0.0,0.0,0.0,0.0,0.0,0.0,0.0,0.0,0.0,0.0,0.0,0.0,0.0,0.0,0.0,0.0,0.0,-3.2517,-3.1476,0.0,0.0,0.0,0.0,0.0,0.0,0.0,0.0,0.0,0.0,0.0,0.0,0.0,0.0,0.0,0.0,0.0,0.0,0.0,0.0,0.0,0.0,0.0,-4.4769,-4.5447,-4.5447,-4.6702,-4.738,-4.7104,-4.7857,0.0,0.0,0.0,0.0,-4.7933,-4.8435,-4.9138,-4.9992,-4.9715,-4.959,-4.9565,-5.0142,-4.9515,-4.7883,0.0,0.0,0.0,0.0,0.0,0.0,0.0,0.0,0.0,0.0,0.0,0.0,0.0,0.0,0.0,0.0,0.0,0.0,0.0,0.0,0.0,0.0,0.0,0.0,0.0,0.0,0.0,0.0,0.0,0.0,0.0,0.0,0.0,0.0,0.0,0.0,0.0,0.0,0.0,0.0,0.0,0.0,0.0,0.0,0.0,0.0,0.0,0.0,0.0,0.0,0.0,0.0,0.0,0.0,0.0,0.0,0.0,0.0,0.0,0.0,0.0,0.0,0.0,0.0,0.0,0.0,0.0,0.0,0.0,0.0,-3.5255,-3.3801,0.0,0.0,0.0,0.0,0.0,0.0,0.0,0.0,0.0,0.0,0.0,0.0,0.0,0.0,0.0,0.0,0.0,0.0,0.0,0.0,0.0,-4.3991,-4.4091,-4.5573,-4.6577,-4.6577,-4.8109,-4.8812,-4.8234,-4.8736,-4.8761,-4.8083,-4.8159,-4.8385,-4.8761,-4.9414,-4.9916,-5.0268,-4.9916,-5.0167,-5.0996,-5.1473,-5.077,-4.9063,-4.8761,0.0,0.0,0.0,0.0,0.0,0.0,0.0,0.0,0.0,0.0,0.0,0.0,0.0,0.0,0.0,0.0,0.0,0.0,0.0,0.0,0.0,0.0,0.0,0.0,0.0,0.0,0.0,0.0,0.0,0.0,0.0,0.0,0.0,0.0,0.0,0.0,0.0,0.0,0.0,0.0,0.0,0.0,0.0,0.0,0.0,0.0,0.0,0.0,0.0,0.0,0.0,0.0,0.0,0.0,0.0,0.0,0.0,0.0,0.0,0.0,0.0,0.0,0.0,-3.897,-3.9585,-3.8613,-3.875,-3.8672,-3.8465,-3.9495,-3.7395,-3.3368,-3.439,0.0,0.0,0.0,0.0,0.0,0.0,0.0,0.0,0.0,0.0,0.0,0.0,0.0,0.0,0.0,0.0,0.0,0.0,0.0,-4.4694,-4.5221,-4.6728,-4.7707,-4.7707,-4.9238,-4.9967,-4.9414,-4.9891,-4.9741,-4.8711,-4.9113,-4.9188,-4.8786,-4.9791,-5.0117,-4.9715,-5.0117,-5.1322,-5.3281,-5.3356,-5.3482,-5.3532,-4.9715,-4.9063,-5.0645,0.0,0.0,0.0,0.0,0.0,0.0,0.0,0.0,0.0,0.0,0.0,0.0,0.0,0.0,0.0,0.0,0.0,0.0,0.0,0.0,0.0,0.0,0.0,0.0,0.0,0.0,0.0,0.0,0.0,0.0,0.0,0.0,0.0,0.0,0.0,0.0,0.0,0.0,0.0,0.0,0.0,-3.7613,-3.7663,0.0,0.0,0.0,0.0,0.0,0.0,0.0,0.0,0.0,0.0,0.0,0.0,0.0,-3.8058,-3.8963,-3.9815,-3.9727,-3.8809,-4.1405,-4.2191,-4.1308,-4.2051,-4.2558,-4.2851,-4.2999,0.0,-3.498,-3.4477,0.0,0.0,0.0,0.0,0.0,0.0,0.0,0.0,0.0,0.0,0.0,0.0,0.0,0.0,0.0,0.0,0.0,0.0,0.0,0.0,0.0,-4.7682,-4.8862,-4.8862,-5.1523,-5.2452,-5.0645,-5.1624,-5.1498,-4.9766,-4.964,-4.949,-4.9238,-4.9715,-5.0142,-5.0544,-5.2653,-5.4009,-5.4662,-5.529,-5.5541,-5.539,-5.313,-5.1975,-5.1624,-4.9866,0.0,0.0,0.0,0.0,0.0,0.0,0.0,0.0,0.0,0.0,0.0,0.0,0.0,0.0,0.0,0.0,0.0,0.0,0.0,0.0,0.0,0.0,0.0,0.0,0.0,0.0,0.0,0.0,0.0,0.0,0.0,0.0,0.0,0.0,0.0,0.0,0.0,0.0,0.0,-3.9346,-4.1028,-3.917,-4.0978,-4.1106,0.0,0.0,0.0,0.0,0.0,0.0,0.0,0.0,0.0,-3.9445,-3.9383,-3.9978,-4.1118,-4.1896,-4.2363,-4.25,-4.4121,-4.4824,-4.4687,-4.5078,-4.5469,-4.5859,-4.5625,-4.373,-4.0644,-3.8555,-3.6523,-3.457,0.0,0.0,0.0,0.0,-3.3203,-3.3769,0.0,0.0,0.0,0.0,0.0,0.0,0.0,0.0,0.0,0.0,0.0,0.0,-4.6954,-4.8987,-5.0469,-5.1021,-5.3858,-5.4737,-5.2678,-5.3005,-5.2578,-5.0921,-5.0167,-4.9816,-4.9816,-5.0218,-5.1147,-5.2553,-5.529,-5.6721,-5.6897,-5.77,-5.7951,-5.7675,-5.7123,-5.5641,-5.3482,-5.195,-5.0318,-4.8661,0.0,0.0,0.0,0.0,0.0,0.0,0.0,0.0,0.0,0.0,0.0,0.0,0.0,0.0,0.0,0.0,0.0,0.0,0.0,0.0,0.0,0.0,0.0,0.0,0.0,0.0,0.0,0.0,0.0,0.0,0.0,0.0,0.0,0.0,0.0,0.0,0.0,-4.1957,-4.3594,-4.024,-4.2856,-4.3037,0.0,0.0,0.0,0.0,0.0,0.0,-3.8588,-3.9566,-4.0378,-4.0996,-4.1562,-4.2344,-4.3418,-4.4277,-4.5019,-4.5683,-4.6426,-4.7012,-4.7422,-4.7422,-4.7598,-4.7891,-4.7558,-4.6758,-4.543,-4.2305,-3.9629,-3.7383,-3.6309,-3.5605,-3.5234,-3.5586,-3.5781,-3.6055,0.0,0.0,0.0,0.0,0.0,0.0,0.0,0.0,0.0,0.0,0.0,-4.5271,-4.9012,-5.0946,-5.2829,-5.4913,-5.5767,-5.6118,-5.5968,-5.3582,-5.2126,-5.2026,-5.0971,-5.0368,-5.0368,-5.195,-5.3808,-5.5968,-5.7198,-5.888,-6.0889,-6.0939,-6.124,-6.1692,-6.114,-5.9659,-5.7323,-5.308,-5.2101,-5.308,-4.9891,0.0,0.0,0.0,0.0,0.0,0.0,0.0,0.0,0.0,0.0,0.0,0.0,0.0,0.0,0.0,0.0,0.0,0.0,0.0,0.0,0.0,0.0,0.0,0.0,0.0,0.0,0.0,0.0,0.0,0.0,0.0,0.0,0.0,0.0,0.0,0.0,0.0,0.0,-4.0789,-4.492,0.0,0.0,0.0,0.0,-3.8821,-3.9446,-4.0106,-4.0347,-4.1171,-4.2443,-4.4121,-4.498,-4.5644,-4.6113,-4.6953,-4.7402,-4.7461,-4.7891,-4.834,-4.875,-4.875,-4.8769,-4.8789,-4.8769,-4.8262,-4.7187,-4.375,-4.1308,-3.957,-3.7871,-3.6953,-3.6582,-3.6601,-3.6855,-3.7168,0.0,0.0,0.0,0.0,0.0,-4.1932,-4.2836,-4.2986,-4.3363,-4.4468,-4.5698,-4.7657,-5.087,-5.3632,-5.5742,-5.6897,-5.8478,-5.8654,-5.6846,-5.5164,-5.3884,-5.3155,-5.1398,-5.0921,-5.2,-5.3306,-5.5239,-5.7826,-5.9282,-6.0788,-6.2245,-6.2245,-6.2546,-6.3099,-6.2898,-6.2144,-6.0814,-5.6721,-5.4084,-5.2477,-5.0218,-4.8962,0.0,0.0,0.0,0.0,0.0,0.0,0.0,0.0,0.0,0.0,0.0,0.0,0.0,0.0,0.0,0.0,0.0,0.0,0.0,0.0,0.0,0.0,0.0,0.0,0.0,0.0,0.0,0.0,0.0,0.0,0.0,0.0,0.0,0.0,0.0,0.0,0.0,-4.3938,-4.8074,0.0,-4.1994,-4.1397,-4.115,-4.0438,-4.1147,-4.223,-4.373,-4.4394,-4.5371,-4.6797,-4.7148,-4.7519,-4.7949,-4.8242,-4.8398,-4.8398,-4.8555,-4.8711,-4.8867,-4.8867,-4.8711,-4.8437,-4.8437,-4.7949,-4.7051,-4.5547,-4.3906,-4.2226,-4.1055,-4.0,-3.918,-3.9453,-3.9492,-3.9394,0.0,0.0,0.0,0.0,-4.1,-4.143,-4.2534,-4.2766,-4.3237,-4.4719,-4.6652,-4.9264,-5.2829,-5.5993,-5.8328,-5.9458,-6.0563,-6.0311,-5.8278,-5.6068,-5.4561,-5.4009,-5.2402,-5.2051,-5.3155,-5.5189,-5.7223,-5.9257,-6.0914,-6.2119,-6.2822,-6.3023,-6.3324,-6.3701,-6.3877,-6.3751,-6.3199,-6.0437,-5.7273,-5.3884,-5.2026,-5.1398,-5.113,0.0,0.0,0.0,0.0,0.0,0.0,0.0,0.0,0.0,0.0,0.0,0.0,0.0,0.0,0.0,0.0,0.0,0.0,0.0,0.0,0.0,0.0,0.0,0.0,0.0,0.0,0.0,0.0,0.0,0.0,0.0,0.0,0.0,0.0,-4.5166,-4.7505,-4.5801,-4.9296,-4.9605,-4.3751,-4.3082,-4.2958,-4.2717,-4.3476,-4.4707,-4.6445,-4.6933,-4.7558,-4.8398,-4.8418,-4.8574,-4.8867,-4.8867,-4.8867,-4.8867,-4.8867,-4.8867,-4.8848,-4.8711,-4.8476,-4.8203,-4.8066,-4.75,-4.6699,-4.6426,-4.5273,-4.3672,-4.3242,-4.2305,-4.1191,-4.1484,-4.123,-4.0781,0.0,0.0,0.0,-4.0425,-4.0526,-4.0877,-4.2011,-4.2213,-4.3017,-4.5171,-4.6979,-4.9916,-5.4888,-5.7926,-6.0487,-6.2697,-6.1818,-6.0889,-6.0337,-5.6118,-5.3909,-5.4486,-5.3984,-5.3758,-5.3884,-5.76,-5.9809,-6.0412,-6.2069,-6.2847,-6.2873,-6.3425,-6.3701,-6.3726,-6.4254,-6.4479,-6.4371,-6.3952,-6.1462,-5.7675,-5.5616,-5.4988,-5.4827,0.0,0.0,0.0,0.0,0.0,0.0,0.0,0.0,0.0,0.0,0.0,0.0,0.0,0.0,0.0,0.0,0.0,0.0,0.0,0.0,0.0,0.0,0.0,0.0,0.0,0.0,0.0,0.0,0.0,0.0,0.0,0.0,0.0,-4.1155,-4.5296,-4.7575,-4.5962,-4.8589,-4.8787,-4.4434,-4.4687,-4.5351,-4.5828,-4.6543,-4.7363,-4.8183,-4.8633,-4.8867,-4.8867,-4.8867,-4.8867,-4.8867,-4.8867,-4.8867,-4.8867,-4.8848,-4.8848,-4.8828,-4.8379,-4.8183,-4.8144,-4.7715,-4.707,-4.6289,-4.625,-4.5234,-4.375,-4.4199,-4.3574,-4.2402,-4.2402,-4.1894,-4.1172,0.0,0.0,-3.9873,-4.0425,-4.0526,-4.0752,-4.1455,-4.1907,-4.2866,-4.4618,-4.841,-5.2377,-5.6168,-5.9759,-6.2471,-6.3902,-6.1542,-5.9885,-5.9734,-5.5214,-5.2804,-5.3356,-5.3582,-5.5013,-5.7851,-5.9332,-6.0964,-6.2772,-6.3224,-6.345,-6.345,-6.3626,-6.3902,-6.4279,-6.4831,-6.4073,-6.2514,-6.4179,-6.1947,-5.7337,-5.7467,-5.6227,-5.3948,0.0,0.0,0.0,0.0,0.0,0.0,0.0,0.0,0.0,0.0,0.0,0.0,0.0,0.0,0.0,0.0,0.0,0.0,0.0,0.0,0.0,0.0,0.0,0.0,0.0,0.0,0.0,0.0,0.0,0.0,0.0,-4.0733,-4.169,-4.2228,-4.5869,-4.8208,-4.7594,-5.0579,-5.2263,-5.1122,-4.9651,-4.9338,-5.0531,-4.946,-4.8769,-4.8691,-4.8789,-4.8867,-4.8867,-4.8867,-4.8867,-4.8867,-4.8867,-4.8867,-4.894,-4.8535,-4.8379,-4.8379,-4.7949,-4.7578,-4.7266,-4.6836,-4.6348,-4.5801,-4.5176,-4.4433,-4.3711,-4.3848,-4.3105,-4.1973,-4.1973,-4.1641,-4.1172,0.0,-3.9697,-3.9798,-4.0124,-4.0174,-4.035,-4.0849,-4.1455,-4.2585,-4.4719,-4.9339,-5.3632,-5.6696,-6.0512,-6.2898,-6.3073,-6.0889,-5.9006,-5.7851,-5.4863,-5.3155,-5.3256,-5.5089,-5.7298,-5.9784,-6.0839,-6.2245,-6.4028,-6.3802,-6.3802,-6.4028,-6.4254,-6.453,-6.4831,-6.5383,-6.4814,-6.3617,-6.4986,-6.3186,-5.9369,-5.9773,-5.806,-5.4998,-5.2109,-4.9788,-4.7874,-4.5027,-4.4635,-4.5009,-4.1812,0.0,0.0,0.0,0.0,0.0,0.0,0.0,0.0,0.0,0.0,0.0,0.0,0.0,0.0,0.0,0.0,0.0,0.0,0.0,0.0,0.0,0.0,0.0,0.0,-4.3245,-4.416,-4.4704,-4.6672,-4.8399,-4.9208,-5.0963,-5.2218,-5.2311,-5.0987,-5.0521,-5.122,-5.0172,-4.9414,-4.916,-4.8965,-4.8867,-4.8867,-4.8867,-4.8867,-4.8867,-4.8867,-4.8867,-4.8848,-4.8418,-4.8203,-4.8183,-4.7578,-4.707,-4.6641,-4.623,-4.5703,-4.5098,-4.4394,-4.373,-4.3183,0.0,0.0,0.0,0.0,-4.1387,-4.1172,0.0,-3.9697,-3.9697,-3.9697,-3.9697,-3.9873,-4.0425,-4.0924,-4.2308,-4.5045,-4.9615,-5.3658,-5.6269,-5.9935,-6.1843,-6.1065,-5.9784,-5.7976,-5.5465,-5.4838,-5.4486,-5.4285,-5.7675,-5.9935,-6.0688,-6.222,-6.3525,-6.4555,-6.4028,-6.4053,-6.458,-6.5057,-6.5283,-6.5308,-6.586,-6.594,-6.5742,-6.6026,-6.4566,-6.2066,-6.2122,-6.0012,-5.6465,-5.3415,-5.1776,-5.0666,-4.6706,-4.5697,-4.5927,-4.3614,0.0,0.0,0.0,0.0,0.0,0.0,0.0,0.0,0.0,0.0,0.0,0.0,0.0,0.0,0.0,0.0,0.0,0.0,0.0,0.0,0.0,0.0,0.0,0.0,-4.5819,-4.6367,-4.7754,-4.791,-4.8594,-5.0566,-5.0527,-5.0407,-5.0767,-5.0502,-5.0231,-5.0062,-4.9797,-4.959,-4.9531,-4.9101,0.0,0.0,0.0,-4.8867,-4.8867,-4.8867,-4.8828,-4.8789,-4.834,-4.8105,-4.8027,-4.7226,-4.666,-4.6289,-4.5859,-4.5215,-4.4433,-4.3926,-4.3164,-4.2383,-4.2734,-4.2402,-4.168,-4.1308,-4.1172,-4.1172,0.0,-3.9697,-3.9697,-3.9697,-3.9697,-3.9873,-4.0425,-4.0924,-4.2128,-4.4493,-4.836,-5.1624,-5.3507,-5.6369,-5.8604,-5.9734,-5.76,-5.5767,-5.4787,-5.4637,-5.5516,-5.765,-5.9307,-6.1065,-6.2998,-6.3776,-6.4479,-6.5132,-6.458,-6.4605,-6.5132,-6.5233,-6.5283,-6.5308,-6.586,-6.5025,-6.329,-6.5285,-6.3554,-5.9817,-6.372,-6.0746,-5.3852,-5.2358,-5.1355,-5.0419,-4.8191,-4.9707,-5.2442,-4.9839,-5.0739,-5.2442,-4.9814,-4.7577,0.0,0.0,0.0,0.0,0.0,0.0,0.0,0.0,0.0,0.0,0.0,0.0,0.0,0.0,0.0,0.0,0.0,0.0,0.0,-4.5482,-4.6631,-4.791,-4.9902,-4.9883,-4.9961,-5.0723,-5.1035,-5.1923,-5.3921,-5.2383,-5.1841,-5.3395,-5.1423,-4.9902,-4.9551,-4.9101,-4.8867,-4.8867,-4.8867,-4.8867,-4.8867,-4.8867,-4.8672,-4.832,-4.791,0.0,-4.7168,-4.666,-4.6367,-4.6289,-4.5859,-4.5391,-4.4844,-4.4043,-4.3008,-4.1894,-4.1641,-4.1445,-4.1289,-4.1211,-4.1172,-4.1172,0.0,-3.9697,-3.9697,-3.9697,-3.9697,-3.9798,-4.0074,-4.0576,-4.163,-4.3539,-4.6702,-4.9414,-5.1071,-5.3231,-5.4662,-5.4938,-5.3432,-5.2955,-5.4059,-5.4913,-5.6746,-5.9809,-6.1266,-6.2797,-6.4454,-6.4756,-6.5157,-6.571,-6.5157,-6.5157,-6.571,-6.571,-6.571,-6.5735,-6.6287,-6.5732,-6.4391,-6.5869,-6.4431,-6.1274,-6.3386,-6.1137,-5.6418,-5.6688,-5.5599,-5.3931,-5.273,-5.3362,-5.4445,-5.2872,-5.2764,-5.3156,-5.2048,-5.0508,-4.9105,0.0,0.0,0.0,0.0,0.0,0.0,0.0,0.0,0.0,0.0,0.0,0.0,0.0,0.0,-4.5755,-4.6205,0.0,-4.6705,-4.7776,-4.8442,-4.918,-5.0039,-5.0547,-5.0801,-5.0801,-5.0996,-5.1937,-5.4257,-5.3731,-5.3644,-5.4464,-5.293,-5.1337,-4.9957,-4.9219,-4.8867,-4.8867,-4.8867,-4.8867,-4.8867,-4.8867,-4.875,-4.8535,-4.7891,-4.7461,-4.7226,-4.6582,-4.6074,-4.5644,-4.5449,-4.498,-4.4297,-4.3418,-4.2441,-4.1465,-4.125,-4.1172,-4.1172,-4.1172,-4.1172,-4.1172,0.0,-3.9697,-3.9697,-3.9697,-3.9697,-3.9722,-3.9848,-4.0325,-4.1229,-4.276,-4.5221,-4.733,-4.8661,-5.0193,-5.087,-5.0167,-5.0092,-5.1247,-5.4009,-5.5767,-5.8177,-6.1517,-6.3174,-6.4454,-6.5434,-6.5333,-6.5559,-6.6112,-6.5559,-6.5559,-6.6112,-6.6237,-6.6287,-6.6312,-6.689,-6.6865,-6.6463,-6.6815,-6.5915,-6.4115,-6.3586,-6.2402,-6.1188,-6.2391,-6.1022,-5.8407,-5.7727,-5.6822,-5.5929,-5.5606,-5.4338,-5.3,-5.3736,-5.3226,-5.216,-5.1419,-5.0845,0.0,0.0,0.0,0.0,0.0,0.0,0.0,0.0,0.0,-4.6577,-4.8385,-4.9332,-5.0075,-5.0935,-5.0575,-5.0223,-5.0348,-5.0165,-4.9961,-4.9687,-5.0469,-5.0937,-5.0605,-5.0781,-5.1638,-5.3608,-5.4569,-5.5093,-5.5208,-5.4351,-5.2941,-5.0987,-4.9596,-4.8867,-4.8867,-4.8867,-4.8867,-4.8867,-4.8867,-4.8769,-4.8594,-4.791,-4.75,-4.7305,-4.6621,-4.5918,-4.5254,-4.5,-4.4394,-4.3516,-4.2656,-4.1855,-4.1172,-4.1172,-4.1172,-4.1172,-4.1172,-4.1172,-4.1172,0.0,-3.9697,-3.9697,-3.9697,-3.9697,-3.9848,-4.035,-4.0902,-4.1656,-4.2811,-4.4543,-4.5748,-4.5924,-4.6979,-4.8033,-4.8887,-5.072,-5.3005,-5.5742,-5.7499,-5.9935,-6.3274,-6.4505,-6.5383,-6.6011,-6.5534,-6.5559,-6.6112,-6.5559,-6.5559,-6.6112,-6.6639,-6.689,-6.6915,-6.7467,-6.7668,-6.7593,-6.7166,-6.7066,-6.7291,-6.6741,-6.6367,-6.6217,-6.6379,-6.4597,-6.1806,-6.0702,-6.0363,-6.0552,-6.0974,-5.9682,-5.8094,-5.9095,-5.8024,-5.6099,-5.4612,0.0,-4.9916,-4.7657,-4.5598,-4.4744,-4.7456,-4.6803,-4.6878,0.0,0.0,-5.1875,-5.4034,-5.3961,-5.362,-5.4152,-5.2131,-5.0801,-5.1993,-5.0782,-4.9726,-5.0058,-4.9902,-4.9726,-4.9668,-5.0664,-5.1956,-5.3445,-5.4569,-5.5842,-5.7484,-5.5269,-5.3638,-5.3382,-5.0575,-4.8867,-4.8867,-4.8867,-4.8867,-4.8867,-4.8867,-4.8476,-4.7715,-4.7637,-4.7187,-4.6445,-4.6348,-4.625,-4.6094,-4.4961,-4.3965,-4.3086,-4.2226,-4.1601,-4.1172,-4.1172,-4.1172,-4.1172,-4.1172,-4.1172,-4.1172,0.0,0.0,-3.9697,-3.9697,-3.9697,-3.9772,-3.9998,-4.0501,-4.1153,-4.1932,-4.2911,-4.3721,-4.3991,-4.4443,-4.502,-4.5824,-4.8209,-5.1122,-5.4536,-5.7248,-6.0337,-6.3977,-6.4881,-6.5534,-6.6112,-6.5886,-6.5886,-6.6112,-6.5886,-6.5886,-6.6112,-6.6363,-6.6664,-6.699,-6.7543,-6.7794,-6.7819,-6.7894,-6.807,-6.8221,-6.7668,-6.7467,-6.7342,-6.6363,-6.4214,-6.1693,-6.1227,-6.0688,0.0,-5.9357,-5.873,-5.8378,-5.9156,-5.8303,-5.6771,-5.544,-5.3306,0.0,-4.7908,-4.7154,-4.7431,-4.851,-4.9515,-5.1096,-5.431,-5.4762,-5.5039,-5.6922,-5.7794,-5.8044,-5.7458,-5.6958,-5.5816,-5.3602,-5.2527,-5.1468,-4.9993,-5.069,-5.0996,-4.9891,-5.2159,-5.364,-5.3352,-5.5512,-5.705,-5.7581,-5.6549,-5.5224,-5.3443,-5.0527,-4.8867,-4.8867,-4.8867,-4.873,-4.8476,-4.8476,-4.8164,-4.7578,-4.7324,-4.7012,-4.666,-4.6426,-4.6035,-4.5508,-4.4453,-4.3496,-4.2656,-4.2051,-4.1562,-4.1172,-4.1172,-4.1172,-4.1172,-4.1172,-4.1172,-4.1172,0.0,0.0,0.0,-3.9697,-3.9697,-3.9697,-3.9697,-4.03,-4.0824,-4.1225,-4.1957,-4.259,-4.2936,-4.2986,-4.3212,-4.374,-4.605,-4.9063,-5.2779,-5.6168,-5.9684,-6.34,-6.453,-6.5333,-6.5886,-6.6036,-6.6112,-6.6112,-6.6112,-6.6112,-6.6112,-6.6287,-6.6664,-6.7216,-6.7769,-6.812,-6.8271,-6.8522,-6.8723,-6.8798,-6.807,-6.7618,-6.7116,-6.5132,-6.2772,-6.0512,-6.0487,-5.9182,-5.7323,-5.642,-5.6093,-5.6244,-5.7248,-5.7022,-5.6143,-5.5039,-5.2929,-5.0419,-4.8008,-4.846,-4.969,-5.0042,-5.2176,-5.4612,-5.6344,-5.7047,-5.7826,-5.9483,-6.0788,-6.1409,-6.0685,-6.0494,-5.9435,-5.6106,-5.487,-5.3611,-5.1515,-5.2263,-5.2485,-5.1059,-5.2688,-5.3664,-5.2902,-5.6287,-5.8739,-5.9034,-5.7909,-5.6331,-5.4122,-5.0773,-4.8867,-4.8867,-4.8867,-4.8711,-4.8398,-4.8262,-4.7988,-4.7578,-4.7129,-4.6875,-4.6738,-4.6445,-4.584,-4.498,-4.4219,-4.334,-4.2402,-4.1973,-4.1562,-4.1172,-4.1172,-4.1172,-4.1172,-4.1172,-4.1172,-4.1152,0.0,0.0,0.0,0.0,-3.9697,-3.9697,-3.9697,-4.0626,-4.1275,-4.1275,-4.2283,-4.2961,-4.2986,-4.2986,-4.3212,-4.374,-4.5372,-4.7782,-5.1147,-5.4461,-5.7775,-6.114,-6.335,-6.4756,-6.5308,-6.5835,-6.6112,-6.6112,-6.6112,-6.6112,-6.6112,-6.6689,-6.7241,-6.7794,-6.8346,-6.8899,-6.9351,-6.8848,-6.8924,-6.9325,-6.8246,-6.7141,-6.586,-6.3149,-6.0738,-5.8805,-5.8755,-5.5993,-5.2477,-5.3457,-5.2779,-5.185,-5.4009,-5.4662,0.0,-5.3331,-5.0645,-4.8008,-4.7908,-4.8711,-5.0243,-5.2879,-5.4461,-5.6194,-5.9433,-6.0186,-6.0663,-6.2345,-6.2747,-6.2891,-6.3468,-6.1276,-5.9544,-5.9958,-5.763,-5.5749,-5.5617,-5.4305,-5.3393,-5.3326,-5.1538,-5.0622,-5.1633,-5.672,-6.0954,-6.3369,-5.9257,-5.6661,-5.6573,-5.1734,-4.8867,-4.8867,-4.8867,-4.8848,-4.8848,-4.8418,-4.7988,-4.7578,-4.7129,-4.6719,-4.6328,-4.6308,-4.584,-4.5,-4.457,-4.3633,-4.2402,-4.1973,-4.1562,-4.1172,-4.1172,-4.1172,-4.1172,-4.1172,-4.1172,-4.1113,0.0,0.0,0.0,0.0,0.0,-3.9823,-4.0199,-4.0551,-4.0874,-4.1225,-4.2283,0.0,0.0,0.0,0.0,0.0,-4.4794,-4.6853,-4.9439,-5.2703,-5.5717,-5.8303,-6.1266,-6.2923,-6.3099,-6.4379,-6.5032,-6.5032,-6.5032,-6.5032,-6.5032,-6.5584,-6.6162,-6.6714,-6.7267,-6.7844,-6.8346,-6.8145,-6.797,-6.7668,-6.6187,-6.5157,-6.4203,-6.1391,-5.8278,-5.5239,0.0,-5.2578,-5.0921,-5.0544,-5.0067,-4.9866,-5.1348,-5.1548,-5.0971,-4.9515,-4.9314,-4.949,-4.9113,-5.0921,-5.3482,-5.5892,-5.7575,-5.9232,-6.1466,-6.1994,-6.2044,-6.2245,-6.1692,-6.1215,-6.1416,-6.0303,-5.934,-5.8962,-5.8536,-5.7699,-5.648,-5.6839,-5.6498,-5.429,-5.5067,0.0,-5.4238,-5.612,-5.7973,-5.9622,-5.8935,-5.7751,-5.6277,-5.2987,-5.053,-4.894,-4.8867,-4.8594,-4.8008,-4.7871,-4.7441,-4.6738,-4.6582,-4.6445,-4.6289,-4.6016,-4.5566,-4.4961,-4.3965,-4.3105,-4.2363,-4.168,-4.1308,-4.1172,-4.1172,-4.1172,-4.1172,-4.1172,-4.1172,-4.1113,0.0,0.0,0.0,0.0,0.0,0.0,0.0,0.0,0.0,0.0,0.0,0.0,0.0,0.0,0.0,0.0,0.0,-4.5648,-4.7481,-5.0142,-5.2628,-5.4888,-5.76,-5.9232,-5.9633,-6.0864,-6.1617,-6.1818,-6.2019,-6.222,-6.2421,-6.2973,-6.3726,-6.4655,-6.5032,-6.5735,-6.6589,-6.6413,-6.6011,-6.5333,-6.345,-6.2019,-6.0663,-5.7474,-5.4336,0.0,-4.9565,-4.8786,-4.8535,-4.7832,-4.7606,-4.7757,-4.8661,-4.8711,-4.8259,-4.738,-4.8686,-5.0469,-5.072,-5.3356,-5.647,-5.8303,-6.001,-6.1492,-6.2571,-6.2521,-6.2019,-6.1266,-5.991,-5.873,-5.8328,-5.7499,-5.7049,-5.7691,-5.8016,-5.8262,-5.846,-5.8092,-5.718,-5.5273,-5.5273,-5.4937,0.0,0.0,-5.5292,-5.8378,-5.8865,-5.8079,-5.6053,-5.3703,-5.1326,-4.894,-4.8867,-4.8516,-4.7812,-4.7656,-4.7148,-4.6308,-4.6308,-4.6308,-4.6289,-4.5859,-4.5351,-4.4746,-4.373,-4.2891,-4.2168,-4.1621,-4.1308,-4.1172,-4.1172,-4.1172,-4.1172,-4.1172,-4.1074,-4.0879,0.0,0.0,0.0,0.0,0.0,0.0,0.0,0.0,0.0,0.0,0.0,0.0,0.0,0.0,0.0,0.0,0.0,0.0,-4.5321,-4.6903,-4.8761,-5.0946,-5.2653,-5.4059,-5.5114,-5.5767,-5.6319,-5.6821,-5.7399,-5.7951,-5.8478,-5.9031,-6.0136,-6.1667,-6.1692,-6.2571,-6.4002,-6.3525,-6.2973,-6.2245,-6.006,-5.7901,-5.5591,-5.1825,-4.9339,-4.7581,-4.5497,-4.5045,-4.5447,-4.5472,-4.5522,-4.5673,-4.615,-4.6376,-4.6552,-4.7205,-4.8937,-5.1046,-5.2804,-5.6018,-5.9131,-6.0211,-6.1692,-6.2847,-6.2772,-6.1868,-6.0713,-5.9483,-5.7449,-5.5541,0.0,0.0,-5.308,-5.642,-5.6646,-5.775,-6.1592,-5.8472,-5.6041,0.0,0.0,0.0,0.0,0.0,0.0,-5.9665,-5.8992,-5.7513,-5.5856,-5.3615,-5.1326,-4.894,-4.8828,-4.8613,-4.8183,-4.7734,-4.7109,-4.6308,-4.6308,-4.6289,-4.625,-4.584,-4.5195,-4.4375,-4.3887,-4.2969,-4.1836,-4.1816,-4.1562,-4.1172,-4.1172,-4.1172,-4.1172,-4.1172,-4.0918,-4.0488,0.0,0.0,0.0,0.0,0.0,0.0,0.0,0.0,0.0,0.0,0.0,0.0,0.0,0.0,0.0,0.0,0.0,0.0,-4.4192,-4.5397,-4.6552,-4.7531,-5.0343,-5.1825,-5.1699,-5.3432,-5.421,-5.3984,-5.4511,-5.4838,-5.5013,-5.5968,-5.6671,-5.7097,-5.7499,-5.7926,-5.8303,-5.8177,-5.7801,-5.7123,-5.5315,-5.4009,-5.2904,-5.067,-4.8786,-4.7255,-4.6702,-4.5773,-4.492,-4.5347,-4.6024,-4.6677,-4.6401,-4.7154,-4.851,-5.0318,-5.2402,-5.4662,-5.7148,-5.9759,-6.1943,-6.2647,-6.3149,-6.3149,-6.1893,-6.0437,-5.8679,-5.6319,-5.3406,-5.0946,0.0,0.0,0.0,-5.5214,-5.775,0.0,-6.34,-6.2912,0.0,-6.0094,0.0,-5.4541,-5.3514,-5.4097,0.0,-5.7598,-5.5963,-5.4449,-5.3373,-5.2724,-5.1326,-4.894,-4.8535,-4.8164,-4.7754,-4.6992,-4.6523,-4.6308,-4.6308,-4.6133,-4.582,-4.5391,-4.4902,-4.4355,-4.3574,-4.2871,-4.2246,-4.1933,-4.1562,-4.1172,-4.1172,-4.1172,-4.1172,-4.1172,-4.1094,-4.0898,0.0,0.0,0.0,0.0,0.0,0.0,0.0,0.0,0.0,0.0,0.0,0.0,0.0,0.0,0.0,0.0,0.0,0.0,0.0,-4.4041,-4.4618,-4.5171,-4.7004,-4.7958,-4.7883,-4.9339,-5.0193,-5.0393,-5.0896,-5.1423,-5.1925,-5.2553,-5.3105,-5.3607,-5.3909,-5.431,-5.4762,-5.4511,-5.4084,0.0,0.0,-5.0619,-4.9741,-4.8058,-4.6677,-4.5648,-4.5397,-4.5347,-4.5522,0.0,0.0,-4.7958,-4.8636,-4.9992,-5.1699,-5.3683,0.0,-5.8001,-6.0035,-6.222,-6.3877,-6.3726,-6.35,-6.2621,-5.996,-5.8077,-5.5892,-5.2377,-4.9389,-4.7079,-4.5949,-4.6451,-4.8485,0.0,0.0,0.0,-6.3199,-6.2953,-6.1949,0.0,-5.8249,0.0,-5.4974,-5.5183,-5.56,-5.611,-5.6902,-5.6787,-5.5528,-5.4477,-5.2902,-5.053,-4.9143,-4.8203,-4.7578,-4.6914,-4.6484,-4.6308,-4.6308,-4.6074,-4.5664,-4.5234,-4.4687,-4.4062,-4.3379,-4.2734,-4.2129,-4.1894,-4.1562,-4.1172,-4.1172,-4.1172,-4.1172,-4.1172,-4.1055,-4.0801,0.0,0.0,0.0,0.0,0.0,0.0,0.0,0.0,0.0,0.0,-4.3112,0.0,0.0,0.0,0.0,0.0,0.0,0.0,0.0,0.0,-4.3263,-4.3689,-4.384,-4.4091,-4.4518,-4.5146,-4.5924,-4.6803,-4.733,-4.8083,-4.9063,-4.9113,-4.969,-5.0619,-5.0619,-5.1147,-5.2026,-5.1548,-5.1071,-5.0494,-4.9038,-4.7832,-4.6753,0.0,-4.4292,-4.374,-4.3263,-4.4342,-4.6301,0.0,-4.9289,-4.9891,-5.2,-5.3884,-5.5691,-5.7499,-5.9433,-6.124,-6.2446,-6.4178,-6.5358,-6.4178,-6.3299,-6.1692,-5.7725,-5.5365,-5.2754,-4.8284,0.0,-4.384,-4.2735,-4.3162,-4.5372,-5.0544,0.0,-5.6671,-6.2345,-6.1429,-6.0351,-6.088,-5.8367,-5.646,-5.6029,-5.5552,-5.5331,-5.5762,-5.9684,-6.1187,-5.8945,-5.6637,-5.4368,-5.1944,-4.9862,-4.8301,-4.75,-4.707,-4.666,-4.6308,-4.625,-4.5996,-4.5566,-4.5137,-4.4492,-4.3691,-4.3262,-4.2617,-4.1875,-4.1816,-4.1562,-4.1172,-4.1172,-4.1172,-4.1172,-4.1172,-4.0898,-4.0469,0.0,0.0,0.0,0.0,0.0,0.0,0.0,0.0,0.0,0.0,-4.384,-4.2986,0.0,0.0,0.0,0.0,0.0,0.0,0.0,0.0,0.0,-4.3137,-4.3991,-4.4317,-4.394,-4.4945,-4.5347,-4.5045,-4.5623,-4.5999,-4.62,-4.6677,-4.6979,-4.7179,-4.7179,-4.728,-4.7456,-4.7355,-4.7255,-4.7154,-4.6853,-4.6351,-4.5698,-4.492,0.0,0.0,-4.3689,-4.3915,-4.492,-4.9364,-5.2051,-5.3783,-5.5089,-5.7273,-5.9834,-6.2421,-6.3776,-6.4781,-6.6363,-6.7066,-6.699,-6.5409,-6.3576,-6.1014,-5.6671,-5.3331,0.0,0.0,-4.3112,-4.1526,-4.0475,-4.1831,-4.507,-5.0996,-5.3808,-5.7499,-6.3952,-6.4119,-6.3851,0.0,-6.1534,-5.9412,-5.9342,-5.8847,0.0,-5.855,-6.112,-6.0813,-5.6614,-5.4301,-5.175,-4.9029,-4.824,-4.7558,-4.7051,-4.6621,-4.6367,-4.6289,-4.5957,-4.5547,-4.5117,-4.4707,-4.4219,-4.3691,-4.3262,-4.2793,-4.2285,-4.1953,-4.1562,-4.1172,-4.1172,-4.1172,-4.1172,-4.1172,-4.0898,-4.0469,0.0,0.0,0.0,0.0,0.0,0.0,0.0,-4.3382,-4.4242,-4.7606,-4.7355,-4.62,-4.4468,-4.3765,-4.3413,0.0,0.0,0.0,0.0,0.0,0.0,0.0,-4.4342,-4.4493,-4.4242,-4.5045,-4.5497,-4.5497,0.0,-4.6075,-4.6351,-4.6326,-4.6301,-4.6301,-4.6301,-4.6301,-4.6301,-4.6301,-4.6301,-4.6301,-4.6301,-4.5974,-4.5422,0.0,0.0,0.0,0.0,0.0,-4.5271,-4.9113,-5.2452,-5.544,-5.8001,-6.0688,-6.3274,-6.5208,-6.6162,-6.689,-6.8271,-6.8648,-6.817,-6.6212,-6.34,-5.9759,-5.4461,0.0,0.0,0.0,-4.1028,-4.0325,-3.9798,-4.1505,0.0,-4.8033,-5.0494,-5.416,-6.0537,-6.1441,0.0,-6.4982,-6.3578,-6.2468,0.0,-6.1649,-6.1159,-6.1159,-6.2117,-6.1787,-5.9607,-5.724,-5.4259,-5.0477,-4.9961,-4.8911,-4.7266,-4.6836,-4.6406,-4.5976,-4.5781,-4.5332,-4.4687,-4.4492,-4.4141,-4.3691,-4.3262,-4.2832,-4.2402,-4.1973,-4.1562,-4.1172,-4.1172,-4.1172,-4.1172,-4.1172,-4.0898,-4.0469,0.0,0.0,0.0,0.0,0.0,0.0,-4.5723,-4.5648,-4.6652,-5.077,-5.1096,-4.9816,-4.6878,-4.5547,-4.4568,0.0,0.0,0.0,0.0,0.0,0.0,0.0,0.0,0.0,0.0,0.0,0.0,-4.6301,-4.6301,0.0,0.0,0.0,0.0,0.0,-4.6301,-4.6301,-4.6301,-4.6301,-4.6301,0.0,0.0,-4.605,0.0,0.0,0.0,0.0,0.0,0.0,0.0,0.0,-5.1498,-5.4938,-5.8478,-6.222,-6.5484,-6.6488,-6.7518,-6.8547,-6.9526,-6.9702,-6.9074,-6.6865,-6.3023,-5.8303,-5.2578,-4.8435,0.0,-4.0526,-3.9697,-3.9697,-3.9697,-4.1103,-4.2986,0.0,-4.7129,-5.0594,-5.6846,-5.8478,-6.0537,0.0,-6.4731,0.0,-6.4454,-6.3576,0.0,-6.2847,-6.2822,-6.2577,-6.2035,-5.9835,-5.6569,-5.2397,-5.1334,-4.9765,-4.7441,-4.6914,-4.6328,-4.5683,-4.5488,-4.5039,-4.4394,-4.4297,-4.4043,-4.3672,-4.3164,-4.2754,-4.2383,-4.1875,-4.1465,-4.1172,-4.1172,-4.1172,-4.1172,-4.1172,-4.0898,-4.0469,0.0,0.0,0.0,0.0,0.0,0.0,-4.5723,-4.6652,-4.8661,-5.3532,-5.3306,-5.2,-5.0167,-4.8987,-4.7104,0.0,0.0,0.0,0.0,0.0,0.0,0.0,0.0,0.0,0.0,0.0,0.0,-4.6301,-4.6301,0.0,0.0,0.0,0.0,0.0,0.0,-4.6301,-4.6301,-4.6301,0.0,0.0,0.0,0.0,0.0,0.0,0.0,0.0,0.0,0.0,0.0,0.0,0.0,-5.1272,-5.3658,-5.9408,-6.5409,-6.6011,0.0,0.0,-7.0757,-7.0556,-6.9652,-6.7442,-6.2471,-5.6922,-5.2327,0.0,0.0,-4.03,-3.9697,-3.9697,-3.9697,-3.9873,-4.1204,0.0,0.0,-4.959,-5.6194,-5.8905,-6.1291,-6.4203,0.0,0.0,-6.4454,-6.3952,-6.34,-6.2873,-6.2822,-6.187,-5.9751,-5.7412,-5.4784,-5.1846,-4.932,-4.769,-4.6992,-4.6191,-4.5742,-4.5664,-4.4883,-4.4473,-4.4394,-4.3965,-4.375,-4.3652,-4.2832,-4.2461,-4.2363,-4.1562,-4.1211,-4.1172,-4.1172,-4.1172,-4.1172,-4.1172,-4.0898,-4.0508,0.0,0.0,0.0,0.0,0.0,0.0,-4.615,-4.6426,-4.8159,-5.3833,-5.4762,-5.426,-5.2578,-5.2302,-5.0243,-4.5246,0.0,0.0,0.0,0.0,0.0,0.0,0.0,0.0,0.0,0.0,-4.6301,-4.6301,-4.6301,0.0,0.0,0.0,0.0,0.0,0.0,0.0,-4.6301,-4.6301,0.0,0.0,0.0,0.0,0.0,0.0,0.0,0.0,0.0,0.0,0.0,0.0,0.0,0.0,-4.8962,-5.298,0.0,0.0,-6.5107,-6.7769,-6.9978,-7.0907,-7.0631,-6.8095,-6.2395,-5.6319,-5.2226,0.0,-4.2208,-4.0124,-3.9697,-3.9697,-3.9697,-3.9697,-4.0199,0.0,0.0,0.0,-4.9339,-5.1147,-5.416,-6.0286,-6.1291,0.0,0.0,0.0,-6.3927,-6.34,-6.3023,-6.2388,-6.1432,-5.9138,-5.5956,-5.1871,-5.0373,-4.8816,-4.6933,-4.6094,-4.5547,-4.5273,-4.4687,-4.4258,-4.3965,-4.5046,-4.4743,-4.3363,-4.4078,-4.3417,-4.2071,-4.2668,-4.2273,-4.1405,-4.3739,-4.3966,-4.3075,-4.4247,-4.3841,-4.2616,0.0,0.0,0.0,0.0,0.0,-4.1957,-4.625,-4.6652,-4.836,-5.3607,-5.529,-5.5465,-5.411,-5.3582,-5.1624,-4.733,-4.6552,0.0,0.0,0.0,0.0,0.0,0.0,0.0,0.0,0.0,-4.6778,-4.6778,-4.6778,-4.6702,0.0,0.0,0.0,0.0,0.0,0.0,0.0,0.0,0.0,0.0,0.0,0.0,0.0,0.0,0.0,0.0,0.0,0.0,0.0,0.0,0.0,0.0,0.0,0.0,-5.0921,0.0,-6.1642,-6.4982,-6.797,-6.9828,-7.0355,-6.7919,-6.1893,-5.5616,0.0,0.0,-4.148,-3.9998,-3.9697,-3.9697,-3.9697,-3.9697,-3.9697,-3.9697,0.0,-4.0978,-4.492,-4.6376,-4.9515,0.0,0.0,-5.9483,-6.3224,-6.3977,-6.4078,-6.3726,-6.3149,-6.247,-6.1763,-6.0194,-5.7538,-5.3625,-5.2628,-5.0904,-4.8489,-4.7158,-4.6236,-4.5713,-4.5274,-4.4835,-4.4458,-4.6724,-4.6611,-4.4718,-4.5919,-4.5363,-4.3633,-4.4588,-4.4172,-4.3151,-4.5945,-4.6146,-4.5127,-4.6514,-4.6146,-4.4859,0.0,0.0,0.0,0.0,0.0,0.0,-4.5723,-4.7707,-4.9941,-5.3281,-5.4687,-5.5189,-5.4612,-5.2101,-5.0444,-5.0368,-4.7883,0.0,0.0,0.0,0.0,0.0,0.0,0.0,0.0,0.0,-4.7883,-4.7883,-4.7883,-4.7631,-4.7068,-4.7068,-4.6828,-4.6301,0.0,0.0,0.0,0.0,0.0,0.0,0.0,0.0,-4.625,0.0,0.0,0.0,0.0,0.0,0.0,0.0,0.0,0.0,0.0,-4.3413,-4.5296,-5.2528,-5.8152,-6.2521,-6.4731,-6.6965,-6.8246,-6.6564,-6.0713,-5.4687,0.0,0.0,-4.0974,-3.9923,-3.9697,-3.9697,-3.9697,-3.9697,-3.9697,-3.9697,-4.0601,0.0,-4.5095,-4.7355,-4.9816,0.0,0.0,-5.5917,-5.9232,-6.2069,-6.3701,-6.3701,-6.3149,-6.1787,-5.9475,-5.9307,-5.8831,-5.7891,-5.558,-5.3622,-5.2064,-4.9536,-4.8021,-4.7478,-4.7017,-4.6476,-4.6037,-4.8771,-4.9371,-4.828,-4.8432,-4.8163,-4.7597,-4.7157,-4.6955,-4.6955,-4.6955,-4.6955,-4.6955,-4.6955,-4.6955,-4.6662,0.0,0.0,0.0,0.0,0.0,0.0,0.0,-4.3664,-4.5447,-4.8786,-5.0167,-5.1523,-5.3256,-5.1297,-5.0017,-5.0393,-4.7908,0.0,0.0,0.0,0.0,0.0,0.0,0.0,0.0,-4.7908,-4.8109,-4.851,-4.851,-4.841,-4.8259,-4.8259,-4.7757,-4.6878,-4.6878,-4.6652,0.0,0.0,0.0,0.0,0.0,-4.6301,-4.625,0.0,0.0,0.0,0.0,0.0,0.0,0.0,0.0,0.0,0.0,0.0,0.0,-4.7355,-5.2151,-5.6646,-5.8127,-6.0412,-6.1793,-5.9382,-5.5064,-5.0795,-4.8435,0.0,-4.0974,-3.9923,-3.9697,-3.9697,-3.9697,-3.9697,-4.0074,-4.1204,-4.1681,0.0,0.0,0.0,0.0,-5.308,-5.878,-6.2722,0.0,-6.3927,-6.4078,-6.3726,-6.3149,-6.247,-6.1763,-6.168,-5.9795,-5.5603,-5.4823,-5.3683,-5.2123,-5.0962,-5.0154,-4.9591,-4.8781,-4.8298,-4.8145,-5.0109,-4.9824,-4.794,-4.9425,-4.9002,-4.7326,-4.8575,-4.8217,-4.7248,-4.9985,-5.0198,-4.9224,-5.0576,-5.0198,-4.8938,0.0,0.0,0.0,0.0,0.0,0.0,0.0,-4.1831,-4.3288,-4.5573,-4.6853,-4.8661,-5.1649,-4.9615,-4.8686,-5.0268,-4.7908,0.0,0.0,0.0,0.0,0.0,0.0,0.0,-4.8535,-4.8535,-4.9038,-5.0042,-5.0243,-5.0243,-5.0042,-5.0243,-4.9289,-4.7431,-4.7431,-4.7004,0.0,0.0,0.0,0.0,-4.6552,-4.6502,-4.6276,0.0,0.0,0.0,0.0,0.0,0.0,0.0,0.0,0.0,0.0,0.0,0.0,0.0,-4.7255,-5.0795,-5.3181,-5.5691,-5.7173,-5.5239,-5.2,-4.8761,0.0,0.0,-4.0974,-3.9923,-3.9697,-3.9697,-3.9697,-3.9697,-4.0023,-4.1106,-4.1282,0.0,0.0,0.0,0.0,-5.3532,-5.9885,0.0,-6.3149,-6.3927,-6.4153,-6.3425,-6.3023,-6.2822,-6.2822,-6.2822,-6.1023,-5.7066,-5.6936,-5.6092,-5.4279,-5.3218,-5.2294,-5.1528,-5.0704,-5.0201,-5.0018,-5.182,-5.1513,-4.974,-5.1249,-5.089,0.0,-5.0576,-5.0339,-4.9463,-5.1956,-5.2189,-5.1233,-5.2491,-5.1995,-5.0567,0.0,0.0,0.0,0.0,0.0,0.0,0.0,-4.1831,-4.3062,-4.3614,-4.4618,-4.6527,-4.9715,-4.728,-4.6702,-4.9841,0.0,0.0,0.0,0.0,0.0,0.0,0.0,0.0,-4.959,-4.959,-5.0393,-5.2051,-5.2603,-5.2628,-5.2176,-5.2678,-5.1197,-4.8083,-4.8008,-4.7355,-4.6351,0.0,0.0,0.0,-4.6878,-4.6778,0.0,0.0,0.0,0.0,0.0,0.0,0.0,0.0,0.0,0.0,0.0,0.0,0.0,0.0,0.0,0.0,0.0,-5.2251,-5.3708,-5.3105,-5.0594,-4.7883,-4.6326,-4.3539,0.0,-3.9923,-3.9697,-3.9697,-3.9747,-3.9722,-3.9747,-3.9898,-3.9923,0.0,0.0,-4.5321,0.0,0.0,-5.8453,-6.0462,-5.9784,-6.2596,-6.4002,-6.2923,-6.2822,-6.2822,-6.2822,-6.2797,-6.2295,-6.1215,-6.1115,-6.0035,-5.7926,-5.5953,-5.4353,-5.3278,-5.2753,-5.213,-5.1605,-5.3629,-5.3884,-5.2955,-5.3432,-5.3381,-5.2929,-5.2929,-5.2929,-5.2929,-5.2929,-5.2929,-5.2929,-5.2929,-5.2535,-5.142,0.0,0.0,0.0,0.0,0.0,0.0,0.0,0.0,0.0,0.0,-4.3193,-4.4367,-4.6426,-4.5547,-4.5497,0.0,0.0,0.0,0.0,0.0,0.0,0.0,0.0,0.0,-4.959,-4.959,-5.0218,-5.1473,-5.2026,-5.2452,-5.2729,-5.2879,-5.1825,-4.9791,-4.8937,-4.7732,-4.6326,-4.6451,0.0,0.0,-4.6451,-4.6426,0.0,0.0,0.0,0.0,-4.5547,-4.5196,0.0,0.0,0.0,0.0,0.0,0.0,0.0,0.0,-4.3162,-4.3589,-4.4644,0.0,-4.6728,-4.5748,-4.4651,-4.3514,0.0,-4.158,-4.0526,-3.9848,-3.9697,-3.9823,-4.0249,-3.9973,-4.0249,-4.1932,-4.2208,-4.2685,-4.4041,-4.9439,0.0,-6.0286,-6.3174,-6.4028,-6.222,-6.3525,-6.4002,-6.2923,-6.2822,-6.2822,-6.2822,-6.2421,-6.1893,-6.1215,-6.0337,-5.9257,-5.7901,-5.7398,-5.6402,-5.4888,-5.4342,-5.3772,-5.313,-5.3273,-5.3181,-5.2929,-5.3055,-5.303,-5.2929,-5.2929,-5.2929,-5.2929,-5.2929,-5.2929,-5.2929,-5.2929,-5.1882,-5.0311,0.0,0.0,0.0,0.0,0.0,0.0,0.0,0.0,0.0,0.0,-4.2484,-4.3413,-4.4593,-4.4443,0.0,0.0,0.0,0.0,0.0,0.0,0.0,0.0,0.0,-4.959,-4.959,-4.959,-5.0393,-5.2026,-5.2578,-5.313,-5.3683,-5.3934,-5.2754,-5.0343,-4.8736,-4.7531,-4.6702,-4.6702,-4.6552,-4.6326,-4.6577,0.0,0.0,0.0,0.0,0.0,-4.5497,-4.5121,0.0,-4.4945,-4.4819,-4.4518,0.0,0.0,0.0,0.0,-4.2986,-4.2986,-4.2986,-4.3413,-4.374,-4.3137,-4.276,-4.2308,-4.1476,-4.105,-4.0676,-3.9848,-3.9697,-3.9798,-4.0074,-3.9898,-4.0249,-4.1957,-4.2434,0.0,0.0,0.0,-5.77,-6.1943,-6.3952,-6.453,-6.335,-6.3751,-6.3751,-6.2898,-6.2822,-6.2822,-6.2822,-6.2295,-6.1743,-6.119,-6.0085,-5.8981,-5.7901,-5.7625,-5.6796,-5.539,-5.4838,-5.426,-5.3683,-5.3155,-5.2929,-5.2929,-5.2929,-5.2929,-5.2929,-5.2929,-5.2929,-5.2929,-5.2929,-5.2929,-5.2904,-5.2628,-5.1737,-5.0405,0.0,0.0,0.0,0.0,0.0,0.0,0.0,0.0,0.0,0.0,0.0,0.0,0.0,0.0,0.0,0.0,0.0,0.0,0.0,0.0,0.0,0.0,-4.8837,-4.9464,-4.9715,-4.9565,-5.0569,-5.2804,-5.3507,-5.416,-5.4838,-5.539,-5.3808,-5.0469,-4.851,-4.7456,-4.7068,-4.6993,-4.6753,-4.6351,-4.6828,0.0,0.0,0.0,0.0,0.0,0.0,0.0,0.0,-4.5171,-4.5296,-4.5121,-4.4543,0.0,0.0,0.0,0.0,0.0,-4.3137,-4.3237,-4.3187,-4.3011,-4.2986,-4.271,-4.1706,-4.1275,-4.0953,-4.0023,-3.9747,-3.9722,-3.9798,-4.0023,-4.0526,-4.1501,-4.2685,-4.5648,-5.2076,-5.5616,-5.8704,-6.1893,-6.3249,-6.3827,-6.3576,-6.3651,-6.345,-6.2873,-6.2822,-6.2797,-6.2697,-6.2169,-6.1617,-6.1065,-5.9885,-5.878,-5.7775,-5.7198,-5.6344,-5.5265,-5.4687,-5.4135,-5.3557,-5.313,-5.2929,-5.2929,-5.2929,-5.2929,-5.2929,-5.2929,-5.2929,-5.2929,-5.2929,-5.2929,-5.2879,-5.2402,-5.1722,-5.0727,0.0,0.0,0.0,0.0,0.0,0.0,0.0,0.0,0.0,0.0,0.0,0.0,0.0,0.0,0.0,0.0,0.0,0.0,0.0,0.0,0.0,-4.7883,-4.8083,-4.8837,-5.0268,-4.9364,-4.9992,-5.2226,-5.3708,-5.4963,-5.5968,-5.652,-5.4762,-5.1096,-5.0268,-4.8887,-4.7043,-4.6627,-4.6376,-4.6326,-4.6401,0.0,0.0,0.0,0.0,0.0,0.0,0.0,0.0,-4.4568,-4.4443,-4.3966,-4.3413,0.0,0.0,0.0,0.0,0.0,-4.3865,-4.4367,-4.4141,-4.3212,-4.2986,-4.2811,-4.2238,-4.1304,-4.0601,-4.0425,-4.0023,-3.9848,-4.03,-4.153,-4.2685,-4.3313,-4.6652,-5.0996,-5.6269,-5.8629,-6.0713,-6.3149,-6.4379,-6.4505,-6.3099,-6.34,-6.345,-6.2873,-6.2822,-6.2621,-6.2144,-6.1617,-6.104,-6.0462,-5.8956,-5.7826,-5.7173,-5.662,-5.5792,-5.4687,-5.411,-5.3557,-5.3055,-5.2955,-5.2929,-5.2929,-5.2929,-5.2929,-5.2929,-5.2929,-5.2929,-5.2929,-5.2929,-5.2929,-5.2929,-5.2829,-5.1713,-4.9816,0.0,0.0,0.0,0.0,0.0,0.0,0.0,0.0,0.0,0.0,0.0,0.0,0.0,0.0,0.0,0.0,0.0,0.0,0.0,0.0,-4.7456,-4.9188,-4.8385,-4.8686,-5.0393,-5.082,-5.195,-5.3884,-5.5541,-5.6771,-5.7499,-5.5968,-5.3984,-5.1649,-4.9866,-4.8335,-4.7043,-4.6552,-4.6301,-4.6301,0.0,0.0,0.0,0.0,0.0,0.0,0.0,0.0,0.0,0.0,-4.4016,-4.3765,-4.3514,0.0,0.0,0.0,0.0,0.0,-4.2529,-4.3062,-4.3388,-4.3765,-4.4342,-4.4317,-4.2615,-4.1756,-4.1329,-4.1028,-4.0526,-4.0501,-4.163,-4.3212,-4.5296,-4.8259,-5.1699,-5.5013,-5.7901,-5.9734,-6.1391,-6.3023,-6.3651,-6.3776,-6.335,-6.3249,-6.3124,-6.2847,-6.2546,-6.227,-6.2019,-6.119,-6.0462,-5.9885,-5.8278,-5.7173,-5.6595,-5.544,-5.4612,-5.411,-5.3833,-5.3432,-5.2929,-5.2929,-5.2929,-5.2929,-5.2929,-5.2929,-5.2929,-5.2929,-5.2929,-5.2929,-5.2929,-5.2929,-5.2879,-5.2578,-5.1507,-4.9981,0.0,0.0,0.0,0.0,0.0,0.0,0.0,0.0,0.0,0.0,0.0,0.0,0.0,0.0,0.0,0.0,0.0,0.0,0.0,-4.6175,-4.7179,-4.954,-4.8912,-4.9515,-5.1724,-5.2653,-5.4235,-5.6545,-5.8102,-5.9131,-5.9583,-5.6369,-5.4084,-5.2553,-4.9891,-4.8184,-4.728,-4.6728,-4.6426,-4.6301,0.0,0.0,0.0,0.0,0.0,0.0,0.0,0.0,0.0,0.0,0.0,0.0,0.0,0.0,0.0,-4.2011,-4.148,-4.1175,-4.1551,-4.2133,-4.2886,-4.4267,-4.5171,-4.5397,-4.4224,-4.3646,-4.3263,-4.3112,-4.2635,-4.2509,-4.3413,-4.5372,-4.8435,-5.3306,-5.6294,-5.8478,-5.9834,-6.124,-6.2446,-6.3299,-6.3299,-6.335,-6.3651,-6.3174,-6.2822,-6.2822,-6.232,-6.1943,-6.1818,-6.0738,-5.9885,-5.9332,-5.77,-5.657,-5.6018,-5.4486,-5.3708,-5.3708,-5.3582,-5.3306,-5.2929,-5.2929,-5.2929,-5.2929,-5.2929,-5.2929,-5.2929,-5.2779,-5.2729,-5.2729,-5.2729,-5.2804,-5.2854,-5.2302,-5.1473,-5.0619,0.0,0.0,0.0,0.0,0.0,0.0,0.0,0.0,0.0,0.0,0.0,0.0,0.0,0.0,0.0,0.0,0.0,0.0,0.0,-4.5824,-4.61,-4.733,-4.9213,-5.1975,-5.5717,-5.4386,-5.5717,-5.996,-6.114,-6.1994,-6.2471,-5.9659,-5.6947,-5.4285,-5.2051,-4.9866,-4.7832,-4.7305,-4.6778,-4.6301,-4.6301,0.0,0.0,0.0,0.0,0.0,0.0,0.0,0.0,0.0,0.0,0.0,0.0,0.0,-4.2062,-4.0953,-4.0601,-4.0902,-4.2434,-4.3263,-4.384,-4.4468,-4.4292,-4.4869,-4.8284,-4.7883,-4.7054,-4.8033,-4.7782,-4.6954,-4.5573,-4.836,-5.2327,-5.6821,-5.9433,-6.1617,-6.3751,-6.458,-6.5032,-6.5107,-6.4655,-6.4178,-6.3726,-6.3174,-6.2822,-6.2822,-6.232,-6.1793,-6.1266,-6.0161,-5.9307,-5.878,-5.7148,-5.6018,-5.544,-5.4285,-5.3708,-5.3683,-5.3206,-5.2955,-5.2929,-5.2929,-5.2929,-5.2929,-5.2929,-5.2929,-5.2879,-5.2377,-5.2176,-5.2176,-5.2176,-5.2477,-5.2854,-5.2302,-5.1724,-5.1222,0.0,0.0,0.0,0.0,0.0,0.0,0.0,0.0,0.0,0.0,0.0,0.0,0.0,0.0,0.0,0.0,0.0,0.0,0.0,-4.6125,-4.6803,-4.8586,-4.9464,-5.1574,-5.5114,-5.7273,-6.001,-6.34,-6.4178,-6.3802,-6.2245,-5.878,-5.5691,-5.2929,-5.072,-4.9238,-4.8385,-4.7506,-4.7405,-4.7757,-4.6728,-4.6527,0.0,0.0,0.0,0.0,0.0,0.0,0.0,0.0,-4.2816,-4.2489,-4.2263,-4.1681,-4.1128,-4.1053,-4.0551,-4.0224,-4.1178,-4.2333,-4.3514,-4.4392,-4.5246,-4.6351,-4.8134,-4.8611,-4.9063,-5.0544,-5.0946,-5.0946,-5.0645,-5.2653,-5.5239,-5.7951,-6.0839,-6.3023,-6.3877,-6.4731,-6.5157,-6.4831,-6.4304,-6.3902,-6.3701,-6.3174,-6.2697,-6.2345,-6.1818,-6.109,-6.0186,-5.9106,-5.8102,-5.7198,-5.5867,-5.4913,-5.4336,-5.3582,-5.3231,-5.3231,-5.303,-5.2929,-5.2929,-5.2929,-5.2929,-5.2929,-5.2929,-5.2729,-5.2402,-5.2176,-5.19,-5.1624,-5.1975,-5.2452,-5.2854,-5.2302,-5.1749,-5.1222,0.0,0.0,0.0,0.0,0.0,0.0,0.0,0.0,0.0,0.0,0.0,0.0,0.0,0.0,0.0,0.0,0.0,0.0,-4.6301,-4.615,-4.6803,-4.8485,-4.9063,-5.0896,-5.421,-5.8478,-6.1918,-6.4505,-6.5936,-6.5057,-6.1943,-5.8755,-5.6068,-5.3808,-5.1046,-5.0017,-5.0218,-4.8611,-4.8234,-4.8636,-4.7154,-4.6803,0.0,0.0,0.0,0.0,0.0,0.0,0.0,0.0,-4.2665,-4.2187,-4.1957,-4.1379,-4.0802,-4.0974,-4.0551,-3.9998,-4.0199,-4.1204,-4.2509,-4.379,-4.5372,-4.7205,-4.949,-5.0745,-5.2051,-5.4235,-5.4034,-5.3708,-5.4587,-5.5541,-5.6821,-5.8629,-6.1617,-6.3751,-6.3927,-6.4555,-6.4831,-6.4279,-6.3902,-6.3626,-6.3425,-6.2898,-6.2421,-6.2044,-6.1165,-6.0311,-5.9533,-5.8152,-5.7022,-5.6244,-5.4963,-5.411,-5.3708,-5.3181,-5.2929,-5.2929,-5.2929,-5.2929,-5.2929,-5.2929,-5.2929,-5.2929,-5.2754,-5.2452,-5.2076,-5.1724,-5.1348,-5.1046,-5.1423,-5.1925,-5.2352,-5.1975,-5.1498,-5.0946,0.0,0.0,0.0,0.0,0.0,0.0,0.0,0.0,0.0,0.0,0.0,0.0,0.0,0.0,0.0,0.0,0.0,0.0,-4.625,-4.5773,-4.5723,-4.6276,-4.7857,-5.0293,-5.3557,-5.7449,-6.0537,-6.2847,-6.6137,-6.576,-6.1918,-6.0236,-5.888,-5.7675,-5.3833,-5.2703,-5.3507,-5.077,-4.9289,-4.8686,-4.7581,-4.7093,-4.7029,0.0,0.0,0.0,0.0,0.0,0.0,0.0,-4.2665,-4.2112,-4.1505,-4.1275,-4.1175,-4.0676,-4.0526,-4.04,-3.9848,-4.0124,-4.0927,-4.2585,-4.4292,-4.7129,-5.3206,-5.5013,-5.6344,-5.9659,-5.7298,-5.5114,-5.6771,-5.662,-5.6972,-5.9131,-6.1843,-6.3877,-6.4379,-6.4454,-6.4279,-6.3751,-6.3676,-6.345,-6.2873,-6.232,-6.1994,-6.1994,-6.0437,-5.9483,-5.9458,-5.7399,-5.6194,-5.6194,-5.4561,-5.3683,-5.3683,-5.3181,-5.2929,-5.2929,-5.2929,-5.2929,-5.2929,-5.2929,-5.2929,-5.2879,-5.2327,-5.2101,-5.2,-5.087,-5.0419,-5.0419,-5.0419,-5.077,-5.1272,-5.1272,-5.0921,-5.0419,0.0,0.0,0.0,0.0,0.0,0.0,0.0,0.0,0.0,0.0,0.0,0.0,0.0,0.0,0.0,0.0,0.0,0.0,-4.5146,-4.497,-4.4945,-4.5121,-4.6351,-4.7506,-4.8485,-5.2302,-5.7474,-6.3977,-6.4605,-6.2722,-5.8504,-5.8001,-5.6344,-5.3833,-5.3833,-5.3155,-5.19,-5.0268,-4.9715,-4.9791,-4.8284,-4.7682,-4.7556,0.0,0.0,0.0,0.0,0.0,0.0,0.0,0.0,0.0,-4.0927,-4.0974,-4.1175,-4.0676,-4.0802,-4.0924,-4.0425,-4.1229,-4.266,-4.4317,-4.7179,-5.0745,-5.5265,-5.6118,-5.7248,-6.1768,-6.0512,-5.8755,-5.9257,-5.8905,-5.873,-5.9382,-6.1517,-6.3149,-6.3299,-6.3676,-6.3726,-6.3149,-6.2747,-6.2446,-6.227,-6.1743,-6.109,-6.0286,-5.9784,-5.883,-5.7273,-5.6194,-5.5265,-5.4461,-5.3607,-5.3155,-5.3155,-5.3005,-5.2929,-5.2929,-5.2929,-5.2729,-5.2352,-5.2352,-5.2126,-5.1749,-5.1599,-5.1297,-5.087,-5.0142,-5.0067,-5.0419,-5.0419,-5.077,-5.1222,-5.082,-5.0569,-5.0368,0.0,0.0,0.0,0.0,0.0,0.0,0.0,0.0,0.0,0.0,-4.3539,-4.4066,0.0,0.0,0.0,0.0,0.0,0.0,-4.4644,-4.4618,-4.4719,-4.497,-4.5397,-4.625,-4.7581,-5.1423,-5.544,-5.9558,-6.0563,-5.9207,-5.5742,-5.7524,-5.7173,-5.5114,-5.6997,-5.6495,-5.416,-5.2804,-5.1649,-5.0619,-4.9163,-4.8435,-4.8159,0.0,0.0,0.0,0.0,0.0,0.0,0.0,0.0,0.0,-4.035,-4.0425,-4.0626,-4.03,-4.0425,-4.0701,-4.0802,-4.1882,-4.3639,-4.6426,-4.9389,-5.2729,-5.7022,-5.878,-6.0462,-6.3927,-6.2521,-6.0788,-6.124,-6.0311,-5.9633,-6.0085,-6.1667,-6.2822,-6.2822,-6.3124,-6.3149,-6.2571,-6.222,-6.1918,-6.1692,-6.0964,-6.0236,-5.9533,-5.8679,-5.76,-5.6269,-5.5265,-5.4411,-5.3733,-5.3206,-5.2929,-5.2929,-5.2929,-5.2829,-5.2603,-5.2603,-5.2201,-5.1448,-5.19,-5.18,-5.1272,-5.1046,-5.0619,-5.0067,-4.9741,-4.9791,-5.0117,-5.0343,-5.0494,-5.0594,-5.0469,-5.0268,-5.0042,0.0,0.0,-3.9772,-3.9772,0.0,0.0,0.0,0.0,0.0,0.0,-4.3062,-4.374,0.0,0.0,0.0,0.0,0.0,0.0,0.0,-4.4468,-4.4744,-4.5321,-4.502,-4.6351,-4.9515,-5.2955,-5.3758,-5.18,-5.5064,-5.5566,-5.3582,-5.8027,-5.9809,-5.9357,-6.1542,-6.0989,-5.8303,-5.647,-5.3909,-5.1046,-5.0017,-4.9238,-4.8636,-4.8109,0.0,0.0,0.0,0.0,0.0,0.0,0.0,0.0,-3.9873,-3.9772,-3.9823,-3.9722,-3.9772,-4.0074,-4.1125,-4.2283,-4.4217,-4.8761,-5.1423,-5.416,-5.8805,-6.222,-6.468,-6.5609,-6.3475,-6.1718,-6.2722,-6.1215,-6.0136,-6.1165,-6.2169,-6.2822,-6.2822,-6.2797,-6.2571,-6.2069,-6.1868,-6.1592,-6.109,-6.001,-5.9307,-5.9207,-5.7349,-5.6143,-5.5993,-5.4536,-5.3658,-5.3557,-5.3105,-5.2829,-5.2779,-5.2779,-5.2528,-5.2026,-5.2026,-5.1473,-5.0444,-5.1473,-5.1649,-5.1096,-5.0569,-5.0067,-4.959,-4.959,-4.959,-4.964,-5.0142,-5.0042,-4.9665,-5.0167,-5.0017,-4.959,0.0,0.0,-4.035,-4.035,0.0,0.0,0.0,0.0,0.0,0.0,0.0,0.0,0.0,0.0,0.0,0.0,0.0,0.0,0.0,-4.3338,-4.3589,-4.4141,-4.5723,-4.7531,-4.9565,-4.954,-4.9515,-4.949,-5.2402,-5.313,-5.19,-5.6344,-5.8102,-5.765,-5.9408,-5.8679,-5.5917,-5.2929,-5.0996,-4.9941,-4.969,-4.8987,-4.8083,-4.7958,-4.6552,0.0,0.0,0.0,0.0,0.0,0.0,0.0,-3.9998,-4.03,-4.0802,-3.9948,-4.03,-4.1229,-4.2333,-4.3438,-4.5547,-5.087,-5.5742,-5.9859,-6.2245,-6.335,-6.3802,-6.3576,-6.3324,-6.3224,-6.345,-6.2747,-6.2195,-6.2446,-6.2672,-6.2822,-6.2822,-6.2446,-6.2144,-6.2019,-6.0839,-5.9985,-5.9859,-5.888,-5.7876,-5.6997,-5.647,-5.5641,-5.431,-5.3909,-5.3306,-5.2477,-5.2327,-5.2076,-5.1649,-5.1624,-5.1574,-5.1448,-5.1448,-5.1096,-5.0419,-5.067,-5.0469,-4.9941,-4.9816,-4.9715,-4.959,-4.959,-4.959,-4.9615,-4.9715,-4.969,-4.9615,-4.9715,-4.969,-4.959,0.0,0.0,0.0,0.0,0.0,0.0,0.0,0.0,0.0,0.0,0.0,0.0,0.0,0.0,0.0,0.0,0.0,0.0,0.0,0.0,-4.3589,-4.4945,-4.6878,-4.8184,-4.8786,-4.8485,-4.8083,-4.7581,-4.9314,-5.0393,-5.0971,-5.5139,-5.7374,-5.7926,-6.0111,-5.8956,-5.5265,-5.3256,-5.1322,-4.9565,-4.9314,-4.8837,-4.8284,-4.8008,-4.6728,-4.4995,-4.4719,0.0,0.0,0.0,0.0,0.0,0.0,0.0,-4.045,-3.9873,-4.0099,-4.0902,-4.2534,-4.4367,-4.7405,-5.4034,-5.8855,-6.2195,-6.3073,-6.3073,-6.2797,-6.2496,-6.3099,-6.3701,-6.3701,-6.3224,-6.2747,-6.2471,-6.2446,-6.2345,-6.2069,-6.1793,-6.1416,-6.0864,-5.9809,-5.8905,-5.8378,-5.7323,-5.6445,-5.5867,-5.5315,-5.4637,-5.3758,-5.3206,-5.2678,-5.2126,-5.185,-5.1574,-5.1272,-5.1272,-5.1147,-5.087,-5.087,-5.0569,-5.0017,-5.0017,-4.9866,-4.959,-4.9314,-4.9339,-4.9565,-4.9314,-4.9364,-4.959,-4.959,-4.959,-4.959,-4.959,-4.959,-4.959,0.0,0.0,0.0,0.0,0.0,0.0,0.0,0.0,0.0,0.0,0.0,0.0,0.0,0.0,0.0,0.0,0.0,0.0,0.0,0.0,0.0,-4.6225,-4.7707,-4.8435,-4.8335,-4.8535,-4.8008,-4.6728,-4.7104,-4.8535,-5.1071,-5.4561,-5.7198,-5.9081,-6.0989,-5.9483,-5.544,-5.4135,-5.1975,-4.9414,-4.8862,-4.856,-4.8435,-4.7958,-4.6753,-4.5271,-4.4794,-4.3915,-4.2811,-4.1806,0.0,0.0,0.0,0.0,-3.9823,-3.9722,-3.9697,-4.0174,-4.2384,-4.5497,-4.9816,-5.6821,-6.0512,-6.2421,-6.2521,-6.2195,-6.1843,-6.1743,-6.2546,-6.3249,-6.3249,-6.2873,-6.2395,-6.1943,-6.1768,-6.1542,-6.109,-6.0889,-6.0362,-5.9332,-5.8679,-5.7876,-5.6846,-5.5842,-5.5214,-5.5089,-5.4235,-5.3658,-5.3582,-5.2628,-5.2076,-5.1975,-5.1423,-5.1096,-5.0996,-5.0996,-5.0745,-5.0268,-5.0167,-4.9941,-4.959,-4.9389,-4.9364,-4.9414,-4.8862,-4.8937,-4.9414,-4.8862,-4.8962,-4.9439,-4.9339,-4.9364,-4.9464,-4.9464,-4.9515,-4.959,0.0,0.0,0.0,0.0,0.0,0.0,0.0,0.0,0.0,0.0,-4.269,-4.2986,0.0,0.0,0.0,0.0,0.0,0.0,0.0,0.0,0.0,-4.6225,-4.6979,-4.8209,-5.0042,-4.8736,-4.8159,-4.8435,-4.8008,-4.9665,-5.3306,-5.529,-5.76,-6.0035,-5.8504,-5.7173,-5.5817,-5.1398,-4.9289,-4.8837,-4.8259,-4.7757,-4.733,-4.7255,-4.62,-4.4719,-4.4644,-4.3915,-4.2886,-4.2313,-4.2062,0.0,0.0,0.0,-4.03,-3.9848,-3.9697,-4.0174,-4.2384,-4.7481,-5.3105,-5.7022,-5.9332,-6.0788,-6.1291,-6.1341,-6.114,-6.0638,-6.1065,-6.1517,-6.1517,-6.1466,-6.1391,-6.1316,-6.0864,-6.0512,-6.0437,-5.9633,-5.8805,-5.8177,-5.7198,-5.6294,-5.5666,-5.5039,-5.4461,-5.3959,-5.3783,-5.3507,-5.3055,-5.2452,-5.1875,-5.1398,-5.082,-5.0293,-4.9816,-4.9816,-4.9791,-4.969,-4.9213,-4.9213,-4.9565,-4.8586,-4.841,-4.8862,-4.8259,-4.836,-4.8837,-4.8259,-4.836,-4.8837,-4.8335,-4.8435,-4.8887,-4.8887,-4.9188,-4.959,0.0,0.0,0.0,0.0,0.0,0.0,0.0,0.0,0.0,0.0,0.0,-4.2986,0.0,0.0,0.0,-4.2986,0.0,0.0,0.0,0.0,0.0,-4.5799,-4.6075,-4.6803,-4.8083,-4.738,-4.6979,-4.6928,-4.7581,-5.0544,-5.5591,-5.6671,-5.8453,-6.0688,-5.8152,-5.6394,-5.5013,-5.0946,-4.8862,-4.8234,-4.7682,-4.7506,-4.7506,-4.6903,-4.6401,-4.5899,-4.497,-4.4317,-4.3714,-4.2615,-4.2213,-4.2062,-4.1229,0.0,0.0,0.0,-3.9948,-4.0526,-4.4292,-4.8134,-5.2,-5.5968,-5.7976,-5.9106,-5.9684,-5.9558,-5.9282,-5.9006,-5.8654,-5.878,-6.001,-6.0236,-6.0136,-5.9859,-5.9332,-5.8855,-5.8529,-5.7801,-5.7123,-5.6545,-5.5792,-5.5064,-5.4486,-5.3959,-5.3532,-5.3281,-5.3281,-5.3181,-5.2929,-5.2126,-5.1523,-5.1297,-5.0419,-4.9841,-4.959,-4.9289,-4.8962,-4.8636,-4.841,-4.841,-4.8636,-4.7832,-4.7958,-4.8711,-4.7857,-4.7782,-4.8234,-4.7707,-4.7983,-4.8736,-4.8485,-4.8736,-4.9238,-4.9238,-4.9389,-4.959,0.0,0.0,0.0,0.0,0.0,0.0,0.0,0.0,0.0,0.0,0.0,0.0,0.0,0.0,0.0,0.0,-4.2986,0.0,0.0,0.0,0.0,-4.502,-4.507,-4.5397,-4.6075,-4.61,-4.5974,-4.5698,-4.733,-5.1247,-5.7273,-5.8127,-6.0236,-6.3149,-5.9784,-5.7148,-5.4988,-5.18,-5.0042,-4.9264,-4.7883,-4.7481,-4.7657,-4.7129,-4.6828,-4.6602,-4.5623,-4.4995,-4.4418,-4.3037,-4.264,-4.2459,-4.1756,-4.1178,0.0,0.0,0.0,-4.0601,-4.4744,-4.6979,-4.9113,-5.3281,-5.539,-5.6646,0.0,0.0,-5.7424,-5.7298,-5.6595,-5.647,-5.7976,-5.8478,-5.8529,-5.8152,-5.7625,-5.7097,-5.6671,-5.6143,-5.5591,-5.5013,-5.4587,-5.4135,-5.3557,-5.3155,-5.2929,-5.2929,-5.2929,-5.2879,-5.2729,-5.18,-5.1222,-5.1071,-5.0117,-4.9515,-4.9389,-4.8837,-4.8335,-4.7908,-4.7782,-4.7782,-4.7883,-4.723,-4.7456,-4.8309,-4.733,-4.723,-4.7682,-4.7244,-4.7682,-4.856,-4.856,-4.8887,-4.9389,-4.9389,-4.9464,-4.959,0.0,0.0,0.0,0.0,0.0,0.0,0.0,0.0,0.0,0.0,0.0,0.0,-4.2986,-4.2986,-4.2986,-4.2986,-4.2986,-4.2986,-4.2986,-4.3011,0.0,-4.3865,-4.389,0.0,-4.5497,-4.5522,-4.5773,-4.6276,-4.7908,-5.185,-5.7901,-5.9483,-6.3375,-6.8798,-6.3927,-5.9935,-5.6721,-5.3934,-5.3005,-5.308,-4.9364,-4.7581,-4.728,-4.8259,-4.7355,-4.5698,-4.6652,-4.5974,-4.4543,-4.3915,-4.3714,-4.3539,-4.2514,-4.1731,-4.115,0.0,0.0,0.0,-4.1961,-4.3237,-4.492,-4.8309,-5.0795,-5.2829,0.0,0.0,-5.6143,-5.5616,-5.5465,-5.5315,-5.4888,-5.5691,-5.6369,-5.6344,-5.5867,-5.5516,-5.5491,-5.4988,-5.4436,-5.3858,-5.3758,-5.3532,-5.303,-5.2955,-5.2929,-5.2929,-5.2929,-5.2703,-5.2176,-5.1599,-5.1021,-5.0469,-4.9891,-4.9339,-4.8812,-4.8234,-4.7933,-4.7908,-4.7405,-4.7431,-4.7883,-4.6828,-4.6677,-4.7179,-4.6602,-4.6677,-4.7179,-4.7093,-4.7456,-4.7958,-4.7958,-4.8309,-4.8812,-4.8812,-4.9138,-4.959,0.0,0.0,0.0,0.0,0.0,0.0,0.0,0.0,0.0,0.0,0.0,0.0,0.0,-4.2986,-4.2986,-4.2986,-4.2986,-4.2986,-4.2986,-4.2986,0.0,-4.3263,-4.3614,-4.3815,-4.3865,-4.4945,-4.5221,-4.4694,-4.6728,-5.0293,-5.5265,-5.765,-6.0512,-6.355,-6.2119,-6.0613,-5.888,-5.4336,-5.2101,-5.1423,-4.9314,-4.856,-4.856,-4.7179,-4.6828,-4.6903,-4.5899,-4.5372,-4.5095,-4.4518,-4.4091,0.0,0.0,0.0,0.0,0.0,-4.0375,-4.0576,-4.2233,0.0,0.0,-4.6451,-4.8309,-4.9565,-5.0167,-5.1724,-5.3005,-5.2804,-5.2754,-5.2904,-5.3432,-5.4411,-5.5164,-5.5164,-5.4687,-5.431,-5.431,-5.3858,-5.3432,-5.3231,-5.3206,-5.313,-5.2955,-5.2929,-5.2929,-5.2929,-5.2603,-5.2302,-5.2126,-5.1222,-5.0619,-5.0419,-4.954,-4.8636,-4.7732,-4.7506,-4.723,-4.6878,-4.6702,-4.6702,-4.6878,-4.6476,-4.6426,-4.6602,-4.6401,-4.6426,-4.6602,-4.6602,-4.6928,-4.7431,-4.7782,-4.8259,-4.8812,-4.9163,-4.9414,-4.959,0.0,0.0,0.0,-4.3112,0.0,-4.2715,-4.2514,-4.2338,-4.2263,-4.2464,0.0,0.0,0.0,0.0,-4.3463,-4.3263,-4.3087,-4.2986,-4.2986,-4.2986,-4.2986,-4.2986,-4.3514,-4.3639,-4.3263,-4.4719,-4.5121,-4.4367,-4.6401,-4.9464,-5.3482,-5.5917,-5.8428,-6.0864,-5.9935,-5.9935,-6.0362,-5.6319,-5.3934,-5.2729,-5.0494,-4.9841,-5.0017,-4.8736,-4.846,-4.8611,-4.7531,-4.6778,-4.6125,-4.4995,-4.4242,0.0,0.0,0.0,0.0,0.0,0.0,0.0,-4.1907,0.0,0.0,0.0,-4.5874,-4.6502,-4.7431,-4.8812,-4.9941,-5.0117,-5.0444,-5.0996,-5.1925,-5.2854,-5.3582,-5.3959,-5.3683,-5.3432,-5.3432,-5.313,-5.2929,-5.2929,-5.2754,-5.2653,-5.2653,-5.2477,-5.2377,-5.2377,-5.2026,-5.1749,-5.1548,-5.0645,-4.9967,-4.959,-4.8686,-4.7883,-4.7093,-4.6892,-4.6677,-4.6301,-4.6301,-4.6301,-4.6301,-4.6301,-4.6301,-4.6301,-4.6301,-4.6301,-4.6326,-4.6502,-4.6903,-4.7431,-4.7983,-4.856,-4.9088,-4.9464,-4.959,-4.959,-4.2861,-4.384,-4.4267,-4.3187,-4.3438,-4.3639,-4.3112,-4.2615,-4.2464,-4.2961,0.0,0.0,0.0,0.0,0.0,-4.3966,-4.3413,-4.3062,-4.3011,-4.2986,-4.2986,-4.2986,0.0,0.0,-4.379,-4.492,-4.5497,-4.5472,-4.7079,-4.954,-5.2804,-5.4486,-5.7575,-6.1567,-5.7876,-5.8001,-6.0939,-5.9759,-5.8704,-5.7449,-5.303,-5.1322,-5.1574,-5.3005,-5.2277,-5.0645,-5.1674,-5.0318,-4.7707,-4.5547,0.0,0.0,0.0,0.0,0.0,0.0,0.0,0.0,0.0,0.0,0.0,0.0,-4.3313,-4.3639,-4.6326,-4.6943,-4.7179,-4.7682,-4.8686,-4.964,-5.0243,-5.0795,-5.1548,-5.2653,-5.2854,-5.2879,-5.2879,-5.2879,-5.2879,-5.2879,-5.2402,-5.2076,-5.2076,-5.1599,-5.1272,-5.1272,-5.1247,-5.0996,-5.0419,-4.9866,-4.9038,-4.7933,-4.738,-4.7043,-4.7018,-4.6552,-4.6276,-4.6276,-4.6301,-4.6301,-4.6301,-4.6301,-4.6301,-4.6301,-4.6301,-4.6301,-4.6351,-4.6878,-4.7405,-4.7933,-4.851,-4.9088,-4.9565,-4.959,-4.959,-4.959,-4.2489,-4.3263,-4.394,-4.3639,-4.3689,-4.389,-4.4141,-4.3689,-4.3539,0.0,0.0,0.0,-4.497,-4.6577,-4.738,-4.6828,-4.6301,-4.5296,-4.3689,-4.3212,-4.2986,-4.2986,-4.389,-4.4217,-4.3815,-4.5296,-4.5673,-4.4869,-4.6125,-4.7431,-4.8786,-5.1272,-5.3507,-5.5491,-5.6394,-5.6872,-5.6846,-5.4536,-5.4536,-5.5767,-5.2126,-5.2327,-5.4511,-5.1348,-5.1247,-5.2628,-5.1348,-5.0921,-5.0795,-4.9766,-4.8535,-4.7104,0.0,0.0,0.0,0.0,0.0,0.0,-4.1354,0.0,0.0,0.0,0.0,0.0,-4.2258,-4.3589,-4.4769,-4.4895,-4.5824,-4.7029,-4.836,-4.8736,-4.9213,-5.0343,-5.1197,-5.1724,-5.1724,-5.1724,-5.1724,-5.1724,-5.1599,-5.1498,-5.1498,-5.1373,-5.1272,0.0,-5.0519,-4.9992,-4.9841,-4.8912,-4.8058,-4.7355,-4.6828,-4.6351,-4.5949,-4.5799,-4.5723,-4.5723,-4.6125,-4.6301,-4.6301,-4.6301,-4.6301,-4.6301,-4.6301,-4.6301,-4.6326,-4.6476,-4.6853,-4.7405,-4.7933,-4.851,-4.9063,-4.9439,-4.959,-4.959,-4.1882,-4.3263,-4.4493,-4.4493,-4.5271,-4.5899,-4.5974,-4.5547,-4.5296,0.0,0.0,0.0,-4.7054,-4.8962,-4.9741,-4.8711,-4.7707,-4.6476,-4.4945,-4.4116,-4.3664,-4.3664,-4.4518,-4.4719,-4.4166,-4.5573,-4.5874,-4.4995,-4.5874,-4.6602,-4.7118,-4.9012,-5.0469,-5.1599,-5.3206,-5.3833,-5.3557,-5.1699,-5.2377,-5.4561,-5.308,-5.3984,-5.5993,-5.4009,-5.431,-5.5616,-5.4336,-5.3833,-5.3607,-5.2126,-5.0193,0.0,0.0,0.0,0.0,0.0,0.0,0.0,0.0,0.0,0.0,0.0,0.0,0.0,-4.0824,-4.1505,-4.2082,-4.2082,-4.2986,-4.4116,-4.5296,-4.5874,-4.6476,-4.738,-4.846,-4.954,-5.0444,-5.077,-5.0845,-5.0594,-5.0368,-5.0243,-5.0243,-5.0017,-4.9967,-5.0218,-4.9615,-4.9138,-4.8912,-4.7832,-4.7004,-4.6476,-4.5899,-4.5447,-4.5121,-4.5121,-4.5121,-4.5121,-4.5447,-4.5723,-4.5974,-4.5974,-4.61,-4.6301,-4.6301,-4.6301,-4.6301,-4.6301,-4.6753,-4.7481,-4.7782,-4.841,-4.9163,-4.9464,-4.959,-4.959,0.0,-4.3614,-4.5472,-4.5723,-4.7481,-4.8761,-4.8435,-4.7883,-4.7494,0.0,-4.7456,-4.8083,-5.0368,-5.1774,-5.1925,-5.0368,-4.8611,-4.7255,-4.6451,-4.5347,-4.4694,-4.4618,-4.5246,-4.5321,-4.4744,-4.5824,-4.6125,-4.5573,-4.6075,-4.6602,-4.7093,-4.7657,-4.8485,-4.9515,-4.9565,-5.0193,-5.1147,-5.0695,-5.1674,-5.3632,-5.4813,-5.5817,-5.6771,-5.8629,-5.9182,-5.8981,-5.883,-5.7851,-5.6244,-5.3406,-5.0645,0.0,0.0,0.0,0.0,0.0,-4.5296,0.0,0.0,0.0,0.0,0.0,-4.2233,0.0,-4.1125,-4.0526,-3.9848,-3.9722,-4.0526,-4.1404,-4.1957,-4.2911,-4.379,-4.4342,-4.5397,-4.6878,-4.9012,-4.9791,-4.9967,-4.9464,-4.8962,-4.8686,-4.8686,-4.8209,-4.8134,-4.8636,-4.8611,-4.8309,-4.7682,-4.6728,-4.5974,-4.5422,-4.4844,-4.4543,-4.4543,-4.4543,-4.4543,-4.4543,-4.4593,-4.4895,-4.5397,-4.5472,-4.5748,-4.6225,-4.6276,-4.6301,-4.6326,-4.6376,-4.7004,-4.7908,-4.7908,-4.8611,-4.959,-4.959,-4.959,-4.959,-4.2484,-4.3815,-4.5347,-4.7129,-4.8535,-4.9866,-5.1096,-5.0419,-5.0268,-5.1624,-5.2477,-5.3984,-5.6646,-5.6018,-5.5089,-5.4336,-5.195,-4.9464,-4.7129,-4.5924,-4.5121,-4.4644,-4.5598,-4.5899,-4.5321,-4.6401,-4.6702,-4.615,-4.625,-4.6602,-4.7093,-4.7657,-4.8284,-4.8962,-4.9389,-4.9967,-5.0619,-5.0971,-5.1624,-5.2553,-5.411,-5.6394,-5.8805,-5.8378,-5.9232,-6.0588,-5.9659,-5.9408,-5.9031,-5.5817,-5.3206,-5.1046,0.0,0.0,0.0,-4.7305,0.0,0.0,0.0,0.0,0.0,0.0,0.0,0.0,-4.0953,-4.0852,-4.0752,-3.9873,-4.0224,-4.0852,-4.1404,-4.2032,-4.2715,-4.3212,-4.4242,-4.5573,-4.7355,-4.8058,-4.836,-4.8259,-4.8134,-4.8083,-4.8083,-4.7983,-4.7958,-4.8083,-4.7682,-4.7004,-4.6024,-4.5773,-4.5397,-4.4819,-4.4242,-4.3966,-4.3966,-4.3966,-4.3966,-4.3966,-4.4418,-4.4694,-4.4794,-4.5271,-4.5547,-4.5673,-4.6125,-4.6301,-4.6351,-4.6803,-4.733,-4.7908,-4.7908,-4.8611,-4.959,-4.959,-4.959,-4.959,-4.2514,-4.4141,-4.6075,-4.8008,-4.9715,-5.1498,-5.3457,-5.303,-5.308,-5.4762,-5.642,-5.7449,-5.7474,-5.7474,-5.6796,-5.5114,-5.2955,-5.087,-4.8912,-4.7732,-4.6878,-4.6276,-4.6803,-4.6979,-4.6702,-4.723,-4.738,-4.7104,-4.7104,-4.7405,-4.7958,-4.8209,-4.8335,-4.8385,-4.9515,-4.9841,-4.969,-5.1096,-5.185,-5.2352,-5.5114,-5.7223,-5.883,-5.9935,-6.104,-6.1918,-6.1366,-6.0788,-5.9809,-5.6495,-5.4486,0.0,-5.072,-4.9238,-4.846,0.0,-4.8184,-4.7104,0.0,0.0,0.0,-4.4844,0.0,0.0,0.0,-4.1128,-4.0626,-3.9521,-3.927,-3.9346,-3.9622,-4.0149,-4.0754,-4.1254,-4.2032,-4.3062,-4.4468,-4.5573,-4.6175,-4.5899,-4.5874,-4.5874,-4.5874,-4.61,-4.6502,-4.7079,-4.6627,-4.62,-4.5924,-4.5095,-4.4518,-4.4217,-4.3689,-4.3388,-4.3388,-4.3388,-4.3388,-4.3388,-4.3664,-4.394,-4.4242,-4.4794,-4.5221,-4.5522,-4.6075,-4.6301,-4.6351,-4.6903,-4.7431,-4.7933,-4.8234,-4.8862,-4.959,-4.959,-4.959,-4.959,-4.2489,-4.4367,-4.6527,-4.8309,-5.0469,-5.2653,-5.4737,-5.4787,-5.5189,-5.6972,-5.893,-5.9408,-5.7399,-5.8001,-5.775,-5.5691,-5.3231,-5.1624,-5.1247,-4.969,-4.841,-4.7631,-4.8109,-4.8083,-4.7456,-4.7958,-4.8134,-4.7908,-4.7908,-4.8209,-4.8761,-4.8761,-4.8636,-4.8435,-4.959,-4.9841,-4.9515,-5.1122,-5.2101,-5.2879,-5.647,-5.7775,-5.7926,-6.1266,-6.2496,-6.2546,-6.2747,-6.1818,-6.001,-5.6922,-5.5365,-5.421,-5.1197,-5.0017,0.0,0.0,0.0,0.0,0.0,0.0,0.0,0.0,0.0,-4.4794,0.0,0.0,0.0,-3.9774,0.0,0.0,0.0,0.0,0.0,-3.9622,0.0,0.0,0.0,-4.2836,0.0,-4.3639,-4.3463,-4.3413,-4.3614,-4.4041,-4.4694,-4.5598,-4.5347,-4.5321,-4.5648,-4.4468,-4.3714,-4.3489,-4.3162,-4.2936,-4.2866,-4.2936,-4.2986,-4.2986,-4.2986,-4.3212,-4.3664,-4.4317,-4.4895,-4.5347,-4.6024,-4.6301,-4.6351,-4.6903,-4.7431,-4.7958,-4.8535,-4.9113,-4.959,-4.959,-4.959,-4.959,-4.3413,-4.4267,-4.5497,-4.7631,-4.9866,-5.195,-5.3632,-5.4285,-5.534,-5.7524,-5.8855,-5.9859,-6.0537,-5.9056,-5.8252,-5.888,-5.3833,-5.1599,-5.3934,-5.0745,-4.8083,-4.6552,-4.8837,-4.8761,-4.5824,-4.8159,-4.8912,-4.7908,-4.7908,-4.8209,-4.8761,-4.8761,-4.9264,-5.0092,-4.9314,-4.9992,-5.1674,-5.0921,-5.2026,-5.4486,-5.6922,-5.7298,-5.6771,-6.0111,-6.1366,-6.1492,-6.2471,-6.2069,-6.0738,0.0,-5.657,-5.4963,0.0,-5.1523,-5.0519,-5.1599,0.0,0.0,0.0,0.0,0.0,0.0,-4.7631,0.0,0.0,0.0,-4.3112,-4.2062,0.0,0.0,0.0,0.0,0.0,0.0,0.0,0.0,-4.0023,-4.0124,-4.0953,-4.2836,-4.2208,-4.2007,-4.2961,-4.3137,-4.3212,-4.3338,-4.374,-4.3815,-4.3388,-4.3639,-4.3363,-4.2414,-4.276,-4.2791,-4.2313,-4.2791,-4.2986,-4.2986,-4.2986,-4.3011,-4.3112,-4.4141,-4.4669,-4.4769,-4.5849,-4.6301,-4.6351,-4.6903,-4.7431,-4.7958,-4.8535,-4.9113,-4.959,-4.959,-4.959,-4.959,-4.2685,-4.3815,-4.5221,-4.7129,-4.8761,-5.0695,-5.3306,-5.6369,-5.8629,-5.9232,-6.109,-6.2571,-6.3023,-6.1115,-5.9859,-5.9985,-5.6194,-5.3858,-5.4059,-5.195,0.0,-4.9238,-5.0293,-5.0268,-4.8887,-4.964,-5.0017,-4.9866,-4.9515,-4.9665,-5.0218,-5.0218,-5.0117,-4.9941,-5.0142,-5.0569,-5.1172,-5.1649,-5.2729,-5.426,-5.6495,-5.7123,-5.7072,-6.0738,-6.2144,-6.2195,-6.2672,-6.2119,-6.0889,0.0,-5.7248,0.0,0.0,0.0,0.0,0.0,0.0,0.0,0.0,0.0,0.0,0.0,0.0,0.0,-4.6878,0.0,-4.4543,0.0,0.0,0.0,0.0,0.0,0.0,0.0,-3.9622,0.0,0.0,0.0,-3.8818,0.0,0.0,0.0,-4.1932,-4.2032,-4.2158,-4.2539,-4.2434,-4.2409,-4.2564,-4.2766,-4.2484,-4.1706,-4.2534,-4.271,-4.2213,-4.2766,-4.2986,-4.2986,-4.3313,-4.3463,-4.3489,-4.4618,-4.5121,-4.5171,-4.5974,-4.6301,-4.6351,-4.6903,-4.7431,-4.7958,-4.8535,-4.9113,-4.959,-4.959,-4.959,-4.964,-4.2233,0.0,-4.4644,-4.6175,-4.7355,-4.9213,-5.2528,-5.6269,-5.893,-5.9558,-6.1416,-6.3124,-6.4329,-6.2923,-6.2019,-6.237,-5.9282,-5.6897,-5.5817,-5.3884,-5.2126,-5.0645,-5.1322,-5.1297,-5.0368,-5.0695,-5.1021,-5.1272,-5.087,-5.087,-5.1272,-5.1272,-5.0921,-5.0318,-5.1147,-5.1523,-5.1649,-5.303,-5.416,-5.5239,-5.7173,-5.8202,-5.8905,-6.1416,-6.2571,-6.2822,-6.2647,-6.1994,-6.0939,-5.9282,-5.7801,0.0,-5.4511,-5.3406,0.0,0.0,0.0,0.0,-5.2026,0.0,0.0,0.0,0.0,0.0,0.0,0.0,0.0,0.0,0.0,0.0,0.0,0.0,0.0,0.0,0.0,-3.917,0.0,-3.7939,0.0,0.0,0.0,0.0,0.0,-4.0802,-4.1003,-4.1282,-4.1178,-4.1229,-4.1509,-4.1756,-4.1756,-4.13,-4.2258,-4.2615,-4.2213,-4.2766,-4.3062,-4.3212,-4.3614,-4.389,-4.4066,-4.5045,-4.5497,-4.5522,-4.6075,-4.6301,-4.6351,-4.6753,-4.7305,-4.7958,-4.836,-4.8962,-4.959,-4.959,-4.969,-4.9866,-4.2735,-4.2986,-4.3388,-4.4518,-4.5648,-4.7506,-5.0845,-5.195,-5.3733,-5.7499,-5.8052,-5.9734,-6.4002,-6.3952,-6.468,-6.7342,-6.3048,-6.0412,-6.0914,-5.6897,-5.2804,0.0,0.0,-5.1348,0.0,-5.067,-5.18,-5.1272,-5.1272,-5.1272,-5.1272,-5.1272,-5.1548,-5.2026,-5.2076,-5.2955,-5.4461,-5.5064,-5.657,-5.8654,-5.9759,-6.119,-6.2546,-6.1592,-6.1893,-6.2747,-6.222,0.0,-6.0939,-5.9282,-5.8328,-5.7449,-5.5239,0.0,0.0,0.0,0.0,0.0,0.0,0.0,0.0,-5.2176,0.0,0.0,0.0,0.0,-4.8209,0.0,0.0,0.0,0.0,0.0,0.0,0.0,0.0,0.0,0.0,0.0,0.0,0.0,0.0,0.0,0.0,-3.9421,-3.9521,-3.907,-3.9948,-4.0325,-3.9798,-4.0777,-4.13,-4.1275,-4.1882,-4.2238,-4.2213,-4.2766,-4.3237,-4.3765,-4.379,-4.4091,-4.4618,-4.5221,-4.5497,-4.5522,-4.6075,-4.6301,-4.6301,-4.6326,-4.6954,-4.7908,-4.7933,-4.8611,-4.959,-4.959,-4.9941,-5.0393,-4.2911,0.0,-4.4317,-4.507,-4.5824,-4.7431,-5.077,-5.3306,-5.6344,-6.0613,-6.2119,-6.4756,-6.9953,-6.9351,-6.91,-7.0405,-6.6965,-6.4028,-6.237,-5.9156,0.0,-5.4336,-5.4084,-5.3482,0.0,0.0,0.0,-5.2377,-5.2,-5.2026,-5.2377,-5.2377,-5.2477,-5.2628,-5.2277,-5.2804,-5.4059,-5.4988,-5.6244,-5.7801,-6.001,-6.1667,-6.2747,-6.1994,-6.1943,-6.227,-6.2069,-6.1391,-6.0588,-6.0412,-5.9257,-5.77,-5.657,-5.544,-5.4386,-5.3432,-5.3306,-5.3406,-5.3206,-5.3582,-5.3783,-5.2879,0.0,0.0,0.0,0.0,0.0,0.0,0.0,0.0,0.0,0.0,0.0,0.0,0.0,0.0,0.0,0.0,0.0,0.0,0.0,0.0,0.0,0.0,-3.912,-3.8894,-3.922,-3.9346,-3.917,-4.0551,-4.1125,-4.0802,-4.2032,-4.2766,-4.2766,-4.3237,-4.379,-4.4342,-4.4719,-4.502,-4.5221,-4.5773,-4.6024,-4.605,-4.6225,-4.6301,-4.6326,-4.6702,-4.728,-4.7933,-4.8335,-4.8937,-4.964,-5.0017,-5.0268,-5.0519,-4.3564,-4.4141,-4.4794,-4.5372,-4.6426,-4.7983,-5.0318,-5.416,-5.8202,-6.2019,-6.4655,-6.8145,-7.3318,-7.274,-7.2364,-7.3293,-7.0907,-6.7643,-6.3676,-6.2119,0.0,-5.6595,-5.5993,-5.529,0.0,0.0,0.0,0.0,-5.2653,-5.2754,-5.2929,-5.2929,-5.2929,-5.2929,-5.2955,-5.3356,-5.4135,-5.6043,-5.7248,0.0,0.0,-6.1893,0.0,0.0,-6.1642,-6.1943,-6.1542,-6.0939,-6.0337,-6.0512,-5.9633,-5.8303,-5.7323,-5.6294,-5.5214,-5.4034,-5.3984,-5.421,-5.3808,-5.426,-5.4637,-5.3733,-5.3356,0.0,-5.2076,0.0,-5.1046,0.0,0.0,0.0,0.0,0.0,0.0,0.0,0.0,0.0,0.0,-3.8768,0.0,0.0,0.0,0.0,0.0,-3.927,-3.8919,-3.8366,-3.8693,-3.8844,-3.8567,-3.9948,-4.0777,-4.0802,-4.2233,-4.3062,-4.3263,-4.3815,-4.4367,-4.4945,-4.5296,-4.5598,-4.5799,-4.615,-4.6301,-4.6301,-4.6301,-4.6426,-4.6627,-4.6979,-4.7556,-4.8259,-4.8636,-4.9113,-4.9665,-5.0218,-5.067,-5.1147,-4.4644,-4.4719,-4.4945,-4.5522,-4.7405,-4.9063,-4.964,-5.4411,-5.8956,-6.1793,-6.5559,-6.9652,-7.4046,-7.4071,-7.4397,-7.5954,-7.4598,-7.1158,-6.5258,-6.5735,0.0,0.0,-5.7298,-5.6771,-5.4059,0.0,0.0,0.0,0.0,-5.3406,-5.2929,-5.2929,-5.2929,-5.298,-5.4009,-5.4486,-5.4808,-5.7976,-5.9408,-5.9684,-6.1341,-6.1994,-6.1843,-6.0738,-6.0989,-6.1768,-6.0713,-6.0311,-6.0211,-5.9709,-5.9508,-5.9207,-5.7575,-5.6973,-5.662,-5.4436,-5.4536,-5.5139,-5.4084,-5.4561,-5.5265,-5.4712,-5.4135,0.0,0.0,0.0,-5.2477,0.0,0.0,0.0,0.0,0.0,0.0,0.0,0.0,0.0,0.0,0.0,0.0,0.0,0.0,0.0,0.0,-3.9346,-3.8944,-3.7337,-3.8216,-3.8592,0.0,-3.912,-4.0249,-4.125,-4.2434,-4.3288,-4.384,-4.4392,-4.497,-4.5522,-4.5522,-4.5799,-4.6301,-4.6301,-4.6301,-4.6301,-4.6351,-4.6652,-4.7068,-4.7143,-4.7832,-4.8786,-4.8837,-4.9213,-4.9766,-5.0268,-5.1172,-5.2226,-4.4719,-4.5949,-4.7104,-4.7255,-4.8786,-5.0318,-5.1322,-5.5465,-5.9935,-6.3927,-6.7819,-7.1786,-7.5804,-7.613,-7.6205,-7.6632,-7.5527,-7.3619,0.0,0.0,0.0,-6.35,-6.1416,-5.9608,-5.8052,-5.6545,0.0,-5.3934,0.0,-5.3055,-5.2929,-5.2929,-5.2929,-5.2929,-5.3231,-5.3557,-5.4059,-5.6168,-5.8227,-6.0211,-6.1492,-6.1768,-6.1316,-6.0588,-6.0487,-6.0713,-6.0412,-6.006,-5.9759,-6.001,-5.9834,-5.9282,-5.8052,-5.7374,-5.6771,-5.5365,-5.5164,-5.5315,-5.5039,-5.5164,-5.5265,-5.4712,-5.4135,-5.3557,-5.3055,0.0,0.0,0.0,0.0,0.0,0.0,0.0,0.0,0.0,0.0,0.0,0.0,0.0,0.0,-3.8969,0.0,0.0,-3.9446,-3.8843,-3.8266,-3.7839,-3.8065,-3.8165,-3.8015,-3.9848,-4.1,-4.1275,-4.2811,-4.3865,-4.4418,-4.497,-4.5547,-4.61,-4.61,-4.6175,-4.6301,-4.6301,-4.6301,-4.6326,-4.6753,-4.6943,-4.7205,-4.8008,-4.851,-4.8862,-4.9665,-5.0594,-5.1423,-5.1147,-5.1774,-5.2729,-4.5472,-4.7531,-4.9389,-4.9389,-5.1975,-5.4009,-5.3909,-5.6646,-6.0211,-6.4379,-6.8522,-7.2012,-7.4448,-7.6004,-7.6883,-7.6883,-7.6105,0.0,-7.2163,0.0,0.0,-6.5911,-6.3977,-6.1893,-5.9533,-5.7349,0.0,-5.4185,0.0,-5.2929,-5.2929,-5.2929,-5.2929,-5.2929,0.0,-5.308,-5.3482,-5.539,-5.7951,-6.0713,-6.0839,-6.0864,0.0,-6.0186,-5.996,-5.9935,-5.9709,-5.9558,-5.9533,-5.9859,-5.9759,-5.9307,-5.8227,-5.7675,-5.7198,-5.6068,-5.5917,-5.6018,-5.5516,-5.5566,-5.5566,-5.4762,-5.4135,-5.3632,-5.3331,-5.308,-5.2829,0.0,-5.1774,-5.0921,0.0,0.0,0.0,0.0,0.0,0.0,0.0,0.0,0.0,0.0,-3.9747,0.0,-4.0023,-3.8818,-3.8015,-3.8015,-3.8015,-3.8115,-3.8366,-4.0023,-4.1204,-4.1681,-4.379,-4.492,-4.4995,-4.6024,-4.6577,-4.6677,-4.6677,-4.6803,-4.7004,-4.7004,-4.7004,-4.7029,-4.733,-4.7606,-4.7908,-4.851,-4.8912,-4.9213,-5.0067,-5.1122,-5.2076,-5.1749,-5.2176,-5.2929,-4.6702,-4.9213,-5.1373,-5.1297,-5.534,-5.8303,-5.7349,-5.8855,-6.1366,-6.4781,-6.9024,-7.1912,-7.2389,-7.5025,-7.6783,-7.6783,-7.6256,-7.4724,-7.1811,-7.2791,-7.1259,-6.6262,-6.5785,-6.3902,-6.0236,-5.7775,-5.5742,0.0,0.0,-5.2929,-5.2929,-5.2929,-5.2929,0.0,0.0,0.0,0.0,-5.5265,-5.7876,-6.0462,-5.9784,-5.9784,-6.0161,-5.9684,-5.9458,-5.9332,-5.888,-5.9006,-5.9382,-5.9307,-5.9332,-5.9207,-5.8127,-5.7851,-5.7675,-5.6545,-5.6495,-5.662,-5.5641,-5.5641,-5.5666,-5.4687,-5.4034,-5.3607,-5.3607,-5.3256,-5.2929,-5.2929,-5.2477,-5.1774,-5.072,0.0,0.0,0.0,0.0,0.0,0.0,0.0,0.0,0.0,0.0,0.0,-4.0626,-3.9094,-3.8115,-3.8115,-3.8191,-3.8417,0.0,0.0,-4.1178,-4.2187,-4.4719,-4.5974,-4.5698,-4.7104,-4.7657,-4.7355,-4.728,-4.7481,-4.7908,-4.7908,-4.7908,-4.7908,-4.7983,-4.8309,-4.8786,-4.8837,-4.9264,-4.9866,-5.0419,-5.1272,-5.2201,-5.2201,-5.2528,-5.2929,-4.8259,-5.0293,-5.1825,-5.1373,-5.5039,-5.9031,-6.1943,-6.5333,-6.797,-6.91,-7.2715,-7.5226,-7.5327,-7.5854,-7.6205,-7.6205,-7.5703,0.0,0.0,0.0,0.0,-7.0154,-6.8321,-6.6187,-6.3651,-6.0111,-5.7675,0.0,-5.4084,-5.2929,-5.2929,-5.2929,-5.2929,0.0,0.0,0.0,-5.308,-5.5265,0.0,-5.7223,-5.8855,-5.9558,-5.9633,-5.9533,-5.9232,-5.8855,-5.8755,-5.878,-5.878,-5.8328,-5.8478,-5.8654,-5.7524,-5.7499,-5.7675,-5.6545,-5.5968,-5.5641,-5.544,-5.4787,-5.4084,-5.3909,-5.3457,-5.3055,-5.3055,-5.3005,-5.2929,-5.2929,-5.2477,-5.19,-5.1247,0.0,0.0,0.0,0.0,0.0,0.0,0.0,0.0,0.0,0.0,-4.0701,0.0,-3.9697,-3.8718,-3.8718,-3.9145,0.0,0.0,0.0,-4.2011,0.0,-4.394,-4.5547,0.0,-4.7129,-4.7682,-4.8485,-4.8008,-4.7832,-4.7908,-4.7908,-4.7908,-4.7933,-4.841,-4.8686,-4.8812,-4.9264,-5.0067,-5.1046,-5.1599,-5.2201,-5.2779,-5.2779,-5.2854,-5.2929,-4.9967,-5.1624,-5.3206,-5.411,-5.8177,-6.232,-6.5358,-6.91,-7.1184,-7.0003,-7.1711,-7.2941,-7.2665,-7.4674,-7.5829,-7.5251,-7.5226,-7.5126,-7.4824,-7.3494,-7.2113,-7.0706,-6.8823,-6.6639,-6.4128,-6.0261,-5.7876,-5.7022,-5.3984,-5.2653,-5.2929,-5.2929,-5.2929,-5.2904,0.0,-5.298,0.0,0.0,-5.5767,-5.7173,-5.8252,-5.883,-5.9106,-5.9106,-5.893,-5.8679,-5.8403,-5.8478,-5.8629,-5.8077,-5.8077,-5.8152,-5.7298,-5.7223,-5.7298,-5.6445,-5.6018,-5.5691,-5.5114,-5.4561,-5.4009,-5.3432,-5.3105,-5.2929,-5.2929,-5.2929,-5.2929,-5.2929,-5.2703,-5.2277,-5.1448,-4.9715,0.0,0.0,0.0,0.0,0.0,0.0,0.0,0.0,0.0,0.0,0.0,0.0,0.0,0.0,0.0,0.0,0.0,0.0,-4.2338,0.0,0.0,0.0,-4.7068,0.0,-4.8259,-4.8761,-4.8485,-4.851,-4.8786,-4.8786,-4.8786,-4.8812,-4.9389,-4.9464,-4.9238,-4.9791,-5.0695,-5.1724,-5.2,-5.2452,-5.2929,-5.2929,-5.2929,-5.2929,-5.2,-5.3482,-5.5265,-5.7374,-6.1667,-6.5484,-6.7493,-7.0907,-7.2565,-7.0757,-7.0882,-7.0983,-7.0556,-7.3619,-7.5352,-7.4498,-7.4598,-7.4523,-7.4096,-7.2891,-7.1585,-7.0154,-6.8622,-6.6614,-6.4078,-6.0462,-5.8152,0.0,-5.4135,-5.2729,-5.2929,-5.2929,0.0,0.0,0.0,0.0,-5.3858,-5.3884,-5.5164,-5.7223,-5.77,-5.8227,-5.873,-5.873,-5.873,-5.8629,-5.7951,-5.8001,-5.8303,-5.7851,-5.7801,-5.7826,-5.7374,-5.7123,-5.6947,-5.652,-5.6219,-5.5842,-5.4988,-5.4662,-5.4336,-5.3331,-5.308,-5.3055,-5.2955,-5.2929,-5.2929,-5.2929,-5.2829,-5.2528,-5.1774,-5.0519,0.0,0.0,0.0,0.0,0.0,0.0,0.0,0.0,0.0,0.0,-4.1326,0.0,0.0,0.0,0.0,0.0,-3.9898,0.0,0.0,0.0,-4.5146,-4.6677,-4.7481,0.0,-4.8887,-4.9113,-4.9012,-4.9163,-4.959,-4.9715,-4.9715,-4.964,-5.0318,-5.0343,-4.9992,-5.0544,-5.1297,-5.2126,-5.2226,-5.2553,-5.2929,-5.2929,-5.2929,-5.2929,-5.4712,-5.6344,-5.8027,-5.9709,-6.3299,-6.6388,-6.7618,-7.0229,-7.2514,-7.3795,-7.3996,-7.3996,-7.3946,-7.4322,-7.4523,-7.4423,-7.3519,-7.2941,-7.2891,-7.1384,-7.0204,-6.9551,-6.8422,-6.6965,-6.5183,-6.2345,-5.9859,0.0,0.0,-5.3858,-5.2929,0.0,0.0,-5.2201,-5.2653,-5.2377,-5.1724,-5.3658,-5.4637,-5.5064,-5.7072,-5.8227,-5.873,-5.873,-5.873,-5.8579,-5.7499,-5.7148,-5.7173,-5.7123,-5.7474,-5.7901,-5.7826,-5.7449,-5.7022,-5.6972,-5.6244,-5.544,-5.534,-5.4938,-5.4411,-5.3783,-5.3632,-5.3507,-5.303,-5.2929,-5.2929,-5.2929,-5.2528,-5.2302,-5.2703,-5.1021,-4.9916,0.0,0.0,0.0,0.0,0.0,0.0,0.0,0.0,0.0,0.0,-4.266,0.0,0.0,-4.12,0.0,0.0,0.0,-4.2936,-4.2986,-4.5146,-4.7054,-4.8611,-4.8711,-4.9264,-5.0268,-4.9766,-4.954,-4.9615,-5.0117,-5.0067,-4.9665,-5.0745,-5.1172,-5.1172,-5.1724,-5.2,-5.2151,-5.2653,-5.2879,-5.2929,-5.2929,-5.2929,-5.2929,-5.7198,-5.7926,-5.9332,-6.2295,-6.4103,-6.5961,-6.8422,-6.9727,-7.0782,-7.1786,-7.2791,-7.3293,-7.2941,-7.3217,-7.2991,-7.2012,-7.2113,-7.1962,-7.1284,-7.033,-6.9526,-6.8974,-6.7894,-6.6664,-6.5333,-6.2923,-6.0588,0.0,0.0,0.0,0.0,-5.3381,-5.3105,-5.2603,-5.2477,-5.2553,-5.2804,-5.4034,-5.5139,-5.6194,-5.775,-5.8504,-5.873,-5.873,-5.873,-5.8654,-5.8202,-5.8252,-5.8504,-5.8504,-5.8001,-5.7449,-5.7801,-5.7499,-5.7022,-5.7022,-5.6495,-5.5817,-5.5491,-5.5214,-5.4913,-5.4361,-5.421,-5.4084,-5.3507,-5.3381,-5.3306,-5.298,-5.2754,-5.2578,-5.2452,-5.1975,-5.1423,-5.0845,0.0,0.0,0.0,0.0,0.0,0.0,0.0,0.0,0.0,0.0,0.0,0.0,0.0,0.0,-4.153,-4.2434,-4.3438,-4.4443,0.0,-4.7212,-5.0224,-4.9304,-4.9799,-5.1807,-5.0623,-5.0268,-5.0619,-5.0845,-5.0996,-5.1122,-5.1222,-5.1649,-5.2251,-5.2151,-5.2302,-5.2628,-5.2854,-5.2929,-5.2929,-5.2929,-5.313,-5.3381,-5.9458,-5.9809,-6.104,-6.458,-6.5333,-6.6287,-6.8823,-6.9074,-6.915,-6.9702,-7.0656,-7.1384,-7.1636,-7.1861,-7.1535,-7.0355,-7.0681,-7.0606,-6.9828,-6.9125,-6.8547,-6.8145,-6.7241,0.0,-6.5308,-6.345,-6.1492,-5.9458,-5.7775,0.0,0.0,-5.3858,-5.3432,-5.2929,-5.303,-5.3406,-5.4009,-5.4913,-5.5968,-5.7123,-5.8252,-5.8704,-5.873,-5.873,-5.8805,-5.8905,-5.8604,-5.8704,-5.9056,-5.9207,-5.8378,-5.7424,-5.8152,-5.7876,-5.7273,-5.7273,-5.6897,-5.6344,-5.5792,-5.5641,-5.5491,-5.4938,-5.4813,-5.4612,-5.3858,-5.3708,-5.3557,-5.303,-5.2929,-5.2804,-5.2427,-5.2528,-5.2352,-5.1322,0.0,0.0,0.0,0.0,0.0,0.0,-4.4568,-4.379,-4.2791,-4.3288,0.0,0.0,-4.3187,-4.2811,-4.2464,-4.3062,-4.4016,-4.5196,-4.5874,0.0,-5.0471,-4.9672,-5.0232,-5.2062,-5.1133,-5.0896,-5.1272,-5.1272,-5.1674,-5.2327,-5.1774,-5.2051,-5.2904,-5.2503,-5.2578,-5.2929,-5.2929,-5.2929,-5.2955,-5.3105,-5.3381,-5.3733,-6.1441,-6.2395,-6.3651,-6.6463,-6.7392,-6.7945,-6.8547,-6.817,-6.802,-6.8572,-6.8196,-6.8673,-7.0857,-7.0606,-7.028,-7.0255,-6.9275,-6.8648,-6.8648,-6.7618,-6.7015,0.0,0.0,-6.586,-6.5308,-6.4228,-6.2847,-6.114,0.0,0.0,-5.534,-5.4235,-5.3432,-5.3005,-5.4612,-5.5039,-5.4662,-5.6319,-5.7022,-5.7123,-5.8278,-5.873,-5.873,-5.873,-5.9031,-5.9332,-5.8278,-5.7901,-5.8001,-5.8554,-5.8353,-5.8077,-5.9131,-5.8755,-5.7901,-5.7901,-5.7474,-5.6897,-5.6344,-5.6194,-5.6068,-5.5516,-5.539,-5.5089,-5.3959,-5.3708,-5.3557,-5.303,-5.2929,-5.2929,-5.2929,-5.2477,-5.2277,-5.2804,0.0,0.0,0.0,0.0,0.0,0.0,-4.6753,-4.6225,-4.3991,-4.4794,0.0,0.0,-4.2986,-4.2986,-4.2961,-4.4016,-4.4618,-4.4644,-4.6753,-4.8159,-4.8825,-4.9841,-5.0393,-5.0419,-5.0996,-5.1272,-5.1272,-5.1272,-5.1875,-5.2879,-5.2327,-5.2402,-5.2929,-5.2929,-5.2929,-5.2929,-5.2929,-5.2929,-5.298,-5.3507,-5.3683,-5.3783,-6.3375,-6.3827,-6.458,-6.6614,-6.6789,-6.6714,-6.689,-6.6764,-6.6714,-6.689,-6.7116,-6.7643,-6.8723,-6.8698,-6.8422,0.0,-6.8045,-6.7894,0.0,-6.7166,-6.6965,-6.6965,-6.6061,-6.5459,-6.5283,-6.4228,-6.2873,-6.119,0.0,-5.9257,-5.7097,-5.6319,-5.5691,-5.5189,-5.5717,-5.6068,-5.6319,-5.7223,-5.7851,-5.8278,-5.9357,-5.9583,-5.9282,-5.9659,-5.9684,-5.9458,-5.9106,-5.8981,-5.9006,-5.9182,-5.9131,-5.9056,-5.9382,-5.9006,-5.8378,-5.8001,-5.7499,-5.7072,-5.7298,-5.6796,-5.6269,-5.647,-5.6219,-5.5666,-5.4536,-5.3708,-5.313,-5.2955,-5.2929,-5.2929,-5.2929,-5.2779,-5.2603,-5.2402,-5.1749,0.0,-5.0494,0.0,0.0,0.0,-4.6702,-4.615,-4.5045,-4.5623,0.0,0.0,-4.5824,-4.5321,-4.4166,-4.4443,-4.5321,-4.6803,-4.7933,0.0,-5.1517,-5.1184,-5.1743,-5.3166,-5.226,-5.2051,-5.2402,-5.2402,-5.2603,-5.2929,-5.2729,-5.2754,-5.2929,-5.2929,-5.2929,-5.2929,-5.2929,-5.313,-5.3482,-5.3632,-5.4185,-5.4888,-6.4002,-6.4178,-6.458,-6.581,-6.5735,-6.5484,-6.5484,-6.5484,-6.5559,-6.5785,-6.6112,-6.6564,-6.7116,-6.7166,-6.7116,-6.699,-6.7091,-6.694,-6.6388,-6.6338,-6.6262,-6.6036,-6.5358,-6.4982,-6.4982,-6.4128,-6.3174,-6.2119,-6.1266,-6.0035,-5.8478,-5.7725,-5.7173,-5.6872,-5.7273,-5.765,-5.8001,-5.8805,-5.9207,-5.9382,-6.006,-5.9985,-5.9558,-6.0111,-5.9985,-5.9533,-5.9734,-5.9558,-5.9232,-5.9433,-5.9357,-5.9207,-5.9207,-5.9106,-5.8905,-5.8353,-5.7951,-5.765,-5.76,-5.7223,-5.6821,-5.6746,-5.662,-5.6219,-5.5139,-5.3858,-5.298,-5.3181,-5.3055,-5.2929,-5.2929,-5.2929,-5.2804,-5.2477,-5.2126,-5.1624,-5.0845,0.0,0.0,0.0,0.0,-4.7405,-4.7054,-4.7154,-4.7205,0.0,0.0,-4.6376,-4.5321,-4.5648,-4.6577,-4.8184,-4.8786,-5.0104,-5.2181,-5.2476,-5.3242,-5.4536,-5.3745,-5.3207,-5.2929,-5.2929,-5.2929,-5.2929,-5.2929,-5.2929,-5.2929,-5.2929,-5.2929,-5.2929,-5.2929,-5.3256,-5.3733,-5.3934,-5.4612,-5.5415,-6.3576,-6.3701,-6.3852,-6.4379,-6.4454,-6.4454,-6.4404,-6.4454,-6.4655,-6.5157,-6.5258,-6.5509,-6.6061,-6.6112,-6.6338,-6.6865,-6.6413,-6.5886,-6.5333,-6.5283,-6.5032,-6.4479,-6.4429,-6.4404,-6.4404,-6.3902,-6.3626,-6.3626,-6.1492,-6.0161,-5.9633,-5.8604,-5.8127,-5.8177,-5.9156,-5.9608,-5.9684,-6.0738,-6.0839,-6.0311,-6.0362,-6.0035,-5.9558,-6.0111,-5.9985,-5.9558,-6.0111,-5.9659,-5.8855,-5.9382,-5.9207,-5.878,-5.878,-5.9106,-5.9382,-5.888,-5.873,-5.8504,-5.7474,-5.7524,-5.76,-5.657,-5.662,-5.6646,-5.5566,-5.411,-5.3105,-5.3557,-5.3256,-5.2929,-5.2929,-5.2929,-5.2929,-5.2929,-5.2854,-5.2452,-5.1423,0.0,0.0,0.0,0.0,-4.9615,-4.964,-4.9188,-4.846,0.0,0.0,0.0,-4.6602,-4.7531,-4.8309,-4.8812,-4.9439,-5.0268,-5.1322,-5.3412,-5.4497,-5.4497,-5.4985,-5.4433,-5.2929,-5.2929,-5.2929,-5.2929,-5.2929,-5.2929,-5.2929,-5.2929,-5.2929,-5.2929,-5.2929,-5.3281,-5.3833,-5.4361,-5.4938,-5.5516,-6.3576,-6.3701,-6.3852,-6.4379,-6.4454,-6.4329,-6.3927,-6.4203,-6.4505,-6.4655,-6.5032,-6.5509,-6.6061,-6.6112,-6.6162,-6.6312,-6.6187,-6.5886,-6.5333,-6.5283,-6.5032,-6.4479,-6.4078,-6.3877,-6.3877,-6.3324,-6.3023,-6.3023,-6.2069,-6.1542,-6.1391,-6.0713,-6.0412,-6.0412,-6.0663,-6.0788,-6.0814,-6.1065,-6.0839,-6.0362,-6.0788,-6.0387,-5.9558,-6.0111,-5.9985,-5.9558,-6.0111,-5.9885,-5.9408,-5.9935,-5.9759,-5.9307,-5.9307,-5.9382,-5.9382,-5.888,-5.873,-5.8755,-5.888,-5.8102,-5.7273,-5.7449,-5.662,-5.5591,-5.4913,-5.411,-5.3432,-5.3181,-5.3005,-5.2929,-5.2929,-5.2929,-5.2929,-5.2929,-5.2226,-5.1574,-5.1322,-5.0067,-4.9264,0.0,-4.959,-4.9766,-5.0167,-5.0117,-4.9916,0.0,0.0,-4.9012,-4.9414,-4.969,-4.969,-4.9414,-5.077,-5.1649,-5.19,-5.2835,-5.3292,-5.3292,-5.3419,-5.3291,-5.2929,-5.2929,-5.2929,-5.2929,-5.2929,-5.2929,-5.2929,-5.2929,-5.2929,-5.2929,-5.2929,-5.3507,-5.4386,-5.4511,-5.5189,-5.6043,-6.3224,-6.3299,-6.34,-6.3676,-6.3726,-6.3626,-6.335,-6.3525,-6.3802,-6.4078,-6.458,-6.5132,-6.5685,-6.5961,-6.6112,-6.6112,-6.5886,-6.5509,-6.4957,-6.468,-6.4304,-6.3751,-6.345,-6.3299,-6.3299,-6.2998,-6.2822,-6.2822,-6.2521,-6.2395,-6.237,-6.1818,-6.1567,-6.1567,-6.1567,-6.1567,-6.1567,-6.1567,-6.1391,-6.109,-6.1165,-6.0814,-6.0337,-6.0889,-6.0738,-6.0311,-6.0613,-6.0512,-6.0236,-6.001,-5.991,-5.9834,-5.9583,-5.9483,-5.9433,-5.9156,-5.9081,-5.9081,-5.9131,-5.8654,-5.8102,-5.7951,-5.6646,-5.5365,-5.534,-5.4687,-5.4009,-5.3733,-5.3457,-5.3206,-5.298,-5.2929,-5.2929,-5.2929,-5.2226,-5.1649,-5.1649,-5.0645,-5.0042,-5.0318,-5.0594,-5.087,-5.1172,-5.1197,-5.1096,-5.082,-5.0544,0.0,-5.0419,-5.0896,-5.1046,-5.0745,-5.1624,-5.2226,-5.2477,-5.3521,-5.4055,-5.4055,-5.4835,-5.4835,-5.4055,-5.4055,-5.4055,-5.3987,-5.3247,-5.2929,-5.2929,-5.2929,-5.3055,-5.3281,-5.3281,-5.3959,-5.4938,-5.4938,-5.5491,-5.6219,-6.3286,-6.2985,-6.2822,-6.2822,-6.2822,-6.2822,-6.2822,-6.2822,-6.3048,-6.3626,-6.4153,-6.468,-6.5233,-6.571,-6.5986,-6.5986,-6.5409,-6.4881,-6.4479,-6.4053,-6.3525,-6.2847,-6.2822,-6.2822,-6.2822,-6.2822,-6.2822,-6.2822,-6.2822,-6.2822,-6.2822,-6.2345,-6.2119,-6.2119,-6.2119,-6.2119,-6.2119,-6.2119,-6.2069,-6.1969,-6.1492,-6.1266,-6.124,-6.1692,-6.1592,-6.119,-6.1266,-6.119,-6.0939,-6.0136,-6.001,-6.0136,-5.9834,-5.9684,-5.9633,-5.9734,-5.9684,-5.9508,-5.8981,-5.9106,-5.9131,-5.8152,-5.6821,-5.5842,-5.6143,-5.5491,-5.4737,-5.4486,-5.4059,-5.3557,-5.303,-5.2929,-5.2929,-5.2929,-5.2402,-5.2,-5.2101,0.0,-5.1222,-5.1398,-5.1825,-5.2126,-5.2226,-5.2226,-5.2,-5.1448,-5.1398,-5.1197,-5.0695,-5.1574,-5.2151,-5.2226,-5.2226,-5.2452,-5.2929,-5.4299,-5.5049,-5.5049,-5.6531,-5.6466,-5.5049,-5.5049,-5.5049,-5.4916,-5.364,-5.3055,-5.3055,-5.313,-5.3432,-5.3833,-5.3833,-5.4461,-5.539,-5.539,-5.5742,-5.6219,-6.5319,-6.3962,-6.2822,-6.2822,-6.2822,-6.2822,-6.2822,-6.2822,-6.3048,-6.3626,-6.4153,-6.468,-6.5233,-6.5358,-6.5409,-6.5409,-6.4505,-6.4103,-6.4454,-6.4379,-6.3877,-6.2873,-6.2822,-6.2822,-6.2822,-6.2822,-6.2822,-6.2822,-6.2822,-6.2822,-6.2822,-6.2747,-6.2697,-6.2697,-6.2697,-6.2697,-6.2697,-6.2697,-6.2421,-6.1994,-6.1918,-6.1592,-6.119,-6.1291,-6.1266,-6.124,-6.1718,-6.1266,-6.0563,-6.1341,-6.0738,-5.9784,-6.0638,-6.0588,-6.0286,-6.0788,-6.0588,-6.006,-5.9533,-5.9106,-5.8704,-5.8052,-5.77,-5.7273,-5.642,-5.6068,-5.5566,-5.4135,-5.3758,-5.3557,-5.303,-5.2929,-5.2929,-5.2929,-5.2076,-5.1574,-5.2051,0.0,-5.0921,-5.1875,-5.2051,-5.2277,-5.2754,-5.2804,-5.2578,-5.2026,-5.1975,-5.1925,-5.185,-5.2,-5.2327,-5.2779,-5.2804,-5.2829,-5.2929,-5.3179,-5.3316,-5.3291,-5.3563,-5.3563,-5.3316,-5.3316,-5.3316,-5.3316,-5.352,-5.3582,-5.3607,-5.411,-5.4361,-5.4436,-5.4436,-5.4838,-5.539,-5.539,-5.5742,-5.6219,-6.7445,-6.5844,-6.4418,-6.4418,-6.3503,-6.2822,-6.2822,-6.2822,-6.2923,-6.3199,-6.3952,-6.4454,-6.4429,-6.4931,-6.5157,-6.4881,-6.4404,-6.4078,-6.4053,-6.3751,-6.335,-6.2847,-6.2822,-6.2822,-6.2822,-6.2822,-6.2822,-6.2822,-6.2822,-6.2822,-6.2822,-6.2822,-6.2822,-6.2822,-6.2822,-6.2822,-6.2822,-6.2496,-6.2395,-6.2421,-6.2119,-6.2019,-6.2069,-6.2069,-6.2069,-6.2019,-6.1692,-6.1617,-6.1617,-6.1215,-6.0989,-6.0889,-6.1115,-6.0989,-6.0839,-6.1115,-6.0989,-6.0588,-5.9734,-5.9332,-5.9006,-5.8478,-5.8127,-5.775,-5.7248,-5.7123,-5.6721,-5.534,-5.5064,-5.4712,-5.3557,-5.3331,-5.3331,-5.3331,-5.2427,-5.2026,-5.2854,-5.2026,-5.1624,-5.2452,-5.2553,-5.2653,-5.2904,-5.2929,-5.2829,-5.2578,-5.2553,-5.2553,-5.2553,-5.2553,-5.2653,-5.2929,-5.2929,-5.2929,-5.2929,-5.2929,-5.2929,-5.2929,-5.381,-5.4412,-5.4721,-5.4721,-5.4876,-5.5117,-5.4455,-5.416,-5.4185,-5.4461,-5.4737,-5.5013,-5.5013,-5.534,-5.5842,-5.5842,-5.6168,-5.662,-6.956,-6.798,-6.6519,-6.6519,-6.487,-6.3503,-6.3503,-6.3123,-6.2822,-6.2822,-6.3676,-6.4128,-6.3726,-6.4429,-6.4756,-6.4329,-6.4178,-6.3927,-6.3525,-6.3073,-6.2898,-6.3023,-6.3023,-6.2973,-6.2822,-6.2822,-6.2822,-6.2822,-6.2822,-6.2822,-6.2822,-6.2822,-6.2822,-6.2822,-6.2822,-6.2822,-6.2797,-6.237,-6.2446,-6.2797,-6.237,-6.2446,-6.2822,-6.2822,-6.2822,-6.2722,-6.1868,-6.2019,-6.2471,-6.1291,-6.1316,-6.1793,-6.1617,-6.1492,-6.1391,-6.1542,-6.1567,-6.1316,-6.0186,-5.9885,-5.9759,-5.9232,-5.878,-5.8403,-5.8152,-5.8102,-5.7775,-5.6646,-5.6394,-5.5968,-5.4536,-5.4185,-5.4059,-5.3934,0.0,-5.2578,-5.3406,-5.2703,-5.2302,-5.2854,-5.2929,-5.2929,-5.2929,-5.2929,-5.2929,-5.2929,-5.2929,-5.2929,-5.2929,-5.2929,-5.298,-5.3105,-5.298,-5.2929,-5.2929,-5.3055,-5.3105,-5.3105,-5.4567,-5.5434,-5.5878,-5.5878,-5.6112,-5.6487,-5.5299,-5.4762,-5.4762,-5.4888,-5.5265,-5.5767,-5.5767,-5.6118,-5.6595,-5.6595,-5.6872,-5.7173,-7.1712,-7.0079,-6.8662,-6.8662,-6.6984,-6.5529,-6.5529,-6.4042,-6.2822,-6.2822,-6.3375,-6.3726,-6.3701,-6.3751,-6.3802,-6.3751,-6.3249,-6.2923,-6.2898,-6.2847,-6.3073,-6.3601,-6.3626,-6.3375,-6.2847,-6.2822,-6.2822,-6.2822,-6.2822,-6.2822,-6.2822,-6.2822,-6.2822,-6.2822,-6.2822,-6.2822,-6.2822,-6.2797,-6.2797,-6.2822,-6.2797,-6.2797,-6.2822,-6.2822,-6.2822,-6.2822,-6.2747,-6.2421,-6.2119,-6.2521,-6.2019,-6.1416,-6.2395,-6.2345,-6.2044,-6.2546,-6.2697,-6.2471,-6.1366,-6.1065,-6.0914,-6.0337,-6.0161,-5.9885,-5.888,-5.8654,-5.8353,-5.7198,-5.6972,-5.6771,-5.6143,-5.5616,-5.5089,-5.4587,0.0,0.0,-5.298,-5.2477,-5.2302,-5.2854,-5.2929,-5.2929,-5.2929,-5.2929,-5.2929,-5.2929,-5.2929,-5.2929,-5.2929,-5.2929,-5.3155,-5.3632,-5.3181,-5.2929,-5.2929,-5.3406,-5.3632,-5.3658,-5.4326,-5.4648,-5.4698,-5.4698,-5.4724,-5.4799,-5.516,-5.534,-5.5365,-5.5892,-5.642,-5.6922,-5.6922,-5.7273,-5.7775,-5.7775,-5.7801,-5.7826,-7.3742,-7.2171,-7.074,-7.074,-6.9113,-6.7292,-6.6,-6.5161,-6.4177,-6.2985,-6.3324,-6.355,-6.3199,-6.3475,-6.355,-6.3199,-6.3274,-6.3375,-6.3375,-6.3676,-6.3626,-6.3174,-6.35,-6.3425,-6.2847,-6.2822,-6.2822,-6.2822,-6.2822,-6.2822,-6.2822,-6.2822,-6.2822,-6.2822,-6.2822,-6.2822,-6.2822,-6.2822,-6.2822,-6.2822,-6.2822,-6.2822,-6.2822,-6.2822,-6.2822,-6.2797,-6.2446,-6.2395,-6.2496,-6.237,-6.227,-6.227,-6.2697,-6.2697,-6.2546,-6.2772,-6.2822,-6.2747,-6.232,-6.1943,-6.1567,-6.0989,-6.0864,-6.0738,-6.0337,-6.0236,-6.0035,-5.9232,-5.8805,-5.8303,-5.7424,-5.6796,-5.6219,-5.5666,0.0,-5.3934,-5.3934,-5.3181,-5.2678,-5.2904,-5.2929,-5.2929,-5.2929,-5.2929,-5.2929,-5.2929,-5.2929,-5.308,-5.3381,-5.3758,-5.4034,-5.4235,-5.4059,-5.3934,-5.3934,-5.4135,-5.4235,-5.4235,-5.4461,-5.4737,-5.5089,-5.5089,-5.544,-5.6093,-5.5968,-5.6294,-5.6947,-5.6796,-5.7072,-5.7575,-5.7575,-5.77,-5.7901,-5.7901,-5.8102,-5.8353,-7.4869,-7.3812,-7.284,-7.284,-7.1206,-6.9337,-6.7953,-6.7215,-6.6,-6.4042,-6.4077,-6.3961,-6.2954,-6.3174,-6.3249,-6.2873,-6.335,-6.3701,-6.3701,-6.4329,-6.4228,-6.3149,-6.3626,-6.3576,-6.2847,-6.2822,-6.2822,-6.2822,-6.2822,-6.2822,-6.2822,-6.2822,-6.2822,-6.2822,-6.2822,-6.2822,-6.2822,-6.2822,-6.2822,-6.2822,-6.2822,-6.2822,-6.2822,-6.2822,-6.2822,-6.2772,-6.2395,-6.2496,-6.2772,-6.2395,-6.2521,-6.2822,-6.2822,-6.2822,-6.2822,-6.2822,-6.2822,-6.2822,-6.2822,-6.2546,-6.2119,-6.1592,-6.1441,-6.1391,-6.1215,-6.119,-6.1065,-6.0663,-6.0286,-5.9809,-5.9056,-5.8303,-5.7625,-5.7097,-5.6068,-5.5214,-5.4863,-5.4185,-5.3632,-5.3457,-5.3281,-5.3181,-5.3181,-5.3181,-5.3181,-5.3181,-5.3331,-5.3607,-5.3959,-5.4361,-5.4637,-5.4813,-5.4813,-5.4913,-5.5089,-5.4913,-5.4813,-5.4838,-5.5164,-5.5541,-5.5917,-5.6093,-5.6595,-5.7273,-5.6897,-5.7173,-5.7876,-5.7474,-5.765,-5.8152,-5.8152,-5.8252,-5.8403,-5.8403,-5.8654,-5.8905,-7.4869,-7.4869,-7.4869,-7.4869,-7.3293,-7.1927,-7.1927,-7.0227,-6.8208,-6.6078,-6.5844,-6.5082,-6.3042,-6.2822,-6.2822,-6.2822,-6.335,-6.3701,-6.3701,-6.4705,-6.4831,-6.3751,-6.4203,-6.3952,-6.2873,-6.2822,-6.2822,-6.2822,-6.2822,-6.2822,-6.2822,-6.2822,-6.2822,-6.2822,-6.2822,-6.2822,-6.2822,-6.2822,-6.2822,-6.2822,-6.2822,-6.2822,-6.2822,-6.2822,-6.2822,-6.2822,-6.2822,-6.2822,-6.2822,-6.2822,-6.2822,-6.2822,-6.2822,-6.2822,-6.2822,-6.2822,-6.2822,-6.2822,-6.2822,-6.2822,-6.2697,-6.2144,-6.2019,-6.1868,-6.1316,-6.119,-6.119,-6.119,-6.119,-6.119,-6.119,-6.0261,-5.9332,-5.8805,-5.7775,-5.6671,-5.5541,-5.539,-5.5189,-5.4637,-5.4059,-5.3708,-5.3708,-5.3708,-5.3708,-5.3708,-5.4235,-5.4587,-5.4587,-5.4587,-5.4838,-5.539,-5.5415,-5.5666,-5.6219,-5.5666,-5.539,-5.5415,-5.652,-5.7022,-5.7072,-5.765,-5.7901,-5.7901,-5.7901,-5.7901,-5.7901,-5.7901,-5.8227,-5.873,-5.873,-5.9031,-5.9483,-5.9483,-5.9483,-5.9483,-7.4869,-7.4869,-7.4869,-7.4869,-7.4426,-7.3503,-7.2142,-7.1423,-7.03,-6.8208,-6.798,-6.7215,-6.5082,-6.4949,-6.4338,-6.2904,-6.335,-6.4002,-6.4756,-6.5484,-6.5383,-6.4279,-6.4379,-6.4128,-6.345,-6.3048,-6.2822,-6.2822,-6.2822,-6.2822,-6.2822,-6.2822,-6.2822,-6.2822,-6.2822,-6.2822,-6.2822,-6.2822,-6.2822,-6.2822,-6.2822,-6.2822,-6.2822,-6.2822,-6.2822,-6.2822,-6.2822,-6.2822,-6.2822,-6.2822,-6.2822,-6.2822,-6.2822,-6.2822,-6.2822,-6.2822,-6.2822,-6.2822,-6.2822,-6.2822,-6.2797,-6.2621,-6.2571,-6.2546,-6.237,-6.2345,-6.2345,-6.2345,-6.2019,-6.1768,-6.1768,-6.1165,-6.0362,-5.9408,-5.8679,-5.7826,-5.6696,-5.5867,-5.534,-5.5164,-5.4637,-5.431,-5.431,-5.431,-5.431,-5.431,-5.5189,-5.5717,-5.5717,-5.647,-5.6972,-5.7148,-5.6746,-5.6821,-5.7399,-5.6445,-5.6168,-5.6545,-5.6872,-5.7248,-5.765,-5.7826,-5.8102,-5.8453,-5.8052,-5.8328,-5.8981,-5.8629,-5.878,-5.9257,-5.9257,-5.9357,-5.9483,-5.9483,-5.9483,-5.9483,-7.4869,-7.4869,-7.4869,-7.4869,-7.4869,-7.4585,-7.3645,-7.3462,-7.2791,-7.0769,-7.0445,-6.9587,-6.7242,-6.6312,-6.5319,-6.4123,-6.3994,-6.4379,-6.5233,-6.581,-6.581,-6.5157,-6.4906,-6.4329,-6.3375,-6.3224,-6.3048,-6.2822,-6.2822,-6.2822,-6.2822,-6.2822,-6.2822,-6.2822,-6.2822,-6.2822,-6.2822,-6.2822,-6.2822,-6.2822,-6.2822,-6.2822,-6.2822,-6.2822,-6.2822,-6.2822,-6.2822,-6.2822,-6.2822,-6.2822,-6.2822,-6.2822,-6.2822,-6.2822,-6.2822,-6.2822,-6.2822,-6.2822,-6.2822,-6.2822,-6.2822,-6.2822,-6.2822,-6.2822,-6.2822,-6.2822,-6.2822,-6.2822,-6.2571,-6.2345,-6.2345,-6.1893,-6.1291,-6.0588,-5.9859,-5.9031,-5.8127,-5.7248,-5.6545,-5.6093,-5.5541,-5.5139,-5.4913,-5.4888,-5.5064,-5.5516,-5.6168,-5.6646,-5.6872,-5.7524,-5.7901,-5.7901,-5.7549,-5.7549,-5.7901,-5.7223,-5.7047,-5.7374,-5.76,-5.7876,-5.8227,-5.8428,-5.8704,-5.9006,-5.8679,-5.8905,-5.9458,-5.9156,-5.9207,-5.9483,-5.9483,-5.9483,-5.9533,-5.9734,-5.9684,-5.9533,-7.4869,-7.4869,-7.4869,-7.4869,-7.4869,-7.5108,-7.5796,-7.5916,-7.5228,-7.3458,-7.3154,-7.2139,-6.9578,-6.7603,-6.6366,-6.6158,-6.5364,-6.5067,-6.5571,-6.5871,-6.6086,-6.6036,-6.5559,-6.453,-6.2948,-6.3425,-6.34,-6.2822,-6.2822,-6.2822,-6.2822,-6.2822,-6.2822,-6.2822,-6.2822,-6.2822,-6.2822,-6.2822,-6.2822,-6.2822,-6.2822,-6.2822,-6.2822,-6.2822,-6.2822,-6.2822,-6.2822,-6.2822,-6.2822,-6.2822,-6.2822,-6.2822,-6.2822,-6.2822,-6.2822,-6.2822,-6.2822,-6.2822,-6.2822,-6.2822,-6.2822,-6.2822,-6.2822,-6.2822,-6.2822,-6.2822,-6.2822,-6.2822,-6.2822,-6.2822,-6.2822,-6.2421,-6.2069,-6.2019,-6.114,-6.0261,-5.9734,-5.9156,-5.8403,-5.7374,-5.6671,-5.6093,-5.5591,-5.5541,-5.5968,-5.7022,-5.7148,-5.7424,-5.7951,-5.8027,-5.8052,-5.8052,-5.8001,-5.8001,-5.8052,-5.8001,-5.7976,-5.7976,-5.8478,-5.8755,-5.8805,-5.9282,-5.9483,-5.9483,-5.9483,-5.9483,-5.9483,-5.9483,-5.9483,-5.9483,-5.9483,-5.9483,-5.9558,-6.0111,-6.001,-5.9633,-7.4869,-7.4869,-7.4869,-7.4869,-7.4869,-7.5108,-7.5796,-7.5916,-7.5926,-7.5951,-7.5495,-7.4403,-7.2269,-7.1552,-7.0604,-6.9094,-6.8146,-6.7697,-6.7828,-6.678,-6.5911,-6.5484,-6.5358,-6.4731,-6.3525,-6.3626,-6.34,-6.2822,-6.2822,-6.2822,-6.2822,-6.2822,-6.2822,-6.2822,-6.2822,-6.2822,-6.2822,-6.2822,-6.2822,-6.2822,-6.2822,-6.2822,-6.2822,-6.2822,-6.2822,-6.2822,-6.2822,-6.2822,-6.2822,-6.2822,-6.2822,-6.2822,-6.2822,-6.2822,-6.2822,-6.2822,-6.2822,-6.2822,-6.2822,-6.2822,-6.2822,-6.2822,-6.2822,-6.2822,-6.2822,-6.2822,-6.2822,-6.2822,-6.2822,-6.2822,-6.2822,-6.2722,-6.2496,-6.2069,-6.1793,-6.1441,-6.0889,-5.996,-5.9232,-5.9006,-5.7725,-5.6821,-5.6696,-5.6671,-5.6972,-5.765,-5.8102,-5.8403,-5.8529,-5.893,-5.9156,-5.9156,-5.8755,-5.873,-5.9131,-5.8755,-5.8554,-5.8554,-5.8654,-5.893,-5.9332,-5.9433,-5.9483,-5.9483,-5.9483,-5.9483,-5.9483,-5.9483,-5.9483,-5.9483,-5.9483,-5.9483,-5.9558,-6.0111,-6.0236,-6.037,-7.4869,-7.4869,-7.4869,-7.4869,-7.5138,-7.5587,-7.6245,-7.6604,-7.6933,-7.7263,-7.7023,-7.6312,-7.4903,-7.3879,-7.2473,-7.0491,-6.9185,-6.8483,-6.8483,-6.7008,-6.5986,-6.5685,-6.5434,-6.4906,-6.4078,-6.3827,-6.34,-6.2822,-6.2822,-6.2822,-6.2822,-6.2822,-6.2822,-6.2822,-6.2822,-6.2822,-6.2822,-6.2822,-6.2822,-6.2822,-6.2822,-6.2822,-6.2822,-6.2822,-6.2822,-6.2822,-6.2822,-6.2822,-6.2822,-6.2822,-6.2822,-6.2822,-6.2822,-6.2822,-6.2822,-6.2822,-6.2822,-6.2822,-6.2822,-6.2822,-6.2822,-6.2822,-6.2822,-6.2822,-6.2822,-6.2822,-6.2822,-6.2822,-6.2822,-6.2822,-6.2822,-6.2822,-6.2747,-6.2446,-6.2169,-6.1893,-6.1617,-6.0588,-5.9784,-5.9533,-5.8504,-5.7725,-5.7474,-5.7449,-5.7675,-5.8252,-5.8554,-5.883,-5.9081,-5.9608,-5.9885,-5.9885,-5.9633,-5.9759,-6.0286,-5.9759,-5.9633,-5.9885,-5.9357,-5.9232,-5.9483,-5.9483,-5.9483,-5.9483,-5.9483,-5.9483,-5.9508,-5.9784,-5.9734,-5.9533,-5.9784,-5.9734,-5.9558,-6.0111,-6.0311,-6.0574,-7.4869,-7.4869,-7.4869,-7.4869,-7.5437,-7.6125,-7.6724,-7.7382,-7.7861,-7.7951,-7.7891,-7.7592,-7.7053,-7.5448,-7.3855,-7.2339,-7.0673,-6.9562,-6.9158,-6.7622,-6.6515,-6.6112,-6.5584,-6.5032,-6.4479,-6.4053,-6.35,-6.2822,-6.2822,-6.2822,-6.2822,-6.2822,-6.2822,-6.2822,-6.2822,-6.2822,-6.2822,-6.2822,-6.2822,-6.2822,-6.2822,-6.2822,-6.2822,-6.2822,-6.2822,-6.2822,-6.2822,-6.2822,-6.2847,-6.2948,-6.2973,-6.2998,-6.3073,-6.3048,-6.2973,-6.2973,-6.2973,-6.2948,-6.2847,-6.2898,-6.2948,-6.2847,-6.2822,-6.2822,-6.2822,-6.2822,-6.2822,-6.2822,-6.2822,-6.2822,-6.2822,-6.2822,-6.2822,-6.2822,-6.2446,-6.2144,-6.2144,-6.1266,-6.0437,-5.9985,-5.9282,-5.8629,-5.8102,-5.8052,-5.8252,-5.8805,-5.893,-5.9182,-5.9608,-6.0161,-6.0462,-6.0462,-6.0462,-6.0688,-6.1165,-6.0713,-6.0713,-6.1165,-6.0236,-5.9784,-5.9784,-5.9784,-5.9784,-5.9784,-5.9784,-5.9784,-5.9809,-6.0286,-6.0186,-5.9912,-6.0652,-6.0473,-5.9834,-6.0311,-6.0462,-6.0675,-7.4869,-7.4869,-7.4869,-7.4869,-7.5437,-7.6125,-7.6724,-7.7382,-7.8011,-7.8579,-7.816,-7.7771,-7.7682,-7.7438,-7.736,-7.7677,-7.5832,-7.3852,-7.2051,-7.0068,-6.8022,-6.6197,-6.5584,-6.5032,-6.4479,-6.4404,-6.3852,-6.2822,-6.2822,-6.2822,-6.2822,-6.2822,-6.2822,-6.2822,-6.2822,-6.2822,-6.2822,-6.2822,-6.2822,-6.2822,-6.2822,-6.2822,-6.2822,-6.2822,-6.2822,-6.2822,-6.2822,-6.2822,-6.2898,-6.34,-6.3576,-6.3651,-6.4103,-6.3927,-6.3576,-6.3576,-6.3576,-6.3475,-6.2973,-6.3199,-6.345,-6.2948,-6.2822,-6.2822,-6.2822,-6.2822,-6.2822,-6.2822,-6.2822,-6.2822,-6.2822,-6.2822,-6.2822,-6.2822,-6.2772,-6.2722,-6.2722,-6.2169,-6.1743,-6.1667,-6.0311,-5.9182,-5.8654,-5.8604,-5.883,-5.9357,-5.9834,-6.0136,-6.0211,-6.0763,-6.1065,-6.1065,-6.1065,-6.1115,-6.119,-6.1115,-6.1115,-6.119,-6.104,-6.0964,-6.0964,-6.0964,-6.0964,-6.0964,-6.0964,-6.0964,-6.0964,-6.104,-6.1014,-6.1176,-6.2948,-6.2561,-6.0964,-6.104,-6.1065,-6.1281,-7.4869,-7.4869,-7.4988,-7.5377,-7.5976,-7.6634,-7.7263,-7.7921,-7.846,-7.8759,-7.8519,-7.837,-7.837,-7.837,-7.846,-7.8759,-7.6811,-7.4763,-7.2664,-7.0502,-6.8331,-6.6197,-6.5584,-6.5183,-6.4931,-6.463,-6.4228,-6.3751,-6.345,-6.3149,-6.2822,-6.2822,-6.2822,-6.2822,-6.2822,-6.2822,-6.2822,-6.2822,-6.2822,-6.2822,-6.2822,-6.2822,-6.2822,-6.2822,-6.2822,-6.2822,-6.2822,-6.2822,-6.2923,-6.35,-6.3701,-6.3776,-6.4304,-6.4304,-6.4128,-6.4128,-6.3927,-6.3626,-6.3375,-6.3249,-6.3224,-6.3299,-6.3073,-6.2998,-6.3601,-6.3274,-6.2822,-6.2822,-6.2822,-6.2822,-6.2822,-6.2822,-6.2822,-6.2822,-6.2822,-6.2822,-6.2822,-6.2345,-6.1893,-6.1592,-6.0889,-6.0337,-6.0111,-6.0085,-6.0186,-6.0412,-6.0663,-6.0788,-6.0788,-6.1341,-6.1642,-6.1642,-6.1642,-6.1793,-6.2094,-6.1793,-6.1793,-6.2094,-6.2094,-6.1768,-6.119,-6.119,-6.119,-6.119,-6.119,-6.119,-6.1215,-6.1517,-6.1466,-6.1429,-6.3726,-6.3774,-6.2406,-6.2406,-6.1452,-6.0654]},{"header":{"parameterUnit":"m.s-1","parameterCategory":1,"la1":30.6,"la2":28.766,"lo1":-90.7593,"lo2":-88.6598,"dy":0.0162,"dx":0.0183,"nx":116,"ny":114,"refTime":"2024-04-08T06:00:00:Z","depth":0,"parameterNumber":3,"parameterNumberName":"V-component_of_WINDS"},"data":[0.0,0.0,0.0,0.0,0.0,0.0,0.0,0.0,0.0,0.0,0.0,0.0,0.0,0.0,0.0,0.0,0.0,0.0,0.0,0.0,0.0,0.0,0.0,0.0,0.0,0.0,0.0,0.0,0.0,0.0,0.0,0.0,0.0,0.0,0.0,0.0,0.0,0.0,0.0,0.0,0.0,0.0,0.0,0.0,0.0,0.0,0.0,0.0,0.0,0.0,0.0,0.0,0.0,0.0,0.0,0.0,0.0,0.0,0.0,0.0,0.0,0.0,0.0,0.0,0.0,0.0,0.0,0.0,0.0,0.0,0.0,0.0,0.0,0.0,0.0,0.0,0.0,0.0,0.0,0.0,0.0,0.0,0.0,0.0,0.0,0.0,0.0,0.0,0.0,0.0,0.0,0.0,0.0,0.0,0.0,0.0,0.0,0.0,0.0,0.0,0.0,0.0,0.0,0.0,0.0,0.0,0.0,0.0,0.0,0.0,0.0,0.0,0.0,0.0,0.0,0.0,0.0,0.0,0.0,0.0,0.0,0.0,0.0,0.0,0.0,0.0,0.0,0.0,0.0,0.0,0.0,0.0,0.0,0.0,0.0,0.0,0.0,0.0,0.0,0.0,0.0,0.0,0.0,0.0,0.0,0.0,0.0,0.0,0.0,0.0,0.0,0.0,0.0,0.0,0.0,0.0,0.0,0.0,0.0,0.0,0.0,0.0,0.0,0.0,0.0,0.0,0.0,0.0,0.0,0.0,0.0,0.0,0.0,0.0,0.0,0.0,0.0,0.0,0.0,0.0,0.0,0.0,0.0,0.0,0.0,0.0,0.0,0.0,0.0,0.0,0.0,0.0,0.0,0.0,0.0,0.0,0.0,0.0,0.0,0.0,0.0,0.0,0.0,0.0,0.0,0.0,0.0,0.0,0.0,0.0,0.0,0.0,0.0,0.0,0.0,0.0,0.0,0.0,0.0,0.0,0.0,0.0,0.0,0.0,0.0,0.0,0.0,0.0,0.0,0.0,0.0,0.0,0.0,0.0,0.0,0.0,0.0,0.0,0.0,0.0,0.0,0.0,0.0,0.0,0.0,0.0,0.0,0.0,0.0,0.0,0.0,0.0,0.0,0.0,0.0,0.0,0.0,0.0,0.0,0.0,0.0,0.0,0.0,0.0,0.0,0.0,0.0,0.0,0.0,0.0,0.0,0.0,0.0,0.0,0.0,0.0,0.0,0.0,0.0,0.0,0.0,0.0,0.0,0.0,0.0,0.0,0.0,0.0,0.0,0.0,0.0,0.0,0.0,0.0,0.0,0.0,0.0,0.0,0.0,0.0,0.0,0.0,0.0,0.0,0.0,0.0,0.0,0.0,0.0,0.0,0.0,0.0,0.0,0.0,0.0,0.0,0.0,0.0,0.0,0.0,0.0,0.0,0.0,0.0,0.0,0.0,0.0,0.0,0.0,0.0,0.0,0.0,0.0,0.0,0.0,0.0,0.0,0.0,0.0,0.0,0.0,0.0,0.0,0.0,0.0,0.0,0.0,0.0,0.0,0.0,0.0,0.0,0.0,0.0,0.0,0.0,0.0,0.0,0.0,0.0,0.0,0.0,0.0,0.0,0.0,0.0,0.0,0.0,0.0,0.0,0.0,0.0,0.0,0.0,0.0,0.0,0.0,0.0,0.0,0.0,0.0,0.0,0.0,0.0,0.0,0.0,0.0,0.0,0.0,0.0,0.0,0.0,0.0,0.0,0.0,0.0,0.0,0.0,0.0,0.0,0.0,0.0,0.0,0.0,0.0,0.0,0.0,0.0,0.0,0.0,0.0,0.0,0.0,0.0,0.0,0.0,0.0,0.0,0.0,0.0,0.0,0.0,0.0,0.0,0.0,0.0,0.0,0.0,0.0,0.0,0.0,0.0,0.0,0.0,0.0,0.0,0.0,0.0,0.0,0.0,0.0,0.0,0.0,0.0,0.0,0.0,0.0,0.0,0.0,0.0,0.0,0.0,0.0,0.0,0.0,0.0,0.0,0.0,0.0,0.0,0.0,0.0,0.0,0.0,0.0,0.0,0.0,0.0,0.0,0.0,0.0,0.0,0.0,0.0,0.0,0.0,0.0,0.0,0.0,0.0,0.0,0.0,0.0,0.0,0.0,0.0,0.0,0.0,0.0,0.0,0.0,0.0,0.0,0.0,0.0,0.0,0.0,0.0,0.0,0.0,0.0,0.0,0.0,0.0,0.0,0.0,0.0,0.0,0.0,0.0,0.0,0.0,0.0,0.0,0.0,0.0,0.0,0.0,0.0,0.0,0.0,0.0,0.0,0.0,0.0,0.0,0.0,0.0,0.0,0.0,0.0,0.0,0.0,0.0,0.0,0.0,0.0,0.0,0.0,0.0,0.0,0.0,0.0,0.0,0.0,0.0,0.0,0.0,0.0,0.0,0.0,0.0,0.0,0.0,0.0,0.0,0.0,0.0,0.0,0.0,0.0,0.0,0.0,0.0,0.0,0.0,0.0,0.0,0.0,0.0,0.0,0.0,0.0,0.0,0.0,0.0,0.0,0.0,0.0,0.0,0.0,0.0,0.0,0.0,0.0,0.0,0.0,0.0,0.0,0.0,0.0,0.0,0.0,0.0,0.0,0.0,0.0,0.0,0.0,0.0,0.0,0.0,0.0,0.0,0.0,0.0,0.0,0.0,0.0,0.0,0.0,0.0,0.0,0.0,0.0,0.0,0.0,0.0,0.0,0.0,0.0,0.0,0.0,0.0,0.0,0.0,0.0,0.0,0.0,0.0,0.0,0.0,0.0,0.0,0.0,0.0,0.0,0.0,0.0,0.0,0.0,0.0,0.0,0.0,0.0,0.0,0.0,0.0,0.0,0.0,0.0,0.0,0.0,0.0,0.0,0.0,0.0,0.0,0.0,0.0,0.0,0.0,0.0,0.0,0.0,0.0,0.0,0.0,0.0,0.0,0.0,0.0,0.0,0.0,0.0,0.0,0.0,0.0,0.0,0.0,0.0,0.0,0.0,0.0,0.0,0.0,0.0,0.0,0.0,0.0,0.0,0.0,0.0,0.0,0.0,0.0,0.0,0.0,0.0,0.0,0.0,0.0,0.0,0.0,0.0,0.0,0.0,0.0,0.0,0.0,0.0,0.0,0.0,0.0,0.0,0.0,0.0,0.0,0.0,0.0,0.0,0.0,0.0,0.0,0.0,0.0,0.0,0.0,0.0,0.0,0.0,0.0,0.0,0.0,0.0,0.0,0.0,0.0,0.0,0.0,0.0,0.0,0.0,0.0,0.0,0.0,0.0,0.0,0.0,0.0,0.0,0.0,0.0,0.0,0.0,0.0,0.0,0.0,0.0,0.0,0.0,0.0,0.0,0.0,0.0,0.0,0.0,0.0,0.0,0.0,0.0,0.0,0.0,0.0,0.0,0.0,0.0,0.0,0.0,0.0,0.0,0.0,0.0,0.0,0.0,0.0,0.0,0.0,0.0,0.0,0.0,0.0,0.0,0.0,0.0,0.0,0.0,0.0,0.0,0.0,0.0,0.0,0.0,0.0,0.0,0.0,0.0,0.0,0.0,0.0,0.0,0.0,0.0,0.0,0.0,0.0,0.0,0.0,0.0,0.0,0.0,0.0,0.0,0.0,0.0,0.0,0.0,0.0,0.0,0.0,0.0,0.0,0.0,0.0,0.0,0.0,0.0,0.0,0.0,0.0,0.0,0.0,0.0,0.0,0.0,0.0,0.0,0.0,0.0,0.0,0.0,0.0,0.0,0.0,0.0,0.0,0.0,0.0,0.0,0.0,0.0,0.0,0.0,0.0,0.0,0.0,0.0,0.0,0.0,0.0,0.0,0.0,0.0,0.0,0.0,0.0,0.0,0.0,0.0,0.0,0.0,0.0,0.0,0.0,0.0,0.0,0.0,0.0,0.0,0.0,0.0,0.0,0.0,0.0,0.0,0.0,0.0,0.0,0.0,0.0,0.0,0.0,0.0,0.0,0.0,0.0,0.0,0.0,0.0,0.0,0.0,0.0,0.0,0.0,0.0,0.0,0.0,0.0,0.0,0.0,0.0,0.0,0.0,0.0,0.0,0.0,0.0,0.0,0.0,0.0,0.0,0.0,0.0,0.0,0.0,0.0,0.0,0.0,0.0,0.0,0.0,0.0,0.0,0.0,0.0,0.0,0.0,0.0,0.0,0.0,0.0,0.0,0.0,0.0,0.0,0.0,0.0,0.0,0.0,0.0,0.0,0.0,0.0,0.0,0.0,0.0,0.0,0.0,0.0,0.0,0.0,0.0,0.0,0.0,0.0,0.0,0.0,0.0,0.0,0.0,0.0,0.0,0.0,0.0,0.0,0.0,0.0,0.0,0.0,0.0,0.0,0.0,0.0,0.0,0.0,0.0,0.0,0.0,0.0,0.0,0.0,0.0,0.0,0.0,0.0,0.0,0.0,0.0,0.0,0.0,0.0,0.0,0.0,0.0,0.0,0.0,0.0,0.0,0.0,0.0,0.0,0.0,0.0,0.0,0.0,0.0,0.0,0.0,0.0,0.0,0.0,0.0,0.0,0.0,0.0,0.0,0.0,0.0,0.0,0.0,0.0,0.0,0.0,0.0,0.0,0.0,0.0,0.0,0.0,0.0,0.0,0.0,0.0,0.0,0.0,0.0,0.0,0.0,0.0,0.0,0.0,0.0,0.0,0.0,0.0,0.0,0.0,0.0,0.0,0.0,0.0,0.0,0.0,0.0,0.0,0.0,0.0,0.0,0.0,0.0,0.0,0.0,0.0,0.0,0.0,0.0,0.0,0.0,0.0,0.0,0.0,0.0,0.0,0.0,0.0,0.0,0.0,0.0,0.0,0.0,0.0,0.0,0.0,0.0,0.0,0.0,0.0,0.0,0.0,0.0,0.0,0.0,0.0,0.0,0.0,0.0,0.0,0.0,0.0,0.0,0.0,0.0,0.0,0.0,0.0,0.0,0.0,0.0,0.0,0.0,0.0,0.0,0.0,0.0,0.0,0.0,0.0,0.0,0.0,0.0,0.0,0.0,0.0,0.0,0.0,0.0,0.0,0.0,0.0,0.0,0.0,0.0,0.0,0.0,0.0,0.0,0.0,0.0,0.0,0.0,0.0,0.0,0.0,0.0,0.0,0.0,0.0,0.0,0.0,0.0,0.0,0.0,0.0,0.0,0.0,0.0,0.0,0.0,0.0,0.0,0.0,0.0,0.0,0.0,0.0,0.0,0.0,0.0,0.0,0.0,0.0,0.0,0.0,0.0,0.0,0.0,0.0,0.0,0.0,0.0,0.0,0.0,0.0,0.0,0.0,0.0,0.0,0.0,0.0,0.0,0.0,0.0,0.0,0.0,0.0,0.0,0.0,0.0,0.0,0.0,0.0,0.0,0.0,0.0,0.0,0.0,0.0,0.0,0.0,0.0,0.0,0.0,0.0,0.0,0.0,0.0,0.0,0.0,0.0,0.0,0.0,0.0,0.0,0.0,0.0,0.0,0.0,0.0,0.0,0.0,0.0,0.0,0.0,0.0,0.0,0.0,0.0,0.0,0.0,0.0,0.0,0.0,0.0,0.0,0.0,0.0,0.0,0.0,0.0,0.0,0.0,0.0,0.0,0.0,0.0,0.0,0.0,0.0,0.0,0.0,0.0,0.0,0.0,0.0,0.0,0.0,0.0,0.0,0.0,0.0,0.0,0.0,0.0,0.0,0.0,0.0,0.0,0.0,0.0,0.0,0.0,0.0,0.0,0.0,0.0,0.0,0.0,0.0,0.0,0.0,0.0,0.0,0.0,0.0,0.0,0.0,0.0,0.0,0.0,0.0,0.0,0.0,0.0,0.0,0.0,0.0,0.0,0.0,0.0,0.0,0.0,0.0,0.0,0.0,0.0,0.0,0.0,0.0,0.0,0.0,0.0,0.0,0.0,0.0,0.0,0.0,0.0,0.0,0.0,0.0,0.0,0.0,0.0,0.0,0.0,0.0,0.0,0.0,0.0,0.0,0.0,0.0,0.0,0.0,0.0,0.0,0.0,0.0,0.0,0.0,0.0,0.0,0.0,0.0,0.0,0.0,0.0,0.0,0.0,0.0,5.0192,4.8818,0.0,0.0,0.0,0.0,0.0,0.0,0.0,0.0,0.0,0.0,0.0,0.0,0.0,0.0,0.0,0.0,0.0,0.0,0.0,0.0,0.0,0.0,0.0,5.3354,5.4162,5.4162,5.5658,5.6466,5.6137,5.7034,0.0,0.0,0.0,0.0,5.7124,5.7723,5.856,5.9578,5.9249,5.9099,5.9069,5.9757,5.9009,5.7064,0.0,0.0,0.0,0.0,0.0,0.0,0.0,0.0,0.0,0.0,0.0,0.0,0.0,0.0,0.0,0.0,0.0,0.0,0.0,0.0,0.0,0.0,0.0,0.0,0.0,0.0,0.0,0.0,0.0,0.0,0.0,0.0,0.0,0.0,0.0,0.0,0.0,0.0,0.0,0.0,0.0,0.0,0.0,0.0,0.0,0.0,0.0,0.0,0.0,0.0,0.0,0.0,0.0,0.0,0.0,0.0,0.0,0.0,0.0,0.0,0.0,0.0,0.0,0.0,0.0,0.0,0.0,0.0,0.0,0.0,5.5073,5.2803,0.0,0.0,0.0,0.0,0.0,0.0,0.0,0.0,0.0,0.0,0.0,0.0,0.0,0.0,0.0,0.0,0.0,0.0,0.0,0.0,0.0,5.2426,5.2546,5.4311,5.5508,5.5508,5.7334,5.8171,5.7483,5.8082,5.8112,5.7304,5.7393,5.7663,5.8112,5.889,5.9488,5.9907,5.9488,5.9787,6.0775,6.1343,6.0505,5.8471,5.8112,0.0,0.0,0.0,0.0,0.0,0.0,0.0,0.0,0.0,0.0,0.0,0.0,0.0,0.0,0.0,0.0,0.0,0.0,0.0,0.0,0.0,0.0,0.0,0.0,0.0,0.0,0.0,0.0,0.0,0.0,0.0,0.0,0.0,0.0,0.0,0.0,0.0,0.0,0.0,0.0,0.0,0.0,0.0,0.0,0.0,0.0,0.0,0.0,0.0,0.0,0.0,0.0,0.0,0.0,0.0,0.0,0.0,0.0,0.0,0.0,0.0,0.0,0.0,6.4537,6.5718,6.688,6.7117,6.6981,6.6289,6.2144,5.9267,5.7504,5.6396,0.0,0.0,0.0,0.0,0.0,0.0,0.0,0.0,0.0,0.0,0.0,0.0,0.0,0.0,0.0,0.0,0.0,0.0,0.0,5.3264,5.3892,5.5688,5.6855,5.6855,5.868,5.9548,5.889,5.9458,5.9279,5.8052,5.853,5.862,5.8141,5.9338,5.9727,5.9249,5.9727,6.1164,6.3498,6.3588,6.3737,6.3797,5.9249,5.8471,6.0356,0.0,0.0,0.0,0.0,0.0,0.0,0.0,0.0,0.0,0.0,0.0,0.0,0.0,0.0,0.0,0.0,0.0,0.0,0.0,0.0,0.0,0.0,0.0,0.0,0.0,0.0,0.0,0.0,0.0,0.0,0.0,0.0,0.0,0.0,0.0,0.0,0.0,0.0,0.0,0.0,0.0,4.4825,4.4885,0.0,0.0,0.0,0.0,0.0,0.0,0.0,0.0,0.0,0.0,0.0,0.0,0.0,6.0465,6.2203,6.6263,6.795,6.7218,7.1176,7.2527,7.1548,7.2834,7.3713,7.4221,7.3548,0.0,6.0588,5.9119,0.0,0.0,0.0,0.0,0.0,0.0,0.0,0.0,0.0,0.0,0.0,0.0,0.0,0.0,0.0,0.0,0.0,0.0,0.0,0.0,0.0,5.6825,5.8231,5.8231,6.1403,6.251,6.0356,6.1523,6.1373,5.9308,5.9159,5.8979,5.868,5.9249,5.9757,6.0236,6.275,6.4366,6.5144,6.5892,6.6191,6.6011,6.3318,6.1942,6.1523,5.9428,0.0,0.0,0.0,0.0,0.0,0.0,0.0,0.0,0.0,0.0,0.0,0.0,0.0,0.0,0.0,0.0,0.0,0.0,0.0,0.0,0.0,0.0,0.0,0.0,0.0,0.0,0.0,0.0,0.0,0.0,0.0,0.0,0.0,0.0,0.0,0.0,0.0,0.0,0.0,4.689,4.8895,4.6681,4.8835,4.9644,0.0,0.0,0.0,0.0,0.0,0.0,0.0,0.0,0.0,6.3743,6.5383,6.703,6.8943,7.184,7.3375,7.3612,7.642,7.7638,7.7401,7.8077,7.8754,7.9431,7.9025,7.5743,7.0398,6.6779,6.326,5.9877,0.0,0.0,0.0,0.0,5.7509,5.849,0.0,0.0,0.0,0.0,0.0,0.0,0.0,0.0,0.0,0.0,0.0,0.0,5.5957,5.8381,6.0146,6.0805,6.4186,6.5233,6.278,6.3169,6.266,6.0685,5.9787,5.9368,5.9368,5.9847,6.0954,6.263,6.5892,6.7597,6.7807,6.8764,6.9064,6.8734,6.8076,6.6311,6.3737,6.1912,5.9967,5.7992,0.0,0.0,0.0,0.0,0.0,0.0,0.0,0.0,0.0,0.0,0.0,0.0,0.0,0.0,0.0,0.0,0.0,0.0,0.0,0.0,0.0,0.0,0.0,0.0,0.0,0.0,0.0,0.0,0.0,0.0,0.0,0.0,0.0,0.0,0.0,0.0,0.0,5.0002,5.23,4.9142,5.2453,5.3863,0.0,0.0,0.0,0.0,0.0,0.0,6.3124,6.4724,6.72,7.1007,7.1988,7.3341,7.5202,7.669,7.7976,7.9126,8.0412,8.1426,8.2137,8.2137,8.2441,8.2949,8.2374,8.0987,7.8686,7.3274,6.8639,6.4749,6.2888,6.167,6.1028,6.1637,6.1975,6.2448,0.0,0.0,0.0,0.0,0.0,0.0,0.0,0.0,0.0,0.0,0.0,5.3952,5.8411,6.0715,6.2959,6.5443,6.646,6.6879,6.67,6.3857,6.2121,6.2002,6.0745,6.0027,6.0027,6.1912,6.4126,6.67,6.8166,7.0171,7.2565,7.2624,7.2984,7.3522,7.2864,7.1098,6.8315,6.3258,6.2091,6.3258,5.9458,0.0,0.0,0.0,0.0,0.0,0.0,0.0,0.0,0.0,0.0,0.0,0.0,0.0,0.0,0.0,0.0,0.0,0.0,0.0,0.0,0.0,0.0,0.0,0.0,0.0,0.0,0.0,0.0,0.0,0.0,0.0,0.0,0.0,0.0,0.0,0.0,0.0,0.0,5.2798,5.8541,0.0,0.0,0.0,0.0,6.1231,6.2822,6.5447,6.9532,7.1131,7.3329,7.642,7.7908,7.9058,7.987,8.1325,8.2103,8.2205,8.2949,8.3727,8.4437,8.4437,8.4471,8.4505,8.4471,8.3592,8.1731,7.5777,7.1548,6.8538,6.5595,6.4005,6.3362,6.3396,6.3835,6.4377,0.0,0.0,0.0,0.0,0.0,4.9972,5.105,5.1229,5.1678,5.2995,5.4461,5.6795,6.0625,6.3917,6.643,6.7807,6.9692,6.9901,6.7747,6.5742,6.4216,6.3348,6.1253,6.0685,6.1972,6.3528,6.5832,6.8914,7.0649,7.2445,7.418,7.418,7.454,7.5198,7.4958,7.4061,7.2475,6.7597,6.4455,6.254,5.9847,5.8351,0.0,0.0,0.0,0.0,0.0,0.0,0.0,0.0,0.0,0.0,0.0,0.0,0.0,0.0,0.0,0.0,0.0,0.0,0.0,0.0,0.0,0.0,0.0,0.0,0.0,0.0,0.0,0.0,0.0,0.0,0.0,0.0,0.0,0.0,0.0,0.0,0.0,6.1599,6.4968,0.0,6.4205,6.4359,6.5535,6.7802,6.9334,7.1871,7.5743,7.6893,7.8585,8.1054,8.1663,8.2306,8.305,8.3558,8.3828,8.3828,8.4099,8.437,8.464,8.464,8.437,8.3896,8.3896,8.305,8.1494,7.8889,7.6048,7.3138,7.1109,6.9282,6.7861,6.8335,6.8402,6.8233,0.0,0.0,0.0,0.0,4.897,4.9374,5.069,5.0853,5.1528,5.3294,5.5598,5.871,6.2959,6.6729,6.9512,7.0859,7.2176,7.1876,6.9453,6.6819,6.5024,6.4366,6.245,6.2032,6.3348,6.5772,6.8196,7.062,7.2595,7.4031,7.4869,7.5108,7.5467,7.5916,7.6125,7.5976,7.5318,7.2026,6.8256,6.4216,6.2002,6.1253,6.107,0.0,0.0,0.0,0.0,0.0,0.0,0.0,0.0,0.0,0.0,0.0,0.0,0.0,0.0,0.0,0.0,0.0,0.0,0.0,0.0,0.0,0.0,0.0,0.0,0.0,0.0,0.0,0.0,0.0,0.0,0.0,0.0,0.0,0.0,6.0899,6.5385,6.8384,7.1059,7.2175,7.1047,7.0998,7.1848,7.3802,7.5303,7.7435,8.0445,8.1291,8.2374,8.3828,8.3862,8.4133,8.464,8.464,8.464,8.464,8.464,8.464,8.4606,8.437,8.3964,8.349,8.3253,8.2272,8.0885,8.0412,7.8416,7.5642,7.4897,7.3274,7.1345,7.1853,7.1413,7.0635,0.0,0.0,0.0,4.8177,4.8297,4.8716,4.9956,5.0196,5.1152,5.3832,5.5987,5.9488,6.5413,6.9034,7.2086,7.4719,7.3672,7.2565,7.1906,6.6879,6.4246,6.4934,6.4336,6.4066,6.4216,6.8645,7.1278,7.1996,7.3971,7.4899,7.4929,7.5587,7.5916,7.5946,7.6574,7.6844,7.6884,7.6215,7.341,6.9193,6.6281,6.5533,6.5922,0.0,0.0,0.0,0.0,0.0,0.0,0.0,0.0,0.0,0.0,0.0,0.0,0.0,0.0,0.0,0.0,0.0,0.0,0.0,0.0,0.0,0.0,0.0,0.0,0.0,0.0,0.0,0.0,0.0,0.0,0.0,0.0,0.0,6.0444,6.5752,7.0533,7.2845,7.6637,7.8266,7.6193,7.7401,7.8551,7.9178,8.0615,8.2035,8.3456,8.4234,8.464,8.464,8.464,8.464,8.464,8.464,8.464,8.464,8.4606,8.4606,8.4573,8.3795,8.3456,8.3389,8.2644,8.1528,8.0175,8.0107,7.8348,7.5777,7.6555,7.5473,7.3443,7.3443,7.2563,7.1312,0.0,0.0,4.7519,4.8177,4.8297,4.8566,4.9404,4.9942,5.0973,5.3174,5.7693,6.2421,6.6939,7.1218,7.445,7.6155,7.3343,7.1368,7.1188,6.5802,6.2929,6.3588,6.3857,6.5562,6.8944,7.0709,7.2654,7.4809,7.5347,7.5617,7.5617,7.5826,7.6155,7.6604,7.7263,7.8246,7.9298,7.7856,7.7704,7.7842,7.1283,6.8818,6.8741,0.0,0.0,0.0,0.0,0.0,0.0,0.0,0.0,0.0,0.0,0.0,0.0,0.0,0.0,0.0,0.0,0.0,0.0,0.0,0.0,0.0,0.0,0.0,0.0,0.0,0.0,0.0,0.0,0.0,0.0,0.0,6.2276,6.6395,6.6285,7.0632,7.549,7.9998,8.1935,8.2633,8.2012,8.3456,8.3551,8.1459,8.3342,8.4471,8.4336,8.4505,8.464,8.464,8.464,8.464,8.464,8.464,8.464,8.4553,8.4065,8.3795,8.3795,8.305,8.2408,8.1866,8.1122,8.0276,7.9329,7.8247,7.6961,7.5709,7.5946,7.4661,7.2699,7.2699,7.2124,7.1312,0.0,4.7309,4.7429,4.7818,4.7878,4.8087,4.879,4.9404,5.075,5.3294,5.88,6.3917,6.7567,7.2116,7.4958,7.5168,7.2565,7.032,6.8944,6.5383,6.3348,6.3468,6.5652,6.8286,7.1248,7.2505,7.418,7.6305,7.6036,7.6036,7.6305,7.6574,7.6904,7.7263,7.7921,7.88,7.962,7.8659,7.9614,8.1341,7.6335,7.4649,7.4665,7.0583,7.0285,7.1649,6.9501,6.8732,6.8487,6.7239,0.0,0.0,0.0,0.0,0.0,0.0,0.0,0.0,0.0,0.0,0.0,0.0,0.0,0.0,0.0,0.0,0.0,0.0,0.0,0.0,0.0,0.0,0.0,0.0,6.8045,7.3313,7.4217,7.6724,8.0153,8.4804,8.5448,8.5421,8.5364,8.6343,8.5982,8.3788,8.4964,8.5587,8.5148,8.4809,8.464,8.464,8.464,8.464,8.464,8.464,8.464,8.4606,8.3862,8.349,8.3456,8.2408,8.1528,8.0784,8.0073,7.916,7.8111,7.6893,7.5743,7.4796,0.0,0.0,0.0,0.0,7.1684,7.1312,0.0,4.7309,4.7309,4.7309,4.7309,4.7519,4.8177,4.888,5.0421,5.3683,5.9129,6.3947,6.7059,7.1427,7.3702,7.2774,7.1248,6.9093,6.6101,6.5353,6.4934,6.4695,6.8734,7.1427,7.2325,7.4151,7.5707,7.6933,7.6305,7.6335,7.6963,7.7532,7.7801,7.7831,7.8489,7.8933,7.9046,7.8861,7.991,8.1621,8.0594,8.0917,8.1584,7.6997,7.7123,7.9529,7.8118,7.5306,7.2265,7.2228,0.0,0.0,0.0,0.0,0.0,0.0,0.0,0.0,0.0,0.0,0.0,0.0,0.0,0.0,0.0,0.0,0.0,0.0,0.0,0.0,0.0,0.0,0.0,0.0,7.4223,8.031,8.2712,8.2983,8.4167,8.7583,8.7516,8.7089,8.6834,8.7034,8.6784,8.5843,8.5817,8.5892,8.579,8.5046,0.0,0.0,0.0,8.464,8.464,8.464,8.4573,8.4505,8.3727,8.3321,8.3186,8.1799,8.0818,8.0175,7.9431,7.8314,7.6961,7.6082,7.4762,7.3409,7.4018,7.3443,7.2191,7.1548,7.1312,7.1312,0.0,4.7309,4.7309,4.7309,4.7309,4.7519,4.8177,4.888,5.0318,5.3025,5.7633,6.1523,6.3767,6.7178,6.9842,7.1188,6.8645,6.646,6.5293,6.5114,6.6161,6.8704,7.0679,7.2774,7.5078,7.6006,7.6844,7.7622,7.6963,7.6993,7.7622,7.7741,7.7801,7.7831,7.8489,7.9587,8.0825,7.9374,8.0618,8.3283,8.0287,8.0612,8.2727,8.0624,7.9458,7.8574,7.601,7.5636,7.5771,7.2346,7.0806,6.9751,6.6106,6.2851,0.0,0.0,0.0,0.0,0.0,0.0,0.0,0.0,0.0,0.0,0.0,0.0,0.0,0.0,0.0,0.0,0.0,0.0,0.0,7.2085,7.7798,8.2983,8.6433,8.6399,8.6535,8.7854,8.8395,8.8149,8.6711,8.783,8.7789,8.5658,8.622,8.6433,8.5824,8.5046,8.464,8.464,8.464,8.464,8.464,8.464,8.4302,8.3693,8.2983,0.0,8.1697,8.0818,8.031,8.0175,7.9431,7.8619,7.7671,7.6284,7.4492,7.2563,7.2124,7.1785,7.1515,7.1379,7.1312,7.1312,0.0,4.7309,4.7309,4.7309,4.7309,4.7429,4.7758,4.8356,4.9613,5.1887,5.5658,5.889,6.0864,6.3438,6.5144,6.5473,6.3677,6.3109,6.4425,6.5443,6.7627,7.1278,7.3013,7.4839,7.6814,7.7173,7.7652,7.831,7.7652,7.7652,7.831,7.831,7.831,7.834,7.8998,7.9562,8.0051,7.9551,8.0819,8.2996,8.0948,8.1686,8.384,8.1525,8.0521,7.9957,7.8175,7.7461,7.7038,7.4467,7.2958,7.1509,6.8137,6.538,6.271,0.0,0.0,0.0,0.0,0.0,0.0,0.0,0.0,0.0,0.0,0.0,0.0,0.0,0.0,5.804,6.0901,0.0,7.2091,7.6088,8.1221,8.5182,8.667,8.755,8.7989,8.7989,8.8328,8.7732,8.5578,8.6829,8.7112,8.5492,8.5533,8.5862,8.6311,8.5249,8.464,8.464,8.464,8.464,8.464,8.464,8.4437,8.4065,8.2949,8.2205,8.1799,8.0682,7.9803,7.9058,7.872,7.7908,7.6724,7.5202,7.351,7.1819,7.1447,7.1312,7.1312,7.1312,7.1312,7.1312,0.0,4.7309,4.7309,4.7309,4.7309,4.7339,4.7489,4.8057,4.9134,5.096,5.3892,5.6406,5.7992,5.9817,6.0625,5.9787,5.9697,6.1074,6.4366,6.646,6.9333,7.3313,7.5288,7.6814,7.7981,7.7861,7.813,7.8789,7.813,7.813,7.8789,7.8938,7.8998,7.9028,7.9716,7.9686,7.9208,7.9627,8.0676,8.2064,8.1387,8.2249,8.3641,8.1127,8.0795,8.1507,8.0744,7.8749,7.6453,7.6011,7.3938,7.1138,6.9401,6.7669,6.5574,6.21,6.0595,0.0,0.0,0.0,0.0,0.0,0.0,0.0,0.0,0.0,5.5508,5.7663,5.9315,6.1838,6.653,7.1068,7.5342,7.9222,8.3695,8.6535,8.6061,8.7414,8.8226,8.7651,8.7955,8.7228,8.4555,8.5657,8.6064,8.5013,8.4498,8.4929,8.6343,8.5256,8.464,8.464,8.464,8.464,8.464,8.464,8.4471,8.4167,8.2983,8.2272,8.1934,8.075,7.9532,7.8382,7.7942,7.6893,7.5371,7.3883,7.2496,7.1312,7.1312,7.1312,7.1312,7.1312,7.1312,7.1312,0.0,4.7309,4.7309,4.7309,4.7309,4.7489,4.8087,4.8745,4.9643,5.102,5.3084,5.4521,5.473,5.5987,5.7244,5.8261,6.0446,6.3169,6.643,6.8525,7.1427,7.5407,7.6874,7.7921,7.8669,7.81,7.813,7.8789,7.813,7.813,7.8789,7.9417,7.9716,7.9746,8.0405,8.0644,8.0554,8.0045,8.0282,8.0908,8.0248,8.0152,8.0327,7.999,8.0486,8.1279,8.0008,7.6915,7.3455,7.3967,7.24,7.0317,7.1212,6.9766,6.7302,6.5084,0.0,5.9488,5.6795,5.4341,5.3324,5.6555,5.5777,5.5867,0.0,0.0,6.1822,6.4395,6.6934,6.9096,7.0413,7.4797,7.8979,8.1416,8.4099,8.6129,8.6704,8.6433,8.6129,8.6027,8.7753,8.7766,8.4705,8.5657,8.558,8.3444,8.39,8.4398,8.4606,8.4588,8.464,8.464,8.464,8.464,8.464,8.464,8.3964,8.2644,8.2509,8.1731,8.0445,8.0276,8.0107,7.9837,7.7874,7.6149,7.4627,7.3138,7.2056,7.1312,7.1312,7.1312,7.1312,7.1312,7.1312,7.1312,0.0,0.0,4.7309,4.7309,4.7309,4.7399,4.7668,4.8267,4.9045,4.9972,5.1139,5.1989,5.2426,5.2965,5.3653,5.461,5.7453,6.0924,6.4994,6.8226,7.1906,7.6245,7.7322,7.81,7.8789,7.8519,7.8519,7.8789,7.8519,7.8519,7.8789,7.9088,7.9447,7.9836,8.0494,8.0794,8.0823,8.0913,8.1123,8.1302,8.0644,8.0405,8.0255,7.9088,7.7725,7.6355,7.5778,7.3949,0.0,7.0739,6.9991,6.9572,7.05,6.9482,6.7657,6.6071,6.3528,0.0,5.7094,5.6196,5.6526,5.7812,5.9009,6.0894,6.4725,6.5263,6.5592,6.7837,7.0109,7.2322,7.4375,7.7151,8.0085,8.2936,8.4266,8.5236,8.6155,8.5202,8.3832,8.2218,8.3068,8.3794,8.3746,8.4068,8.3789,8.2426,8.2665,8.304,8.3688,8.4298,8.464,8.464,8.464,8.4403,8.3964,8.3964,8.3422,8.2408,8.1968,8.1426,8.0818,8.0412,7.9735,7.8822,7.6995,7.5337,7.3883,7.2834,7.1988,7.1312,7.1312,7.1312,7.1312,7.1312,7.1312,7.1312,0.0,0.0,0.0,4.7309,4.7309,4.7309,4.7309,4.8027,4.876,4.9239,5.0002,5.0644,5.1169,5.1229,5.1498,5.2127,5.488,5.8471,6.2899,6.6939,7.1128,7.5557,7.6904,7.7861,7.8519,7.8699,7.8789,7.8789,7.8789,7.8789,7.8789,7.8998,7.9447,8.0105,8.0764,8.1183,8.1362,8.1661,8.1901,8.1991,8.1123,8.0584,7.9986,7.7622,7.4809,7.2116,7.2086,7.053,6.8315,6.7238,6.6849,6.7029,6.8226,6.7956,6.6909,6.5592,6.3079,6.0086,5.7214,5.7752,5.9219,5.9638,6.2181,6.5084,6.7148,6.7986,6.8914,7.0889,7.2445,7.4165,7.6462,7.7953,7.9593,8.221,8.29,8.3348,8.4065,8.2633,8.082,7.8812,7.8298,7.8816,8.0688,8.1327,8.1219,8.0328,8.0998,8.1772,8.255,8.3877,8.464,8.464,8.464,8.437,8.3828,8.3592,8.3118,8.2408,8.1629,8.119,8.0953,8.0445,7.9397,7.7908,7.6589,7.5067,7.3443,7.2699,7.1988,7.1312,7.1312,7.1312,7.1312,7.1312,7.1312,7.1278,0.0,0.0,0.0,0.0,4.7309,4.7309,4.7309,4.8416,4.9299,4.9299,5.0391,5.1199,5.1229,5.1229,5.1498,5.2127,5.4072,5.6944,6.0954,6.4904,6.8854,7.2864,7.5497,7.7173,7.7831,7.846,7.8789,7.8789,7.8789,7.8789,7.8789,7.9477,8.0135,8.0794,8.1452,8.211,8.2649,8.205,8.214,8.2619,8.1332,8.0016,7.8489,7.5258,7.2385,7.0081,7.0021,6.6729,6.254,6.3707,6.2899,6.1792,6.4366,6.5144,0.0,6.3558,6.0356,5.7214,5.7094,5.8052,5.9877,6.3019,6.4904,6.6969,7.0829,7.1727,7.2295,7.43,7.4779,7.5117,7.5806,7.669,7.76,7.8316,7.9321,7.9989,7.9986,7.8281,7.6965,7.6869,7.4638,7.3656,7.4952,7.718,7.7842,7.6193,7.8995,8.0733,8.0795,8.3195,8.464,8.464,8.464,8.4606,8.4606,8.3862,8.3118,8.2408,8.1629,8.0919,8.0242,8.0209,7.9397,7.7942,7.7198,7.5574,7.3443,7.2699,7.1988,7.1312,7.1312,7.1312,7.1312,7.1312,7.1312,7.121,0.0,0.0,0.0,0.0,0.0,4.7459,4.7908,4.8327,4.882,4.9239,5.0391,0.0,0.0,0.0,0.0,0.0,5.3384,5.5837,5.8919,6.281,6.64,6.9482,7.3013,7.4988,7.5198,7.6724,7.7502,7.7502,7.7502,7.7502,7.7502,7.816,7.8849,7.9507,8.0165,8.0853,8.1452,8.1212,8.1003,8.0644,7.8878,7.7652,7.6514,7.3163,6.9453,6.5832,0.0,6.266,6.0685,6.0236,5.9668,5.9428,6.1194,6.1433,6.0745,5.9009,5.877,5.8979,5.853,6.0685,6.3737,6.661,6.8615,7.059,7.3253,7.3881,7.3941,7.418,7.3522,7.2954,7.3193,7.3153,7.3937,7.6668,7.768,7.8691,8.0288,7.8592,7.6179,7.3537,7.1927,0.0,6.911,7.2644,7.5211,7.546,7.7328,7.8943,8.0001,8.1984,8.3476,8.4553,8.464,8.4167,8.3152,8.2915,8.2171,8.0953,8.0682,8.0445,8.0175,7.9701,7.8923,7.7874,7.6149,7.4661,7.3375,7.2191,7.1548,7.1312,7.1312,7.1312,7.1312,7.1312,7.1312,7.121,0.0,0.0,0.0,0.0,0.0,0.0,0.0,0.0,0.0,0.0,0.0,0.0,0.0,0.0,0.0,0.0,0.0,5.4401,5.6585,5.9757,6.272,6.5413,6.8645,7.059,7.1068,7.2535,7.3432,7.3672,7.3911,7.4151,7.439,7.5048,7.5946,7.7053,7.7502,7.834,7.9357,7.9148,7.8669,7.7861,7.5617,7.3911,7.2295,6.8495,6.4755,0.0,5.9069,5.8141,5.7842,5.7004,5.6735,5.6915,5.7992,5.8052,5.7513,5.6466,5.8022,6.0146,6.0446,6.3588,6.7298,6.9482,7.1517,7.3283,7.4569,7.451,7.3911,7.3013,7.1398,6.9991,6.9512,6.8525,6.9052,7.2853,7.3593,7.474,7.7932,7.6742,7.4687,7.2359,7.1225,7.0001,0.0,0.0,7.3374,7.4053,7.5854,7.7778,7.9681,8.133,8.2942,8.4553,8.464,8.4031,8.2813,8.2543,8.1663,8.0209,8.0209,8.0209,8.0175,7.9431,7.8551,7.7502,7.5743,7.4289,7.3037,7.209,7.1548,7.1312,7.1312,7.1312,7.1312,7.1312,7.1142,7.0804,0.0,0.0,0.0,0.0,0.0,0.0,0.0,0.0,0.0,0.0,0.0,0.0,0.0,0.0,0.0,0.0,0.0,0.0,5.4012,5.5897,5.8112,6.0715,6.275,6.4425,6.5682,6.646,6.7119,6.7717,6.8405,6.9064,6.9692,7.035,7.1667,7.3492,7.3522,7.4569,7.6275,7.5707,7.5048,7.418,7.1577,6.9004,6.6251,6.1762,5.88,5.6705,5.4221,5.3683,5.4162,5.4192,5.4251,5.4431,5.4999,5.5269,5.5478,5.6256,5.8321,6.0835,6.2929,6.6759,7.047,7.1757,7.3522,7.4899,7.4809,7.3732,7.2355,7.0889,6.8465,6.6191,0.0,0.0,6.3258,6.7238,6.7508,6.8824,7.3402,7.3181,7.2705,0.0,0.0,0.0,0.0,0.0,0.0,7.2059,7.4663,7.7371,7.9771,8.1388,8.2942,8.4553,8.4573,8.42,8.3456,8.2678,8.1596,8.0209,8.0209,8.0175,8.0107,7.9397,7.828,7.686,7.6014,7.4424,7.2462,7.2428,7.1988,7.1312,7.1312,7.1312,7.1312,7.1312,7.0872,7.0128,0.0,0.0,0.0,0.0,0.0,0.0,0.0,0.0,0.0,0.0,0.0,0.0,0.0,0.0,0.0,0.0,0.0,0.0,5.2665,5.4102,5.5478,5.6645,5.9997,6.1762,6.1613,6.3677,6.4605,6.4336,6.4964,6.5353,6.5562,6.67,6.7537,6.8046,6.8525,6.9034,6.9482,6.9333,6.8884,6.8076,6.5922,6.4366,6.3049,6.0386,5.8141,5.6316,5.5658,5.4551,5.3533,5.4042,5.485,5.5628,5.5299,5.6196,5.7812,5.9967,6.245,6.5144,6.8106,7.1218,7.3821,7.4659,7.5258,7.5258,7.3762,7.2026,6.9931,6.7119,6.3647,6.0715,0.0,0.0,0.0,6.5802,6.8824,0.0,7.5557,7.5811,0.0,7.3224,0.0,7.3205,7.1827,7.261,0.0,7.3722,7.5457,7.7943,8.1407,8.1968,8.2942,8.4553,8.4065,8.3422,8.2712,8.1393,8.0581,8.0209,8.0209,7.9904,7.9363,7.8619,7.7773,7.6826,7.5473,7.4255,7.3172,7.2631,7.1988,7.1312,7.1312,7.1312,7.1312,7.1312,7.1176,7.0838,0.0,0.0,0.0,0.0,0.0,0.0,0.0,0.0,0.0,0.0,0.0,0.0,0.0,0.0,0.0,0.0,0.0,0.0,0.0,5.2486,5.3174,5.3832,5.6017,5.7154,5.7064,5.88,5.9817,6.0057,6.0655,6.1283,6.1882,6.263,6.3288,6.3887,6.4246,6.4725,6.5263,6.4964,6.4455,0.0,0.0,6.0326,5.9279,5.7274,5.5628,5.4401,5.4102,5.4042,5.4251,0.0,0.0,5.7154,5.7962,5.9578,6.1613,6.3977,0.0,6.9123,7.1547,7.4151,7.6125,7.5946,7.5677,7.4629,7.1457,6.9213,6.661,6.2421,5.886,5.6107,5.476,5.5359,5.7782,0.0,0.0,0.0,7.5318,7.6538,7.65,0.0,7.6083,0.0,7.4634,7.4917,7.5483,7.6175,7.5683,7.6743,7.9857,8.0766,8.1853,8.3476,8.3847,8.349,8.2408,8.1257,8.0513,8.0209,8.0209,7.9803,7.9092,7.8348,7.7401,7.6318,7.5134,7.4018,7.2969,7.2563,7.1988,7.1312,7.1312,7.1312,7.1312,7.1312,7.1109,7.0669,0.0,0.0,0.0,0.0,0.0,0.0,0.0,0.0,0.0,0.0,5.1379,0.0,0.0,0.0,0.0,0.0,0.0,0.0,0.0,0.0,5.1558,5.2067,5.2247,5.2546,5.3054,5.3803,5.473,5.5777,5.6406,5.7304,5.8471,5.853,5.9219,6.0326,6.0326,6.0954,6.2002,6.1433,6.0864,6.0176,5.8441,5.7004,5.5718,0.0,5.2785,5.2127,5.1558,5.2845,5.5179,0.0,5.874,5.9458,6.1972,6.4216,6.637,6.8525,7.0829,7.2984,7.442,7.6485,7.7891,7.6485,7.5437,7.3522,6.8794,6.5981,6.2869,5.7543,0.0,5.2247,5.093,5.1439,5.4072,6.0236,0.0,6.7537,7.43,7.6368,7.742,7.8098,7.8878,7.9153,7.8549,7.7881,7.7751,7.8356,7.5709,7.5056,7.7517,7.9219,8.0793,8.2326,8.3603,8.3659,8.2272,8.1528,8.0818,8.0209,8.0107,7.9667,7.8923,7.8179,7.7063,7.5676,7.4931,7.3815,7.2529,7.2428,7.1988,7.1312,7.1312,7.1312,7.1312,7.1312,7.0838,7.0094,0.0,0.0,0.0,0.0,0.0,0.0,0.0,0.0,0.0,0.0,5.2247,5.1229,0.0,0.0,0.0,0.0,0.0,0.0,0.0,0.0,0.0,5.1409,5.2426,5.2815,5.2366,5.3563,5.4042,5.3683,5.4371,5.482,5.5059,5.5628,5.5987,5.6226,5.6226,5.6346,5.6555,5.6436,5.6316,5.6196,5.5837,5.5239,5.4461,5.3533,0.0,0.0,5.2067,5.2336,5.3533,5.883,6.2032,6.4096,6.5652,6.8256,7.1308,7.439,7.6006,7.7203,7.9088,7.9926,7.9836,7.7951,7.5766,7.2714,6.7537,6.3558,0.0,0.0,5.1379,4.9599,4.8237,4.9853,5.3713,6.0775,6.4126,6.8525,7.6215,7.7094,7.7114,0.0,7.8231,7.8486,7.8393,7.7739,0.0,7.7522,7.5814,7.611,7.9187,8.0885,8.2217,8.3235,8.2927,8.2374,8.1494,8.075,8.031,8.0175,7.96,7.8889,7.8145,7.7435,7.6589,7.5676,7.4931,7.4119,7.324,7.2665,7.1988,7.1312,7.1312,7.1312,7.1312,7.1312,7.0838,7.0094,0.0,0.0,0.0,0.0,0.0,0.0,0.0,5.1815,5.2725,5.6735,5.6436,5.5059,5.2995,5.2157,5.1738,0.0,0.0,0.0,0.0,0.0,0.0,0.0,5.2845,5.3025,5.2725,5.3683,5.4221,5.4221,0.0,5.491,5.5239,5.5209,5.5179,5.5179,5.5179,5.5179,5.5179,5.5179,5.5179,5.5179,5.5179,5.479,5.4132,0.0,0.0,0.0,0.0,0.0,5.3952,5.853,6.251,6.6071,6.9123,7.2325,7.5407,7.7711,7.8849,7.9716,8.1362,8.1811,8.1242,7.8908,7.5557,7.1218,6.4904,0.0,0.0,0.0,4.8895,4.8057,4.7429,4.9464,0.0,5.7244,6.0176,6.4545,7.2146,7.3223,0.0,7.7442,7.7642,7.7487,0.0,7.6642,7.6033,7.6033,7.5354,7.5624,7.7157,7.8784,8.0631,8.2776,8.213,8.1805,8.1866,8.1122,8.0378,7.9634,7.9295,7.8517,7.7401,7.7063,7.6454,7.5676,7.4931,7.4187,7.3443,7.2699,7.1988,7.1312,7.1312,7.1312,7.1312,7.1312,7.0838,7.0094,0.0,0.0,0.0,0.0,0.0,0.0,5.4491,5.4401,5.5598,6.0505,6.0894,5.9368,5.5867,5.4281,5.3114,0.0,0.0,0.0,0.0,0.0,0.0,0.0,0.0,0.0,0.0,0.0,0.0,5.5179,5.5179,0.0,0.0,0.0,0.0,0.0,5.5179,5.5179,5.5179,5.5179,5.5179,0.0,0.0,5.488,0.0,0.0,0.0,0.0,0.0,0.0,0.0,0.0,6.1373,6.5473,6.9692,7.4151,7.8041,7.9238,8.0464,8.1691,8.2858,8.3068,8.232,7.9686,7.5108,6.9482,6.266,5.7723,0.0,4.8297,4.7309,4.7309,4.7309,4.8985,5.1229,0.0,5.6166,6.0296,6.7747,6.9692,7.2146,0.0,7.7143,0.0,7.6814,7.5766,0.0,7.4899,7.4869,7.5074,7.5422,7.6931,7.9124,8.1853,8.1556,8.1609,8.2171,8.1257,8.0242,7.9126,7.8788,7.801,7.6893,7.6724,7.6284,7.5642,7.4762,7.4052,7.3409,7.2529,7.1819,7.1312,7.1312,7.1312,7.1312,7.1312,7.0838,7.0094,0.0,0.0,0.0,0.0,0.0,0.0,5.4491,5.5598,5.7992,6.3797,6.3528,6.1972,5.9787,5.8381,5.6137,0.0,0.0,0.0,0.0,0.0,0.0,0.0,0.0,0.0,0.0,0.0,0.0,5.5179,5.5179,0.0,0.0,0.0,0.0,0.0,0.0,5.5179,5.5179,5.5179,0.0,0.0,0.0,0.0,0.0,0.0,0.0,0.0,0.0,0.0,0.0,0.0,0.0,6.1104,6.3947,7.0799,7.7951,7.8669,0.0,0.0,8.4325,8.4085,8.3008,8.0375,7.445,6.7837,6.2361,0.0,0.0,4.8027,4.7309,4.7309,4.7309,4.7519,4.9105,0.0,0.0,5.9099,6.6969,7.0201,7.3043,7.6514,0.0,0.0,7.6814,7.6215,7.5557,7.4929,7.4869,7.5557,7.6996,7.8659,8.0086,8.1186,8.1879,8.1981,8.1393,8.0006,7.9228,7.9092,7.7739,7.7029,7.6893,7.6149,7.5777,7.5608,7.4187,7.3544,7.3375,7.1988,7.1379,7.1312,7.1312,7.1312,7.1312,7.1312,7.0838,7.0161,0.0,0.0,0.0,0.0,0.0,0.0,5.4999,5.5329,5.7393,6.4156,6.5263,6.4665,6.266,6.2331,5.9877,5.3922,0.0,0.0,0.0,0.0,0.0,0.0,0.0,0.0,0.0,0.0,5.5179,5.5179,5.5179,0.0,0.0,0.0,0.0,0.0,0.0,0.0,5.5179,5.5179,0.0,0.0,0.0,0.0,0.0,0.0,0.0,0.0,0.0,0.0,0.0,0.0,0.0,0.0,5.8351,6.3139,0.0,0.0,7.7592,8.0764,8.3397,8.4504,8.4175,8.1153,7.436,6.7119,6.2241,0.0,5.0301,4.7818,4.7309,4.7309,4.7309,4.7309,4.7908,0.0,0.0,0.0,5.88,6.0954,6.4545,7.1846,7.3043,0.0,0.0,0.0,7.6185,7.5557,7.5108,7.518,7.5863,7.7419,7.9176,8.103,8.1006,8.1043,8.1291,7.9837,7.8889,7.8416,7.7401,7.6657,7.6149,7.4968,7.4649,7.4918,7.2997,7.2438,7.2687,7.0837,7.0528,7.1176,6.949,6.9346,6.9949,6.9121,6.9148,6.9543,0.0,0.0,0.0,0.0,0.0,5.0002,5.5119,5.5598,5.7633,6.3887,6.5892,6.6101,6.4485,6.3857,6.1523,5.6406,5.5478,0.0,0.0,0.0,0.0,0.0,0.0,0.0,0.0,0.0,5.5748,5.5748,5.5748,5.5658,0.0,0.0,0.0,0.0,0.0,0.0,0.0,0.0,0.0,0.0,0.0,0.0,0.0,0.0,0.0,0.0,0.0,0.0,0.0,0.0,0.0,0.0,0.0,0.0,6.0685,0.0,7.3462,7.7442,8.1003,8.3217,8.3846,8.0943,7.3762,6.6281,0.0,0.0,4.9434,4.7668,4.7309,4.7309,4.7309,4.7309,4.7309,4.7309,0.0,4.8835,5.3533,5.5269,5.9009,0.0,0.0,7.0889,7.5347,7.6245,7.6365,7.5946,7.5258,7.5112,7.5594,7.67,7.7936,7.9315,7.9324,7.933,7.9322,7.8484,7.7716,7.7027,7.6288,7.5549,7.4728,7.3518,7.2988,7.2974,7.139,7.0865,7.1028,6.932,6.9169,6.9902,6.7957,6.7774,6.8503,6.7521,6.7774,6.8585,0.0,0.0,0.0,0.0,0.0,0.0,5.4491,5.6855,5.9518,6.3498,6.5173,6.5772,6.5084,6.2091,6.0116,6.0027,5.7064,0.0,0.0,0.0,0.0,0.0,0.0,0.0,0.0,0.0,5.7064,5.7064,5.7064,5.6765,5.6218,5.6218,5.5807,5.5179,0.0,0.0,0.0,0.0,0.0,0.0,0.0,0.0,5.5119,0.0,0.0,0.0,0.0,0.0,0.0,0.0,0.0,0.0,0.0,5.1738,5.3982,6.26,6.9303,7.451,7.7143,7.9806,8.1332,7.9327,7.2355,6.5173,0.0,0.0,4.894,4.7578,4.7309,4.7309,4.7309,4.7309,4.7309,4.7309,4.8386,0.0,5.3743,5.6436,5.9368,0.0,0.0,6.664,7.059,7.3971,7.5916,7.5916,7.5258,7.5624,7.716,7.729,7.667,7.5274,7.6851,7.6758,7.4701,7.5375,7.5378,7.4705,7.398,7.3305,7.2612,7.1798,7.0674,6.9434,6.9329,6.8944,6.8292,6.7503,6.7215,6.7215,6.7215,6.7215,6.7215,6.7215,6.7215,6.7419,0.0,0.0,0.0,0.0,0.0,0.0,0.0,5.2037,5.4162,5.8141,5.9787,6.1403,6.3468,6.1134,5.9608,6.0057,5.7094,0.0,0.0,0.0,0.0,0.0,0.0,0.0,0.0,5.7094,5.7334,5.7812,5.7812,5.7693,5.7513,5.7513,5.6915,5.5867,5.5867,5.5598,0.0,0.0,0.0,0.0,0.0,5.5179,5.5119,0.0,0.0,0.0,0.0,0.0,0.0,0.0,0.0,0.0,0.0,0.0,0.0,5.6436,6.2151,6.7508,6.9273,7.1996,7.3642,7.0769,6.5622,6.0535,5.7723,0.0,4.894,4.7578,4.7309,4.7309,4.7309,4.7309,4.7758,4.9105,4.9673,0.0,0.0,0.0,0.0,6.3258,7.0051,7.4749,0.0,7.6185,7.6365,7.5946,7.5258,7.5112,7.5594,7.5661,7.602,7.6883,7.7393,7.6667,7.4612,7.4323,7.3834,7.3177,7.1981,7.127,7.1043,6.9287,6.8577,6.8624,6.7562,6.7291,6.7432,6.6248,6.6365,6.701,6.5142,6.4978,6.562,6.4734,6.4978,6.5835,0.0,0.0,0.0,0.0,0.0,0.0,0.0,4.9853,5.1588,5.4311,5.5837,5.7992,6.1553,5.9129,5.8022,5.9907,5.7094,0.0,0.0,0.0,0.0,0.0,0.0,0.0,5.7842,5.7842,5.8441,5.9638,5.9877,5.9877,5.9638,5.9877,5.874,5.6526,5.6526,5.6017,0.0,0.0,0.0,0.0,5.5478,5.5418,5.5149,0.0,0.0,0.0,0.0,0.0,0.0,0.0,0.0,0.0,0.0,0.0,0.0,0.0,5.6316,6.0535,6.3378,6.637,6.8136,6.5832,6.1972,5.8112,0.0,0.0,4.894,4.7578,4.7309,4.7309,4.7309,4.7309,4.7698,4.888,4.9089,0.0,0.0,0.0,0.0,6.3797,7.1368,0.0,7.5258,7.6185,7.6455,7.5587,7.5108,7.4869,7.4869,7.4869,7.5189,7.5901,7.5901,7.4776,7.2523,7.258,7.2142,7.1249,7.011,6.9413,6.916,6.7229,6.638,6.6308,6.5596,6.543,0.0,6.4734,6.4868,6.549,6.3732,6.3592,6.4265,6.3394,6.3498,6.4144,0.0,0.0,0.0,0.0,0.0,0.0,0.0,4.9853,5.1319,5.1977,5.3174,5.5448,5.9249,5.6346,5.5658,5.9398,0.0,0.0,0.0,0.0,0.0,0.0,0.0,0.0,5.9099,5.9099,6.0057,6.2032,6.269,6.272,6.2181,6.278,6.1014,5.7304,5.7214,5.6436,5.5239,0.0,0.0,0.0,5.5867,5.5748,0.0,0.0,0.0,0.0,0.0,0.0,0.0,0.0,0.0,0.0,0.0,0.0,0.0,0.0,0.0,0.0,0.0,6.2271,6.4006,6.3288,6.0296,5.7064,5.5209,5.1887,0.0,4.7578,4.7309,4.7309,4.7369,4.7339,4.7369,4.7549,4.7578,0.0,0.0,5.4012,0.0,0.0,6.9662,7.2056,7.1248,7.4599,7.6275,7.4988,7.4869,7.4869,7.4869,7.4839,7.424,7.2954,7.2834,7.1547,6.9034,7.0343,7.0356,6.8965,6.8285,6.7631,6.6951,6.5493,6.4216,6.3109,6.3677,6.3617,6.3079,6.3079,6.3079,6.3079,6.3079,6.3079,6.3079,6.3079,6.2747,6.2656,0.0,0.0,0.0,0.0,0.0,0.0,0.0,0.0,0.0,0.0,5.1362,5.2875,5.5329,5.4281,5.4221,0.0,0.0,0.0,0.0,0.0,0.0,0.0,0.0,0.0,5.9099,5.9099,5.9847,6.1343,6.2002,6.251,6.2839,6.3019,6.1762,5.9338,5.8321,5.6885,5.5209,5.5359,0.0,0.0,5.5359,5.5329,0.0,0.0,0.0,0.0,5.4281,5.3862,0.0,0.0,0.0,0.0,0.0,0.0,0.0,0.0,5.1439,5.1947,5.3204,0.0,5.5688,5.4521,5.3096,5.1858,0.0,4.9553,4.8297,4.7489,4.7309,4.7459,4.7967,4.7638,4.7967,4.9972,5.0301,5.087,5.2486,5.8919,0.0,7.1846,7.5288,7.6305,7.4151,7.5707,7.6275,7.4988,7.4869,7.4869,7.4869,7.439,7.3762,7.2954,7.1906,7.062,6.9004,6.9321,6.8573,6.6733,6.6069,6.5375,6.4739,6.3912,6.3378,6.3079,6.3228,6.3199,6.3079,6.3079,6.3079,6.3079,6.3079,6.3079,6.3079,6.3079,6.3641,6.4395,0.0,0.0,0.0,0.0,0.0,0.0,0.0,0.0,0.0,0.0,5.0631,5.1738,5.3144,5.2965,0.0,0.0,0.0,0.0,0.0,0.0,0.0,0.0,0.0,5.9099,5.9099,5.9099,6.0057,6.2002,6.266,6.3318,6.3977,6.4276,6.2869,5.9997,5.8082,5.6645,5.5658,5.5658,5.5478,5.5209,5.5508,0.0,0.0,0.0,0.0,0.0,5.4221,5.3773,0.0,5.3563,5.3414,5.3054,0.0,0.0,0.0,0.0,5.1229,5.1229,5.1229,5.1738,5.2127,5.1409,5.096,5.0421,4.9539,4.903,4.8476,4.7489,4.7309,4.7429,4.7758,4.7549,4.7967,5.0002,5.0571,0.0,0.0,0.0,6.8764,7.3821,7.6215,7.6904,7.5497,7.5976,7.5976,7.4958,7.4869,7.4869,7.4869,7.424,7.3582,7.2924,7.1607,7.029,6.9004,6.8675,6.7687,6.6011,6.5353,6.4665,6.3977,6.3348,6.3079,6.3079,6.3079,6.3079,6.3079,6.3079,6.3079,6.3079,6.3079,6.3079,6.3049,6.272,6.2902,6.3226,0.0,0.0,0.0,0.0,0.0,0.0,0.0,0.0,0.0,0.0,0.0,0.0,0.0,0.0,0.0,0.0,0.0,0.0,0.0,0.0,0.0,0.0,5.8201,5.8949,5.9249,5.9069,6.0266,6.2929,6.3767,6.4545,6.5353,6.6011,6.4126,6.0146,5.7812,5.6555,5.6218,5.6128,5.5718,5.5239,5.5807,0.0,0.0,0.0,0.0,0.0,0.0,0.0,0.0,5.3832,5.3982,5.3773,5.3084,0.0,0.0,0.0,0.0,0.0,5.1409,5.1528,5.1468,5.1259,5.1229,5.09,4.9703,4.9299,4.8805,4.7698,4.7369,4.7339,4.7429,4.7698,4.8297,4.9569,5.087,5.4401,6.2061,6.6281,6.9961,7.3762,7.5377,7.6066,7.5766,7.5856,7.5617,7.4929,7.4869,7.4839,7.4719,7.4091,7.3432,7.2774,7.1368,7.0051,6.8854,6.8166,6.7148,6.5862,6.5173,6.4515,6.3827,6.3318,6.3079,6.3079,6.3079,6.3079,6.3079,6.3079,6.3079,6.3079,6.3079,6.3079,6.3019,6.245,6.2051,6.181,0.0,0.0,0.0,0.0,0.0,0.0,0.0,0.0,0.0,0.0,0.0,0.0,0.0,0.0,0.0,0.0,0.0,0.0,0.0,0.0,0.0,5.7064,5.7304,5.8201,5.9907,5.883,5.9578,6.2241,6.4006,6.5503,6.67,6.7358,6.5263,6.0894,5.9907,5.8261,5.6188,5.5568,5.5269,5.5209,5.5299,0.0,0.0,0.0,0.0,0.0,0.0,0.0,0.0,5.3114,5.2965,5.2396,5.1738,0.0,0.0,0.0,0.0,0.0,5.2276,5.2875,5.2606,5.1498,5.1229,5.102,5.0226,4.9224,4.8386,4.8177,4.7698,4.7489,4.8027,4.9494,5.087,5.1618,5.5598,6.0775,6.7059,6.9871,7.2355,7.5258,7.6724,7.6874,7.5198,7.5557,7.5617,7.4929,7.4869,7.4629,7.4061,7.3432,7.2744,7.2056,7.026,6.8914,6.8136,6.7478,6.649,6.5173,6.4485,6.3827,6.3228,6.3109,6.3079,6.3079,6.3079,6.3079,6.3079,6.3079,6.3079,6.3079,6.3079,6.3079,6.3079,6.2959,6.3577,6.4483,0.0,0.0,0.0,0.0,0.0,0.0,0.0,0.0,0.0,0.0,0.0,0.0,0.0,0.0,0.0,0.0,0.0,0.0,0.0,0.0,5.6555,5.862,5.7663,5.8022,6.0057,6.0565,6.1912,6.4216,6.6191,6.7657,6.8525,6.67,6.4336,6.1553,5.9428,5.7603,5.6188,5.5478,5.5179,5.5179,0.0,0.0,0.0,0.0,0.0,0.0,0.0,0.0,0.0,0.0,5.2456,5.2157,5.1858,0.0,0.0,0.0,0.0,0.0,5.0797,5.1319,5.1708,5.2157,5.2845,5.2815,5.0674,4.9763,4.9254,4.8895,4.8297,4.8267,4.9613,5.1498,5.3982,5.7513,6.1613,6.5562,6.9004,7.1188,7.3163,7.5108,7.5856,7.6006,7.5497,7.5377,7.5228,7.4899,7.454,7.421,7.3911,7.2924,7.2056,7.1368,6.9453,6.8136,6.7448,6.6071,6.5084,6.4485,6.4156,6.3677,6.3079,6.3079,6.3079,6.3079,6.3079,6.3079,6.3079,6.3079,6.3079,6.3079,6.3079,6.3079,6.3019,6.266,6.2483,6.2415,0.0,0.0,0.0,0.0,0.0,0.0,0.0,0.0,0.0,0.0,0.0,0.0,0.0,0.0,0.0,0.0,0.0,0.0,0.0,5.5029,5.6226,5.9039,5.8291,5.9009,6.1642,6.275,6.4635,6.7388,6.9243,7.047,7.1009,6.7178,6.4455,6.263,5.9458,5.7423,5.6346,5.5688,5.5329,5.5179,0.0,0.0,0.0,0.0,0.0,0.0,0.0,0.0,0.0,0.0,0.0,0.0,0.0,0.0,0.0,4.9956,4.9434,4.9179,4.9629,5.0212,5.1109,5.2755,5.3832,5.4102,5.2587,5.19,5.1558,5.1379,5.081,5.0661,5.1738,5.4072,5.7723,6.3528,6.7089,6.9692,7.1308,7.2984,7.442,7.5437,7.5437,7.5497,7.5856,7.5288,7.4869,7.4869,7.427,7.3821,7.3672,7.2385,7.1368,7.0709,6.8764,6.7418,6.6759,6.4934,6.4006,6.4006,6.3857,6.3528,6.3079,6.3079,6.3079,6.3079,6.3079,6.3079,6.3079,6.2899,6.2839,6.2839,6.2839,6.2929,6.2989,6.2331,6.1343,6.0326,0.0,0.0,0.0,0.0,0.0,0.0,0.0,0.0,0.0,0.0,0.0,0.0,0.0,0.0,0.0,0.0,0.0,0.0,0.0,5.461,5.494,5.6406,5.865,6.1942,6.64,6.4814,6.64,7.1457,7.2864,7.3881,7.445,7.1098,6.7867,6.4695,6.2032,5.9428,5.7004,5.6376,5.5748,5.5179,5.5179,0.0,0.0,0.0,0.0,0.0,0.0,0.0,0.0,0.0,0.0,0.0,0.0,0.0,5.0016,4.8805,4.8386,4.8745,5.0571,5.1558,5.2247,5.2995,5.2785,5.3473,5.7543,5.7064,5.6077,5.7244,5.6944,5.5957,5.4311,5.7633,6.2361,6.7717,7.0829,7.3432,7.5976,7.6963,7.7502,7.7592,7.7053,7.6485,7.5946,7.5288,7.4869,7.4869,7.427,7.3642,7.3013,7.1697,7.0679,7.0051,6.8106,6.6759,6.6071,6.4695,6.4006,6.3977,6.3408,6.3109,6.3079,6.3079,6.3079,6.3079,6.3079,6.3079,6.3019,6.2421,6.2181,6.2181,6.2181,6.254,6.2989,6.2331,6.1642,6.1044,0.0,0.0,0.0,0.0,0.0,0.0,0.0,0.0,0.0,0.0,0.0,0.0,0.0,0.0,0.0,0.0,0.0,0.0,0.0,5.497,5.5777,5.7902,5.8949,6.1463,6.5682,6.8256,7.1517,7.5557,7.6485,7.6036,7.418,7.0051,6.637,6.3079,6.0446,5.868,5.7663,5.6615,5.6496,5.6915,5.5688,5.5448,0.0,0.0,0.0,0.0,0.0,0.0,0.0,0.0,5.0913,5.0524,5.0255,4.9673,4.9015,4.8925,4.8327,4.7938,4.9075,5.0451,5.1858,5.2905,5.3922,5.5239,5.7363,5.7932,5.8471,6.0236,6.0715,6.0715,6.0356,6.275,6.5832,6.9064,7.2505,7.5108,7.6125,7.7143,7.7652,7.7263,7.6634,7.6155,7.5916,7.5288,7.4719,7.43,7.3672,7.2804,7.1727,7.044,6.9243,6.8166,6.658,6.5443,6.4755,6.3857,6.3438,6.3438,6.3199,6.3079,6.3079,6.3079,6.3079,6.3079,6.3079,6.2839,6.245,6.2181,6.1852,6.1523,6.1942,6.251,6.2989,6.2331,6.1672,6.1044,0.0,0.0,0.0,0.0,0.0,0.0,0.0,0.0,0.0,0.0,0.0,0.0,0.0,0.0,0.0,0.0,0.0,0.0,5.5179,5.4999,5.5777,5.7782,5.8471,6.0655,6.4605,6.9692,7.3791,7.6874,7.8579,7.7532,7.3821,7.0021,6.6819,6.4126,6.0835,5.9608,5.9847,5.7932,5.7483,5.7962,5.6196,5.5777,0.0,0.0,0.0,0.0,0.0,0.0,0.0,0.0,5.0734,5.0166,5.0002,4.9314,4.8626,4.894,4.8327,4.7668,4.7908,4.9105,5.0661,5.2187,5.4072,5.6256,5.8979,6.0475,6.2032,6.4635,6.4395,6.4006,6.5054,6.6191,6.7717,6.9871,7.3432,7.5976,7.6185,7.6933,7.7263,7.6604,7.6155,7.5826,7.5587,7.4958,7.439,7.3941,7.2894,7.1876,7.0949,6.9303,6.7956,6.7029,6.5503,6.4485,6.4006,6.3378,6.3079,6.3079,6.3079,6.3079,6.3079,6.3079,6.3079,6.3079,6.2869,6.251,6.2061,6.1642,6.1194,6.0835,6.1283,6.1882,6.2391,6.1942,6.1373,6.0715,0.0,0.0,0.0,0.0,0.0,0.0,0.0,0.0,0.0,0.0,0.0,0.0,0.0,0.0,0.0,0.0,0.0,0.0,5.5119,5.4551,5.4491,5.5149,5.7034,5.9937,6.3827,6.8465,7.2146,7.4899,7.8819,7.837,7.3791,7.1787,7.0171,6.8734,6.4156,6.281,6.3767,6.0505,5.874,5.8022,5.6705,5.6248,5.6047,0.0,0.0,0.0,0.0,0.0,0.0,0.0,5.0734,5.0076,4.9464,4.9299,4.9179,4.8476,4.8297,4.8147,4.7489,4.7818,4.8775,5.075,5.2785,5.6166,6.3408,6.5562,6.7148,7.1098,6.8286,6.5682,6.7657,6.7478,6.7897,7.047,7.3702,7.6125,7.6724,7.6814,7.6604,7.5976,7.5886,7.5617,7.4929,7.427,7.3881,7.3881,7.2026,7.0889,7.0859,6.8405,6.6969,6.6969,6.5024,6.3977,6.3977,6.3378,6.3079,6.3079,6.3079,6.3079,6.3079,6.3079,6.3079,6.3019,6.2361,6.2091,6.1972,6.0625,6.0086,6.0086,6.0086,6.0505,6.1104,6.1104,6.0685,6.0086,0.0,0.0,0.0,0.0,0.0,0.0,0.0,0.0,0.0,0.0,0.0,0.0,0.0,0.0,0.0,0.0,0.0,0.0,5.3803,5.3593,5.3563,5.3773,5.5239,5.6615,5.7782,6.2331,6.8495,7.6245,7.6993,7.4749,6.9722,6.9123,6.7148,6.4156,6.4156,6.3348,6.1852,5.9907,5.9249,5.9338,5.7543,5.6825,5.6675,0.0,0.0,0.0,0.0,0.0,0.0,0.0,0.0,0.0,4.8775,4.894,4.9179,4.8476,4.8626,4.888,4.8177,4.9134,5.084,5.2815,5.6226,6.0475,6.5862,6.6879,6.8226,7.3612,7.2116,7.0021,7.062,7.0201,6.9991,7.0769,7.3313,7.5258,7.5437,7.5886,7.5946,7.5258,7.4779,7.442,7.421,7.3582,7.2804,7.1846,7.1248,7.0111,6.8256,6.6969,6.5862,6.4904,6.3887,6.3348,6.3348,6.3169,6.3079,6.3079,6.3079,6.2839,6.2391,6.2391,6.2121,6.1672,6.1493,6.1134,6.0625,5.9757,5.9668,6.0086,6.0086,6.0505,6.1044,6.0565,6.0266,6.0027,0.0,0.0,0.0,0.0,0.0,0.0,0.0,0.0,0.0,0.0,5.1887,5.2516,0.0,0.0,0.0,0.0,0.0,0.0,5.3204,5.3174,5.3294,5.3593,5.4102,5.5119,5.6705,6.1283,6.6071,7.0979,7.2176,7.056,6.643,6.8555,6.8136,6.5682,6.7926,6.7328,6.4545,6.2929,6.1553,6.0326,5.859,5.7723,5.7393,0.0,0.0,0.0,0.0,0.0,0.0,0.0,0.0,0.0,4.8087,4.8177,4.8416,4.8027,4.8177,4.8506,4.8626,4.9912,5.2007,5.5329,5.886,6.2839,6.7956,7.0051,7.2056,7.6185,7.451,7.2445,7.2984,7.1876,7.1068,7.1607,7.3492,7.4869,7.4869,7.5228,7.5258,7.4569,7.4151,7.3791,7.3522,7.2654,7.1787,7.0949,6.9931,6.8645,6.7059,6.5862,6.4844,6.4036,6.3408,6.3079,6.3079,6.3079,6.2959,6.269,6.269,6.2211,6.1313,6.1852,6.1732,6.1104,6.0835,6.0326,5.9668,5.9279,5.9338,5.9727,5.9997,6.0176,6.0296,6.0146,5.9907,5.9638,0.0,0.0,4.7399,4.7399,0.0,0.0,0.0,0.0,0.0,0.0,5.1319,5.2127,0.0,0.0,0.0,0.0,0.0,0.0,0.0,5.2995,5.3324,5.4012,5.3653,5.5239,5.9009,6.3109,6.4066,6.1732,6.5622,6.6221,6.3857,6.9153,7.1278,7.0739,7.3343,7.2684,6.9482,6.7298,6.4246,6.0835,5.9608,5.868,5.7962,5.7334,0.0,0.0,0.0,0.0,0.0,0.0,0.0,0.0,4.7519,4.7399,4.7459,4.7339,4.7399,4.7758,4.912,5.0391,5.2695,5.8112,6.1283,6.4545,7.0081,7.4151,7.7083,7.819,7.5647,7.3552,7.4749,7.2954,7.1667,7.2894,7.4091,7.4869,7.4869,7.4839,7.4569,7.3971,7.3732,7.3402,7.2804,7.1517,7.0679,7.056,6.8345,6.6909,6.6729,6.4994,6.3947,6.3827,6.3288,6.2959,6.2899,6.2899,6.26,6.2002,6.2002,6.1343,6.0116,6.1343,6.1553,6.0894,6.0266,5.9668,5.9099,5.9099,5.9099,5.9159,5.9757,5.9638,5.9189,5.9787,5.9608,5.9099,0.0,0.0,4.8087,4.8087,0.0,0.0,0.0,0.0,0.0,0.0,0.0,0.0,0.0,0.0,0.0,0.0,0.0,0.0,0.0,5.1648,5.1947,5.2606,5.4491,5.6645,5.9069,5.9039,5.9009,5.8979,6.245,6.3318,6.1852,6.7148,6.9243,6.8704,7.0799,6.9931,6.664,6.3079,6.0775,5.9518,5.9219,5.8381,5.7304,5.7154,5.5478,0.0,0.0,0.0,0.0,0.0,0.0,0.0,4.7668,4.8027,4.8626,4.7608,4.8027,4.9134,5.0451,5.1768,5.4281,6.0625,6.643,7.1338,7.418,7.5497,7.6036,7.5766,7.5467,7.5347,7.5617,7.4779,7.4121,7.442,7.4689,7.4869,7.4869,7.442,7.4061,7.3911,7.2505,7.1487,7.1338,7.0171,6.8974,6.7926,6.7298,6.6311,6.4725,6.4246,6.3528,6.254,6.2361,6.2061,6.1553,6.1523,6.1463,6.1313,6.1313,6.0894,6.0086,6.0386,6.0146,5.9518,5.9368,5.9249,5.9099,5.9099,5.9099,5.9129,5.9249,5.9219,5.9129,5.9249,5.9219,5.9099,0.0,0.0,0.0,0.0,0.0,0.0,0.0,0.0,0.0,0.0,0.0,0.0,0.0,0.0,0.0,0.0,0.0,0.0,0.0,0.0,5.1947,5.3563,5.5867,5.7423,5.8141,5.7782,5.7304,5.6705,5.877,6.0057,6.0745,6.5712,6.8375,6.9034,7.1637,7.026,6.5862,6.3468,6.1164,5.9069,5.877,5.8201,5.7543,5.7214,5.5688,5.3623,5.3294,0.0,0.0,0.0,0.0,0.0,0.0,0.0,4.8207,4.7519,4.7788,4.8745,5.069,5.2875,5.6496,6.4395,7.0141,7.4121,7.5168,7.5168,7.4839,7.448,7.5198,7.5916,7.5916,7.5347,7.4779,7.445,7.442,7.43,7.3971,7.3642,7.3193,7.2535,7.1278,7.0201,6.9572,6.8315,6.7268,6.658,6.5922,6.5114,6.4066,6.3408,6.278,6.2121,6.1792,6.1463,6.1104,6.1104,6.0954,6.0625,6.0625,6.0266,5.9608,5.9608,5.9428,5.9099,5.877,5.88,5.9069,5.877,5.883,5.9099,5.9099,5.9099,5.9099,5.9099,5.9099,5.9099,0.0,0.0,0.0,0.0,0.0,0.0,0.0,0.0,0.0,0.0,0.0,0.0,0.0,0.0,0.0,0.0,0.0,0.0,0.0,0.0,0.0,5.5089,5.6855,5.7723,5.7603,5.7842,5.7214,5.5688,5.6137,5.7842,6.0864,6.5024,6.8166,7.041,7.2684,7.0889,6.6071,6.4515,6.1942,5.889,5.8231,5.7872,5.7723,5.7154,5.5718,5.3952,5.3384,5.2336,5.102,4.9823,0.0,0.0,0.0,0.0,4.7459,4.7339,4.7309,4.7878,5.0511,5.4221,5.9368,6.7717,7.2116,7.439,7.451,7.4121,7.3702,7.3582,7.454,7.5377,7.5377,7.4929,7.436,7.3821,7.3612,7.3343,7.2804,7.2565,7.1936,7.0709,6.9931,6.8974,6.7747,6.655,6.5802,6.5652,6.4635,6.3947,6.3857,6.272,6.2061,6.1942,6.1283,6.0894,6.0775,6.0775,6.0475,5.9907,5.9787,5.9518,5.9099,5.886,5.883,5.889,5.8231,5.8321,5.889,5.8231,5.8351,5.8919,5.88,5.883,5.8949,5.8949,5.9009,5.9099,0.0,0.0,0.0,0.0,0.0,0.0,0.0,0.0,0.0,0.0,5.0764,5.1229,0.0,0.0,0.0,0.0,0.0,0.0,0.0,0.0,0.0,5.5089,5.5987,5.7453,5.9638,5.8082,5.7393,5.7723,5.7214,5.9189,6.3528,6.5892,6.8645,7.1547,6.9722,6.8136,6.652,6.1253,5.874,5.8201,5.7513,5.6915,5.6406,5.6316,5.5059,5.3294,5.3204,5.2336,5.1109,5.0315,5.0016,0.0,0.0,0.0,4.8027,4.7489,4.7309,4.7878,5.0511,5.6585,6.3288,6.7956,7.0709,7.2445,7.3043,7.3103,7.2864,7.2265,7.2774,7.3313,7.3313,7.3253,7.3163,7.3073,7.2535,7.2116,7.2026,7.1068,7.0081,6.9333,6.8166,6.7089,6.634,6.5592,6.4904,6.4306,6.4096,6.3767,6.3228,6.251,6.1822,6.1253,6.0565,5.9937,5.9368,5.9368,5.9338,5.9219,5.865,5.865,5.9069,5.7902,5.7693,5.8231,5.7513,5.7633,5.8201,5.7513,5.7633,5.8201,5.7603,5.7723,5.8261,5.8261,5.862,5.9099,0.0,0.0,0.0,0.0,0.0,0.0,0.0,0.0,0.0,0.0,0.0,5.1229,0.0,0.0,0.0,5.1229,0.0,0.0,0.0,0.0,0.0,5.4581,5.491,5.5777,5.7304,5.6466,5.5987,5.5927,5.6705,6.0236,6.6251,6.7537,6.9662,7.2325,6.9303,6.7208,6.5562,6.0715,5.8231,5.7483,5.6825,5.6615,5.6615,5.5897,5.5299,5.47,5.3593,5.2815,5.2097,5.0674,5.0196,5.0016,4.9134,0.0,0.0,0.0,4.7608,4.8297,5.2785,5.7363,6.1972,6.67,6.9093,7.044,7.1128,7.0979,7.0649,7.032,6.9901,7.0051,7.1517,7.1787,7.1667,7.1338,7.0709,7.0141,6.9752,6.8884,6.8076,6.7388,6.649,6.5622,6.4934,6.4306,6.3797,6.3498,6.3498,6.3378,6.3079,6.2121,6.1403,6.1134,6.0086,5.9398,5.9099,5.874,5.8351,5.7962,5.7693,5.7693,5.7962,5.7004,5.7154,5.8052,5.7034,5.6944,5.7483,5.6855,5.7184,5.8082,5.7782,5.8082,5.868,5.868,5.886,5.9099,0.0,0.0,0.0,0.0,0.0,0.0,0.0,0.0,0.0,0.0,0.0,0.0,0.0,0.0,0.0,0.0,5.1229,0.0,0.0,0.0,0.0,5.3653,5.3713,5.4102,5.491,5.494,5.479,5.4461,5.6406,6.1074,6.8256,6.9273,7.1787,7.5258,7.1248,6.8106,6.5533,6.1732,5.9638,5.871,5.7064,5.6585,5.6795,5.6166,5.5807,5.5538,5.4371,5.3623,5.2935,5.1289,5.0704,5.0601,4.9763,4.9075,0.0,0.0,0.0,4.8386,5.3324,5.5987,5.853,6.3498,6.6011,6.7508,0.0,0.0,6.8435,6.8286,6.7448,6.7298,6.9093,6.9692,6.9752,6.9303,6.8675,6.8046,6.7537,6.6909,6.6251,6.5562,6.5054,6.4515,6.3827,6.3348,6.3079,6.3079,6.3079,6.3019,6.2839,6.1732,6.1044,6.0864,5.9727,5.9009,5.886,5.8201,5.7603,5.7094,5.6944,5.6944,5.7064,5.6286,5.6555,5.7573,5.6406,5.6286,5.6825,5.6428,5.6825,5.7872,5.7872,5.8261,5.886,5.886,5.8949,5.9099,0.0,0.0,0.0,0.0,0.0,0.0,0.0,0.0,0.0,0.0,0.0,0.0,5.1229,5.1229,5.1229,5.1229,5.1229,5.1229,5.1229,5.1259,0.0,5.2276,5.2306,0.0,5.4221,5.4251,5.4551,5.5149,5.7094,6.1792,6.9004,7.0889,7.5527,8.1991,7.6185,7.1427,6.7597,6.4276,6.3169,6.3258,5.883,5.6705,5.6346,5.7513,5.6436,5.4461,5.5598,5.479,5.3084,5.2336,5.2097,5.1887,5.0554,4.9733,4.9149,0.0,0.0,0.0,4.9897,5.1528,5.3533,5.7573,6.0535,6.2959,0.0,0.0,6.6909,6.6281,6.6101,6.5922,6.5413,6.637,6.7178,6.7148,6.658,6.6161,6.6131,6.5533,6.4874,6.4186,6.4066,6.3797,6.3199,6.3109,6.3079,6.3079,6.3079,6.281,6.2181,6.1493,6.0805,6.0146,5.9458,5.88,5.8171,5.7483,5.7124,5.7094,5.6496,5.6526,5.7064,5.5807,5.5628,5.6226,5.5538,5.5628,5.6226,5.6248,5.6555,5.7154,5.7154,5.7573,5.8171,5.8171,5.856,5.9099,0.0,0.0,0.0,0.0,0.0,0.0,0.0,0.0,0.0,0.0,0.0,0.0,0.0,5.1229,5.1229,5.1229,5.1229,5.1229,5.1229,5.1229,0.0,5.1558,5.1977,5.2217,5.2276,5.3563,5.3892,5.3264,5.5688,5.9937,6.5862,6.8704,7.2116,7.5736,7.4031,7.2235,7.0171,6.4755,6.2091,6.1283,5.877,5.7872,5.7872,5.6226,5.5807,5.5897,5.47,5.4072,5.3743,5.3054,5.2546,0.0,0.0,0.0,0.0,0.0,4.8117,4.8356,5.0331,0.0,0.0,5.5359,5.7573,5.9069,5.9787,6.1642,6.3169,6.2929,6.2869,6.3049,6.3677,6.4844,6.5742,6.5742,6.5173,6.4725,6.4725,6.4186,6.3677,6.3438,6.3408,6.3318,6.3109,6.3079,6.3079,6.3079,6.269,6.2331,6.2121,6.1044,6.0326,6.0086,5.9039,5.7962,5.6885,5.6615,5.6286,5.5867,5.5658,5.5658,5.5867,5.5388,5.5329,5.5538,5.5299,5.5329,5.5538,5.5538,5.5927,5.6526,5.6944,5.7513,5.8171,5.859,5.889,5.9099,0.0,0.0,0.0,5.1379,0.0,5.0794,5.0554,5.0345,5.0255,5.0495,0.0,0.0,0.0,0.0,5.1798,5.1558,5.1349,5.1229,5.1229,5.1229,5.1229,5.1229,5.1858,5.2007,5.1558,5.3294,5.3773,5.2875,5.5299,5.8949,6.3737,6.664,6.9632,7.2535,7.1427,7.1427,7.1936,6.7119,6.4276,6.2839,6.0176,5.9398,5.9608,5.8082,5.7752,5.7932,5.6645,5.5748,5.497,5.3623,5.2725,0.0,0.0,0.0,0.0,0.0,0.0,0.0,4.9942,0.0,0.0,0.0,5.467,5.5418,5.6526,5.8171,5.9518,5.9727,6.0116,6.0775,6.1882,6.2989,6.3857,6.4306,6.3977,6.3677,6.3677,6.3318,6.3079,6.3079,6.2869,6.275,6.275,6.254,6.2421,6.2421,6.2002,6.1672,6.1433,6.0356,5.9548,5.9099,5.8022,5.7064,5.6248,5.6008,5.5628,5.5179,5.5179,5.5179,5.5179,5.5179,5.5179,5.5179,5.5179,5.5179,5.5209,5.5418,5.5897,5.6526,5.7184,5.7872,5.8501,5.8949,5.9099,5.9099,5.1079,5.2247,5.2755,5.1468,5.1768,5.2007,5.1379,5.0674,5.0495,5.1199,0.0,0.0,0.0,0.0,0.0,5.2396,5.1738,5.1319,5.1259,5.1229,5.1229,5.1229,0.0,0.0,5.2187,5.3533,5.4221,5.4192,5.6107,5.9039,6.2929,6.4934,6.8615,7.3373,6.8974,6.9123,7.2624,7.1218,6.9961,6.8465,6.3199,6.1164,6.1463,6.3169,6.2301,6.0356,6.1583,5.9967,5.6855,5.4281,0.0,0.0,0.0,0.0,0.0,0.0,0.0,0.0,0.0,0.0,0.0,0.0,5.1618,5.2007,5.5209,5.6068,5.6226,5.6825,5.8022,5.9159,5.9877,6.0535,6.1433,6.275,6.2989,6.3019,6.3019,6.3019,6.3019,6.3019,6.245,6.2061,6.2061,6.1493,6.1104,6.1104,6.1074,6.0775,6.0086,5.9428,5.8441,5.7124,5.6466,5.6188,5.6158,5.5478,5.5149,5.5149,5.5179,5.5179,5.5179,5.5179,5.5179,5.5179,5.5179,5.5179,5.5239,5.5867,5.6496,5.7124,5.7812,5.8501,5.9069,5.9099,5.9099,5.9099,5.0524,5.1558,5.2366,5.2007,5.2067,5.2306,5.2606,5.2067,5.1887,0.0,0.0,0.0,5.3593,5.5508,5.6466,5.5807,5.5179,5.3982,5.2067,5.1498,5.1229,5.1229,5.2306,5.2695,5.2217,5.3982,5.4431,5.3473,5.497,5.6526,5.8141,6.1104,6.3767,6.6131,6.7208,6.7777,6.7747,6.4994,6.4994,6.646,6.2121,6.2361,6.4964,6.1194,6.1074,6.272,6.1194,6.0685,6.0535,5.9308,5.7842,5.6137,0.0,0.0,0.0,0.0,0.0,0.0,4.9284,0.0,0.0,0.0,0.0,0.0,5.0361,5.1947,5.3354,5.3503,5.461,5.6047,5.7633,5.8082,5.865,5.9997,6.1014,6.1642,6.1642,6.1642,6.1642,6.1642,6.1493,6.1373,6.1373,6.1224,6.1104,0.0,6.0206,5.9578,5.9398,5.8291,5.7274,5.6436,5.5807,5.5239,5.476,5.4581,5.4491,5.4491,5.497,5.5179,5.5179,5.5179,5.5179,5.5179,5.5179,5.5179,5.5209,5.5388,5.5837,5.6496,5.7124,5.7812,5.8471,5.8919,5.9099,5.9099,4.9912,5.1558,5.3025,5.3025,5.3952,5.47,5.479,5.4281,5.3982,0.0,0.0,0.0,5.6077,5.8351,5.9279,5.8052,5.6855,5.5388,5.3563,5.2576,5.2037,5.2037,5.3054,5.3294,5.2636,5.4311,5.467,5.3623,5.467,5.5538,5.6278,5.8411,6.0146,6.1493,6.3408,6.4156,6.3827,6.1613,6.2421,6.5024,6.3258,6.4336,6.6729,6.4366,6.4725,6.6281,6.4755,6.4156,6.3887,6.2121,5.9817,0.0,0.0,0.0,0.0,0.0,0.0,0.0,0.0,0.0,0.0,0.0,0.0,0.0,4.876,4.9464,5.0152,5.0152,5.1229,5.2576,5.3982,5.467,5.5388,5.6466,5.7752,5.9039,6.0116,6.0505,6.0595,6.0296,6.0027,5.9877,5.9877,5.9608,5.9548,5.9847,5.9129,5.856,5.8291,5.7004,5.6017,5.5388,5.47,5.4162,5.3773,5.3773,5.3773,5.3773,5.4162,5.4491,5.479,5.479,5.494,5.5179,5.5179,5.5179,5.5179,5.5179,5.5718,5.6585,5.6944,5.7693,5.859,5.8949,5.9099,5.9099,0.0,5.1977,5.4192,5.4491,5.6585,5.8112,5.7723,5.7064,5.6727,0.0,5.6555,5.7304,6.0027,6.1702,6.1882,6.0027,5.7932,5.6316,5.5359,5.4042,5.3264,5.3174,5.3922,5.4012,5.3324,5.461,5.497,5.4311,5.491,5.5538,5.6248,5.6795,5.7782,5.9009,5.9069,5.9817,6.0954,6.0416,6.1583,6.3917,6.5323,6.652,6.7657,6.9871,7.053,7.029,7.0111,6.8944,6.7029,6.3647,6.0356,0.0,0.0,0.0,0.0,0.0,5.3982,0.0,0.0,0.0,0.0,0.0,5.0331,0.0,4.912,4.8297,4.7489,4.7339,4.8297,4.9344,5.0002,5.1139,5.2187,5.2845,5.4102,5.5867,5.8411,5.9338,5.9548,5.8949,5.8351,5.8022,5.8022,5.7453,5.7363,5.7962,5.7932,5.7573,5.6825,5.5688,5.479,5.4132,5.3443,5.3084,5.3084,5.3084,5.3084,5.3084,5.3144,5.3503,5.4102,5.4192,5.4521,5.5089,5.5149,5.5179,5.5209,5.5269,5.6017,5.7094,5.7094,5.7932,5.9099,5.9099,5.9099,5.9099,5.0631,5.2217,5.4042,5.6166,5.7842,5.9428,6.0894,6.0086,5.9907,6.1523,6.254,6.4336,6.7508,6.6759,6.5652,6.4755,6.1912,5.8949,5.6166,5.473,5.3773,5.3204,5.4341,5.47,5.4012,5.5299,5.5658,5.4999,5.5119,5.5538,5.6248,5.6795,5.7543,5.8351,5.886,5.9548,6.0326,6.0745,6.1523,6.263,6.4485,6.7208,7.0081,6.9572,7.059,7.2206,7.1098,7.0799,7.035,6.652,6.3408,6.0835,0.0,0.0,0.0,5.6376,0.0,0.0,0.0,0.0,0.0,0.0,0.0,0.0,4.8805,4.8686,4.8566,4.7519,4.7938,4.8686,4.9344,5.0092,5.0794,5.1498,5.2725,5.4311,5.6436,5.7274,5.7633,5.7513,5.7363,5.7304,5.7304,5.7184,5.7154,5.7304,5.6825,5.6017,5.485,5.4551,5.4102,5.3414,5.2725,5.2396,5.2396,5.2396,5.2396,5.2396,5.2935,5.3264,5.3384,5.3952,5.4281,5.4431,5.497,5.5179,5.5239,5.5777,5.6406,5.7094,5.7094,5.7932,5.9099,5.9099,5.9099,5.9099,5.0554,5.2606,5.491,5.7214,5.9249,6.1373,6.3707,6.3199,6.3258,6.5263,6.7238,6.8465,6.8495,6.8495,6.7687,6.5682,6.3109,6.0625,5.8291,5.6885,5.5867,5.5149,5.5777,5.5987,5.5658,5.6286,5.6466,5.6137,5.6137,5.6496,5.7154,5.7453,5.7603,5.7663,5.9009,5.9398,5.9219,6.0894,6.1792,6.2391,6.5682,6.8196,7.0111,7.1427,7.2744,7.3791,7.3133,7.2445,7.1278,6.7328,6.4934,0.0,6.0446,5.868,5.7752,0.0,5.7423,5.6137,0.0,0.0,0.0,5.3443,0.0,0.0,0.0,4.9015,4.8416,4.71,4.68,4.689,4.7219,4.7848,4.8462,4.9164,5.0092,5.1319,5.2995,5.4311,5.5029,5.47,5.467,5.467,5.467,5.494,5.5418,5.6107,5.5568,5.5059,5.473,5.3743,5.3054,5.2695,5.2067,5.1708,5.1708,5.1708,5.1708,5.1708,5.2037,5.2366,5.2725,5.3384,5.3892,5.4251,5.491,5.5179,5.5239,5.5897,5.6526,5.7124,5.7483,5.8231,5.9099,5.9099,5.9099,5.9099,5.0524,5.2875,5.5448,5.7573,6.0146,6.275,6.5233,6.5293,6.5772,6.7897,7.0231,7.0799,6.8405,6.9123,6.8824,6.637,6.3438,6.1523,6.1074,5.9219,5.7693,5.6765,5.7334,5.7304,5.6555,5.7154,5.7363,5.7094,5.7094,5.7453,5.8112,5.8112,5.7962,5.7723,5.9099,5.9398,5.9009,6.0924,6.2091,6.3019,6.7298,6.8854,6.9034,7.3013,7.448,7.454,7.4779,7.3672,7.1517,6.7837,6.5981,6.4605,6.1014,5.9608,0.0,0.0,0.0,0.0,0.0,0.0,0.0,0.0,0.0,5.3384,0.0,0.0,0.0,4.7296,0.0,0.0,0.0,0.0,0.0,4.7219,0.0,0.0,0.0,5.105,0.0,5.2007,5.1798,5.1738,5.1977,5.2486,5.3264,5.4341,5.4042,5.4012,5.4401,5.2995,5.2097,5.1828,5.1439,5.1169,5.0973,5.1169,5.1229,5.1229,5.1229,5.1498,5.2037,5.2815,5.3503,5.4042,5.485,5.5179,5.5239,5.5897,5.6526,5.7154,5.7842,5.853,5.9099,5.9099,5.9099,5.9099,5.1738,5.2755,5.4221,5.6765,5.9428,6.1912,6.3917,6.4695,6.5951,6.8555,7.0141,7.1338,7.2146,7.038,6.9423,7.0171,6.4156,6.1493,6.4276,6.0475,5.7304,5.5478,5.8201,5.8112,5.461,5.7393,5.8291,5.7094,5.7094,5.7453,5.8112,5.8112,5.871,5.9697,5.877,5.9578,6.1583,6.0685,6.2002,6.4934,6.7837,6.8286,6.7657,7.1637,7.3133,7.3283,7.445,7.3971,7.2385,0.0,6.7418,6.5503,0.0,6.1403,6.0206,6.1493,0.0,0.0,0.0,0.0,0.0,0.0,5.6765,0.0,0.0,0.0,5.1379,5.0016,0.0,0.0,0.0,0.0,0.0,0.0,0.0,0.0,4.7698,4.7818,4.8805,5.105,5.0301,5.0062,5.1199,5.1409,5.1498,5.1648,5.2127,5.2217,5.1708,5.2007,5.1678,5.0435,5.096,5.0883,5.0315,5.0883,5.1229,5.1229,5.1229,5.1259,5.1379,5.2606,5.3234,5.3354,5.464,5.5179,5.5239,5.5897,5.6526,5.7154,5.7842,5.853,5.9099,5.9099,5.9099,5.9099,5.087,5.2217,5.3892,5.6166,5.8112,6.0416,6.3528,6.7178,6.9871,7.059,7.2804,7.4569,7.5108,7.2834,7.1338,7.1487,6.6969,6.4186,6.4425,6.1912,0.0,5.868,5.9937,5.9907,5.8261,5.9159,5.9608,5.9428,5.9009,5.9189,5.9847,5.9847,5.9727,5.9518,5.9757,6.0266,6.0984,6.1553,6.2839,6.4665,6.7328,6.8076,6.8016,7.2385,7.4061,7.4121,7.4689,7.4031,7.2565,0.0,6.8226,0.0,0.0,0.0,0.0,0.0,0.0,0.0,0.0,0.0,0.0,0.0,0.0,0.0,5.5867,0.0,5.3084,0.0,0.0,0.0,0.0,0.0,0.0,0.0,4.7219,0.0,0.0,0.0,4.6262,0.0,0.0,0.0,4.9972,5.0092,5.0242,5.0584,5.0571,5.0541,5.0614,5.0853,5.0631,4.9703,5.069,5.09,5.0196,5.0853,5.1229,5.1229,5.1618,5.1798,5.1828,5.3174,5.3773,5.3832,5.479,5.5179,5.5239,5.5897,5.6526,5.7154,5.7842,5.853,5.9099,5.9099,5.9099,5.9159,5.0331,0.0,5.3204,5.5029,5.6436,5.865,6.26,6.7059,7.0231,7.0979,7.3193,7.5228,7.6664,7.4988,7.3911,7.433,7.0649,6.7807,6.652,6.4216,6.2121,6.0356,6.1164,6.1134,6.0027,6.0416,6.0805,6.1104,6.0625,6.0625,6.1104,6.1104,6.0685,5.9967,6.0954,6.1403,6.1553,6.3199,6.4545,6.5832,6.8136,6.9363,7.0201,7.3193,7.4569,7.4869,7.4659,7.3881,7.2624,7.0649,6.8884,0.0,6.4964,6.3647,0.0,0.0,0.0,0.0,6.2002,0.0,0.0,0.0,0.0,0.0,0.0,0.0,0.0,0.0,0.0,0.0,0.0,0.0,0.0,0.0,0.0,4.6681,0.0,4.5214,0.0,0.0,0.0,0.0,0.0,4.8626,4.8865,4.9089,4.9075,4.9134,4.9359,4.9763,4.9763,4.9329,5.0361,5.0674,5.0196,5.0853,5.1319,5.1498,5.1977,5.2306,5.2516,5.3683,5.4221,5.4251,5.491,5.5179,5.5239,5.5718,5.6376,5.7154,5.7633,5.8351,5.9099,5.9099,5.9219,5.9428,5.093,5.1229,5.1708,5.3054,5.4401,5.6615,6.0595,6.1912,6.4036,6.8525,6.9183,7.1188,7.6275,7.6215,7.7083,8.0255,7.5138,7.1996,7.2595,6.7807,6.2929,0.0,0.0,6.1194,0.0,6.0386,6.1732,6.1104,6.1104,6.1104,6.1104,6.1104,6.1433,6.2002,6.2061,6.3109,6.4904,6.5622,6.7418,6.9901,7.1218,7.2924,7.454,7.3402,7.3762,7.4779,7.4151,0.0,7.2624,7.0649,6.9512,6.8465,6.5832,0.0,0.0,0.0,0.0,0.0,0.0,0.0,0.0,6.2181,0.0,0.0,0.0,0.0,5.7453,0.0,0.0,0.0,0.0,0.0,0.0,0.0,0.0,0.0,0.0,0.0,0.0,0.0,0.0,0.0,0.0,4.698,4.71,4.6459,4.7608,4.8057,4.7429,4.8596,4.9329,4.9299,4.9912,5.0226,5.0196,5.0853,5.1528,5.2157,5.2187,5.2546,5.3174,5.3892,5.4221,5.4251,5.491,5.5179,5.5179,5.5209,5.5957,5.7094,5.7124,5.7932,5.9099,5.9099,5.9518,6.0057,5.1139,0.0,5.2815,5.3713,5.461,5.6526,6.0505,6.3528,6.7148,7.2235,7.4031,7.7173,8.3367,8.2649,8.235,8.3906,7.9806,7.6305,7.433,7.05,0.0,6.4755,6.4455,6.3737,0.0,0.0,0.0,6.2421,6.1972,6.2002,6.2421,6.2421,6.254,6.272,6.2301,6.2929,6.4425,6.5533,6.7029,6.8884,7.1517,7.3492,7.4779,7.3881,7.3821,7.421,7.3971,7.3163,7.2206,7.1996,7.062,6.8764,6.7418,6.6071,6.4814,6.3677,6.3528,6.3647,6.3408,6.3857,6.4096,6.3019,0.0,0.0,0.0,0.0,0.0,0.0,0.0,0.0,0.0,0.0,0.0,0.0,0.0,0.0,0.0,0.0,0.0,0.0,0.0,0.0,0.0,0.0,4.6518,4.6352,4.6741,4.689,4.6681,4.8327,4.912,4.8626,5.0092,5.0853,5.0853,5.1528,5.2187,5.2845,5.3294,5.3653,5.3892,5.4551,5.485,5.488,5.5089,5.5179,5.5209,5.5658,5.6346,5.7124,5.7603,5.8321,5.9159,5.9608,5.9907,6.0206,5.1917,5.2606,5.3384,5.4072,5.5329,5.7184,5.9967,6.4545,6.9363,7.3911,7.7053,8.1212,8.7377,8.6689,8.624,8.7347,8.4504,8.0614,7.5886,7.4031,0.0,6.7448,6.6729,6.5892,0.0,0.0,0.0,0.0,6.275,6.2869,6.3079,6.3079,6.3079,6.3079,6.3109,6.3588,6.4515,6.6789,6.8226,0.0,0.0,7.3762,0.0,0.0,7.3462,7.3821,7.3343,7.2624,7.1906,7.2116,7.1068,6.9482,6.8315,6.7089,6.5802,6.4395,6.4336,6.4605,6.4126,6.4665,6.5114,6.4036,6.3588,0.0,6.2061,0.0,6.0835,0.0,0.0,0.0,0.0,0.0,0.0,0.0,0.0,0.0,0.0,4.6202,0.0,0.0,0.0,0.0,0.0,4.68,4.6381,4.5622,4.601,4.619,4.5963,4.7608,4.8596,4.8626,5.0331,5.1319,5.1558,5.2217,5.2875,5.3563,5.3982,5.4341,5.4581,5.4999,5.5179,5.5179,5.5179,5.5329,5.5568,5.5987,5.6675,5.7513,5.7962,5.853,5.9189,5.9847,6.0386,6.0954,5.3204,5.3294,5.3563,5.4251,5.6496,5.8471,5.9159,6.4844,7.026,7.3642,7.813,8.3008,8.8245,8.8274,8.8663,9.0519,8.8903,8.4803,7.7771,7.834,0.0,0.0,6.8286,6.7657,6.4425,0.0,0.0,0.0,0.0,6.3647,6.3079,6.3079,6.3079,6.3139,6.4366,6.4934,6.5174,6.9093,7.0799,7.1128,7.3103,7.3881,7.3702,7.2385,7.2684,7.3612,7.2355,7.1876,7.1757,7.1158,7.0919,7.056,6.8615,6.8048,6.7478,6.4874,6.4994,6.5712,6.4455,6.5024,6.5862,6.5203,6.4515,0.0,0.0,0.0,6.254,0.0,0.0,0.0,0.0,0.0,0.0,0.0,0.0,0.0,0.0,0.0,0.0,0.0,0.0,0.0,0.0,4.689,4.6411,4.4496,4.5544,4.5992,0.0,4.6621,4.7967,4.9269,5.0571,5.1588,5.2247,5.2905,5.3593,5.4251,5.4251,5.4581,5.5179,5.5179,5.5179,5.5179,5.5239,5.5598,5.6218,5.6308,5.7004,5.8141,5.8201,5.865,5.9308,5.9907,6.0984,6.2241,5.3294,5.476,5.6137,5.6316,5.8141,5.9967,6.1164,6.6101,7.1427,7.6185,8.0823,8.5551,9.0339,9.0728,9.0818,9.1327,9.001,8.7736,0.0,0.0,0.0,7.5677,7.3193,7.1038,6.9183,6.7388,0.0,6.4276,0.0,6.3228,6.3079,6.3079,6.3079,6.3079,6.3438,6.3827,6.4425,6.6939,6.9393,7.1757,7.3283,7.3612,7.3073,7.2206,7.2086,7.2355,7.1996,7.1577,7.1218,7.1517,7.1308,7.0649,6.9183,6.8375,6.7657,6.5981,6.5742,6.5922,6.5592,6.5742,6.5862,6.5203,6.4515,6.3827,6.3228,0.0,0.0,0.0,0.0,0.0,0.0,0.0,0.0,0.0,0.0,0.0,0.0,0.0,0.0,4.6441,0.0,0.0,4.701,4.6292,4.5603,4.5095,4.5364,4.5484,4.5304,4.7489,4.897,4.9299,5.102,5.2276,5.2935,5.3593,5.4281,5.494,5.494,5.5029,5.5179,5.5179,5.5179,5.5209,5.5718,5.6068,5.6256,5.7214,5.7812,5.8231,5.9189,6.0296,6.1283,6.0954,6.1702,6.2839,5.4192,5.6645,5.886,5.886,6.1942,6.4366,6.4246,6.7508,7.1757,7.6724,8.1661,8.5821,8.8723,9.0579,9.1626,9.1626,9.0698,0.0,8.6,0.0,0.0,7.8549,7.6245,7.3762,7.0949,6.8345,0.0,6.4575,0.0,6.3079,6.3079,6.3079,6.3079,6.3079,0.0,6.3258,6.3737,6.6011,6.9064,7.2355,7.2505,7.2535,0.0,7.1727,7.1457,7.1427,7.1158,7.0979,7.0949,7.1338,7.1218,7.0679,6.9393,6.8734,6.8166,6.6819,6.664,6.6759,6.6161,6.6221,6.6221,6.5263,6.4515,6.3917,6.3558,6.3258,6.2959,0.0,6.1702,6.0685,0.0,0.0,0.0,0.0,0.0,0.0,0.0,0.0,0.0,0.0,4.7369,0.0,4.7698,4.6262,4.5304,4.5304,4.5304,4.5424,4.5723,4.7698,4.9105,4.9673,5.2187,5.3533,5.3623,5.485,5.5508,5.5628,5.5628,5.5777,5.6017,5.6017,5.6017,5.6047,5.6406,5.6735,5.7094,5.7812,5.8291,5.865,5.9668,6.0924,6.2061,6.1672,6.2181,6.3079,5.5658,5.865,6.1224,6.1134,6.5951,6.9482,6.8345,7.0141,7.3133,7.7203,8.226,8.5701,8.627,8.9412,9.1506,9.1506,9.0878,8.9052,8.5581,8.6748,8.4923,7.8968,7.84,7.6155,7.1787,6.8854,6.643,0.0,0.0,6.3079,6.3079,6.3079,6.3079,0.0,0.0,0.0,0.0,6.5862,6.8974,7.2056,7.1248,7.1248,7.1697,7.1128,7.0859,7.0709,7.0171,7.032,7.0769,7.0679,7.0709,7.056,6.9273,6.8944,6.8734,6.7388,6.7328,6.7478,6.6311,6.6311,6.634,6.5173,6.4395,6.3887,6.3887,6.3468,6.3079,6.3079,6.254,6.1702,6.0446,0.0,0.0,0.0,0.0,0.0,0.0,0.0,0.0,0.0,0.0,0.0,4.8416,4.6591,4.5424,4.5424,4.5514,4.5783,0.0,0.0,4.9075,5.0166,5.3294,5.479,5.4461,5.6137,5.6795,5.6436,5.6346,5.6585,5.7094,5.7094,5.7094,5.7094,5.7184,5.7573,5.8141,5.8201,5.871,5.9428,6.0086,6.1104,6.2211,6.2211,6.26,6.3079,5.7513,5.9937,6.1762,6.1224,6.5592,7.035,7.3821,7.7861,8.1003,8.235,8.6659,8.9651,8.9771,9.0399,9.0818,9.0818,9.0219,0.0,0.0,0.0,0.0,8.3606,8.1422,7.8878,7.5856,7.1637,6.8734,0.0,6.4455,6.3079,6.3079,6.3079,6.3079,0.0,0.0,0.0,6.3258,6.5862,0.0,6.8196,7.0141,7.0979,7.1068,7.0949,7.059,7.0141,7.0021,7.0051,7.0051,6.9512,6.9692,6.9901,6.8555,6.8525,6.8734,6.7388,6.67,6.6311,6.6071,6.5293,6.4455,6.4246,6.3707,6.3228,6.3228,6.3169,6.3079,6.3079,6.254,6.1852,6.1074,0.0,0.0,0.0,0.0,0.0,0.0,0.0,0.0,0.0,0.0,4.8506,0.0,4.7309,4.6142,4.6142,4.6651,0.0,0.0,0.0,4.9956,0.0,5.2366,5.4281,0.0,5.6166,5.6825,5.7782,5.7214,5.7004,5.7094,5.7094,5.7094,5.7124,5.7693,5.8022,5.8171,5.871,5.9668,6.0835,6.1493,6.2211,6.2899,6.2899,6.2989,6.3079,5.9548,6.1523,6.3408,6.4485,6.9333,7.427,7.7891,8.235,8.4833,8.3427,8.5462,8.6928,8.6599,8.8993,9.0369,8.9681,8.9651,8.9531,8.9172,8.7586,8.594,8.4265,8.202,7.9417,7.6425,7.1816,6.8974,6.7956,6.4336,6.275,6.3079,6.3079,6.3079,6.3049,0.0,6.3139,0.0,0.0,6.646,6.8136,6.9423,7.0111,7.044,7.044,7.0231,6.9931,6.9602,6.9692,6.9871,6.9213,6.9213,6.9303,6.8286,6.8196,6.8286,6.7268,6.6759,6.637,6.5682,6.5024,6.4366,6.3677,6.3288,6.3079,6.3079,6.3079,6.3079,6.3079,6.281,6.2301,6.1313,5.9249,0.0,0.0,0.0,0.0,0.0,0.0,0.0,0.0,0.0,0.0,0.0,0.0,0.0,0.0,0.0,0.0,0.0,0.0,5.0345,0.0,0.0,0.0,5.6218,0.0,5.7513,5.8112,5.7782,5.7812,5.8141,5.8141,5.8141,5.8171,5.886,5.8949,5.868,5.9338,6.0416,6.1642,6.1972,6.251,6.3079,6.3079,6.3079,6.3079,6.1972,6.3737,6.5862,6.8375,7.3492,7.8041,8.0434,8.4504,8.6479,8.4325,8.4474,8.4594,8.4085,8.7736,8.9801,8.8783,8.8903,8.8813,8.8304,8.6868,8.5312,8.3606,8.1781,7.9387,7.6365,7.2056,6.9303,0.0,6.4515,6.2839,6.3079,6.3079,0.0,0.0,0.0,0.0,6.4186,6.4216,6.5742,6.8196,6.8764,6.9393,6.9991,6.9991,6.9991,6.9871,6.9064,6.9123,6.9482,6.8944,6.8884,6.8914,6.8375,6.8076,6.7867,6.7358,6.6999,6.655,6.5533,6.5144,6.4755,6.3558,6.3258,6.3228,6.3109,6.3079,6.3079,6.3079,6.2959,6.26,6.1702,6.0206,0.0,0.0,0.0,0.0,0.0,0.0,0.0,0.0,0.0,0.0,4.9359,0.0,0.0,0.0,0.0,0.0,4.7549,0.0,0.0,0.0,5.3803,5.5628,5.6585,0.0,5.8261,5.853,5.8411,5.859,5.9099,5.9249,5.9249,5.9159,5.9967,5.9997,5.9578,6.0236,6.1134,6.2121,6.2241,6.263,6.3079,6.3079,6.3079,6.3079,6.5203,6.7148,6.9153,7.1158,7.5437,7.9118,8.0584,8.3696,8.6419,8.7945,8.8185,8.8185,8.8125,8.8574,8.8813,8.8693,8.7616,8.6928,8.6868,8.5073,8.3666,8.2888,8.1542,7.9806,7.7682,7.43,7.1338,0.0,0.0,6.4186,6.3079,0.0,0.0,6.2211,6.275,6.2421,6.1642,6.3947,6.5114,6.5622,6.8016,6.9393,6.9991,6.9991,6.9991,6.9812,6.8525,6.8106,6.8136,6.8076,6.8495,6.9004,6.8914,6.8465,6.7956,6.7897,6.7029,6.6071,6.5951,6.5473,6.4844,6.4096,6.3917,6.3767,6.3199,6.3079,6.3079,6.3079,6.26,6.2331,6.281,6.0805,5.9488,0.0,0.0,0.0,0.0,0.0,0.0,0.0,0.0,0.0,0.0,5.084,0.0,0.0,4.9209,0.0,0.0,0.0,5.1169,5.1229,5.3803,5.6077,5.7932,5.8052,5.871,5.9907,5.9308,5.9039,5.9129,5.9727,5.9668,5.9189,6.0475,6.0984,6.0984,6.1642,6.1972,6.2151,6.275,6.3019,6.3079,6.3079,6.3079,6.3079,6.8166,6.9034,7.0709,7.424,7.6395,7.8609,8.1542,8.3098,8.4354,8.5551,8.6748,8.7347,8.6928,8.7257,8.6988,8.5821,8.594,8.5761,8.4953,8.3816,8.2858,8.22,8.0913,7.9447,7.7861,7.4988,7.2206,0.0,0.0,0.0,0.0,6.3617,6.3288,6.269,6.254,6.263,6.2929,6.4395,6.5712,6.6969,6.8824,6.9722,6.9991,6.9991,6.9991,6.9901,6.9363,6.9423,6.9722,6.9722,6.9123,6.8465,6.8884,6.8525,6.7956,6.7956,6.7328,6.652,6.6131,6.5802,6.5443,6.4784,6.4605,6.4455,6.3767,6.3617,6.3528,6.3139,6.2869,6.266,6.251,6.1942,6.1283,6.0595,0.0,0.0,0.0,0.0,0.0,0.0,0.0,0.0,0.0,0.0,0.0,0.0,0.0,0.0,4.9494,5.0571,5.1768,5.2965,0.0,5.5278,5.6643,5.76,5.8308,5.8686,5.9402,5.9907,6.0326,6.0595,6.0775,6.0924,6.1044,6.1553,6.2271,6.2151,6.2331,6.272,6.2989,6.3079,6.3079,6.3079,6.3318,6.3617,7.0859,7.1278,7.2744,7.6963,7.7861,7.8998,8.202,8.232,8.2409,8.3068,8.4205,8.5073,8.5372,8.5641,8.5252,8.3846,8.4235,8.4145,8.3217,8.238,8.1691,8.1212,8.0135,0.0,7.7831,7.5617,7.3283,7.0859,6.8854,0.0,0.0,6.4186,6.3677,6.3079,6.3199,6.3647,6.4366,6.5443,6.67,6.8076,6.9423,6.9961,6.9991,6.9991,7.0081,7.0201,6.9842,6.9961,7.038,7.056,6.9572,6.8435,6.9303,6.8974,6.8256,6.8256,6.7807,6.7148,6.649,6.6311,6.6131,6.5473,6.5323,6.5084,6.4186,6.4006,6.3827,6.3199,6.3079,6.2929,6.248,6.26,6.2391,6.1164,0.0,0.0,0.0,0.0,0.0,0.0,5.3114,5.2187,5.0883,5.1588,0.0,0.0,5.1468,5.102,5.0495,5.1319,5.2456,5.3862,5.467,0.0,5.6424,5.7902,5.8555,5.8459,5.9737,6.0655,6.1104,6.1104,6.1583,6.2361,6.1702,6.2032,6.3049,6.257,6.266,6.3079,6.3079,6.3079,6.3109,6.3288,6.3617,6.4036,7.3223,7.436,7.5856,7.9208,8.0315,8.0973,8.1691,8.1242,8.1063,8.1721,8.1272,8.1841,8.4444,8.4145,8.3756,8.3726,8.2559,8.1811,8.1811,8.0584,7.9866,0.0,0.0,7.8489,7.7831,7.6544,7.4899,7.2864,0.0,0.0,6.5951,6.4635,6.3677,6.3169,6.5084,6.5592,6.5144,6.7119,6.7956,6.8076,6.9453,6.9991,6.9991,6.9991,7.035,7.0709,6.9453,6.9004,6.9123,6.9782,6.9542,6.9213,7.047,7.0021,6.9004,6.9004,6.8495,6.7807,6.7148,6.6969,6.6819,6.6161,6.6011,6.5652,6.4306,6.4006,6.3827,6.3199,6.3079,6.3079,6.3079,6.254,6.2301,6.2929,0.0,0.0,0.0,0.0,0.0,0.0,5.5718,5.5089,5.2426,5.3384,0.0,0.0,5.1229,5.1229,5.1199,5.2456,5.3174,5.3204,5.5718,5.7393,5.8058,5.9398,6.0057,6.0086,6.0775,6.1104,6.1104,6.1104,6.1822,6.3019,6.2361,6.245,6.3079,6.3079,6.3079,6.3079,6.3079,6.3079,6.3139,6.3767,6.3977,6.4096,7.5527,7.6066,7.6963,7.9387,7.9597,7.9507,7.9716,7.9567,7.9507,7.9716,7.9986,8.0614,8.1901,8.1871,8.1542,0.0,8.1093,8.0913,0.0,8.0045,7.9806,7.9806,7.8729,7.8011,7.7801,7.6544,7.4929,7.2924,0.0,7.062,6.8046,6.7119,6.637,6.5772,6.64,6.6819,6.7119,6.8196,6.8944,6.9453,7.0739,7.1009,7.0649,7.1098,7.1128,7.0859,7.044,7.029,7.032,7.053,7.047,7.038,7.0769,7.032,6.9572,6.9123,6.8525,6.8016,6.8286,6.7687,6.7059,6.7298,6.6999,6.634,6.4994,6.4006,6.3318,6.3109,6.3079,6.3079,6.3079,6.2899,6.269,6.245,6.1672,0.0,6.0176,0.0,0.0,0.0,5.5658,5.4999,5.3683,5.4371,0.0,0.0,5.461,5.4012,5.2636,5.2965,5.4012,5.5777,5.7124,0.0,5.7846,5.9796,6.0449,5.983,6.1189,6.2032,6.245,6.245,6.269,6.3079,6.2839,6.2869,6.3079,6.3079,6.3079,6.3079,6.3079,6.3318,6.3737,6.3917,6.4575,6.5413,7.6275,7.6485,7.6963,7.843,7.834,7.8041,7.8041,7.8041,7.813,7.84,7.8789,7.9327,7.9986,8.0045,7.9986,7.9836,7.9956,7.9776,7.9118,7.9058,7.8968,7.8699,7.7891,7.7442,7.7442,7.6425,7.5288,7.4031,7.3013,7.1547,6.9692,6.8794,6.8136,6.7777,6.8256,6.8704,6.9123,7.0081,7.056,7.0769,7.1577,7.1487,7.0979,7.1637,7.1487,7.0949,7.1188,7.0979,7.059,7.0829,7.0739,7.056,7.056,7.044,7.0201,6.9542,6.9064,6.8704,6.8645,6.8196,6.7717,6.7627,6.7478,6.6999,6.5712,6.4186,6.3139,6.3378,6.3228,6.3079,6.3079,6.3079,6.2929,6.254,6.2121,6.1523,6.0595,0.0,0.0,0.0,0.0,5.6496,5.6077,5.6196,5.6256,0.0,0.0,5.5269,5.4012,5.4401,5.5508,5.7423,5.8141,5.8664,5.898,5.9969,6.018,5.9646,6.0882,6.2023,6.3079,6.3079,6.3079,6.3079,6.3079,6.3079,6.3079,6.3079,6.3079,6.3079,6.3079,6.3468,6.4036,6.4276,6.5084,6.6041,7.5766,7.5916,7.6096,7.6724,7.6814,7.6814,7.6754,7.6814,7.7053,7.7652,7.7771,7.8071,7.8729,7.8789,7.9058,7.9686,7.9148,7.8519,7.7861,7.7801,7.7502,7.6844,7.6784,7.6754,7.6754,7.6155,7.5826,7.5826,7.3283,7.1697,7.1068,6.9842,6.9273,6.9333,7.05,7.1038,7.1128,7.2385,7.2505,7.1876,7.1936,7.1547,7.0979,7.1637,7.1487,7.0979,7.1637,7.1098,7.0141,7.0769,7.056,7.0051,7.0051,7.044,7.0769,7.0171,6.9991,6.9722,6.8495,6.8555,6.8645,6.7418,6.7478,6.7508,6.6221,6.4485,6.3288,6.3827,6.3468,6.3079,6.3079,6.3079,6.3079,6.3079,6.2989,6.251,6.1283,0.0,0.0,0.0,0.0,5.9129,5.9159,5.862,5.7752,0.0,0.0,0.0,5.5538,5.6645,5.7573,5.8171,5.8919,5.9907,6.1164,6.0238,5.9735,5.9735,6.0401,6.1525,6.3079,6.3079,6.3079,6.3079,6.3079,6.3079,6.3079,6.3079,6.3079,6.3079,6.3079,6.3498,6.4156,6.4784,6.5473,6.6161,7.5766,7.5916,7.6096,7.6724,7.6814,7.6664,7.6185,7.6514,7.6874,7.7053,7.7502,7.8071,7.8729,7.8789,7.8849,7.9028,7.8878,7.8519,7.7861,7.7801,7.7502,7.6844,7.6365,7.6125,7.6125,7.5467,7.5108,7.5108,7.3971,7.3343,7.3163,7.2355,7.1996,7.1996,7.2295,7.2445,7.2475,7.2774,7.2505,7.1936,7.2445,7.1966,7.0979,7.1637,7.1487,7.0979,7.1637,7.1368,7.0799,7.1427,7.1218,7.0679,7.0679,7.0769,7.0769,7.0171,6.9991,7.0021,7.0171,6.9243,6.8256,6.8465,6.7478,6.6251,6.5443,6.4485,6.3677,6.3378,6.3169,6.3079,6.3079,6.3079,6.3079,6.3079,6.2241,6.1463,6.1164,5.9668,5.871,0.0,5.9099,5.9308,5.9787,5.9727,5.9488,0.0,0.0,5.8411,5.889,5.9219,5.9219,5.889,6.0505,6.1553,6.1852,6.2136,6.2259,6.2259,6.2408,6.2672,6.3079,6.3079,6.3079,6.3079,6.3079,6.3079,6.3079,6.3079,6.3079,6.3079,6.3079,6.3767,6.4814,6.4964,6.5772,6.6789,7.5347,7.5437,7.5557,7.5886,7.5946,7.5826,7.5497,7.5707,7.6036,7.6365,7.6963,7.7622,7.828,7.8609,7.8789,7.8789,7.8519,7.8071,7.7412,7.7083,7.6634,7.5976,7.5617,7.5437,7.5437,7.5078,7.4869,7.4869,7.451,7.436,7.433,7.3672,7.3373,7.3373,7.3373,7.3373,7.3373,7.3373,7.3163,7.2804,7.2894,7.2475,7.1906,7.2565,7.2385,7.1876,7.2235,7.2116,7.1787,7.1517,7.1398,7.1308,7.1009,7.0889,7.0829,7.05,7.041,7.041,7.047,6.9901,6.9243,6.9064,6.7508,6.5981,6.5951,6.5173,6.4366,6.4036,6.3707,6.3408,6.3139,6.3079,6.3079,6.3079,6.2241,6.1553,6.1553,6.0356,5.9638,5.9967,6.0296,6.0625,6.0984,6.1014,6.0894,6.0565,6.0236,0.0,6.0086,6.0655,6.0835,6.0475,6.1523,6.2241,6.254,6.2114,6.191,6.191,6.1168,6.1168,6.191,6.191,6.191,6.1969,6.2759,6.3079,6.3079,6.3079,6.3228,6.3498,6.3498,6.4306,6.5473,6.5473,6.6131,6.6999,7.4426,7.4731,7.4869,7.4869,7.4869,7.4869,7.4869,7.4869,7.5138,7.5826,7.6455,7.7083,7.7741,7.831,7.8639,7.8639,7.7951,7.7322,7.6844,7.6335,7.5707,7.4899,7.4869,7.4869,7.4869,7.4869,7.4869,7.4869,7.4869,7.4869,7.4869,7.43,7.4031,7.4031,7.4031,7.4031,7.4031,7.4031,7.3971,7.3851,7.3283,7.3013,7.2984,7.3522,7.3402,7.2924,7.3013,7.2924,7.2624,7.1667,7.1517,7.1667,7.1308,7.1128,7.1068,7.1188,7.1128,7.0919,7.029,7.044,7.047,6.9303,6.7717,6.655,6.6909,6.6131,6.5233,6.4934,6.4425,6.3827,6.3199,6.3079,6.3079,6.3079,6.245,6.1972,6.2091,0.0,6.1044,6.1253,6.1762,6.2121,6.2241,6.2241,6.1972,6.1313,6.1253,6.1014,6.0416,6.1463,6.2151,6.2241,6.2241,6.251,6.3079,6.1644,6.087,6.087,5.9442,5.9503,6.087,6.087,6.087,6.099,6.2527,6.3228,6.3228,6.3318,6.3677,6.4156,6.4156,6.4904,6.6011,6.6011,6.643,6.6999,7.2385,7.3742,7.4869,7.4869,7.4869,7.4869,7.4869,7.4869,7.5138,7.5826,7.6455,7.7083,7.7741,7.7891,7.7951,7.7951,7.6874,7.6395,7.6814,7.6724,7.6125,7.4929,7.4869,7.4869,7.4869,7.4869,7.4869,7.4869,7.4869,7.4869,7.4869,7.4779,7.4719,7.4719,7.4719,7.4719,7.4719,7.4719,7.439,7.3881,7.3791,7.3402,7.2924,7.3043,7.3013,7.2984,7.3552,7.3013,7.2176,7.3103,7.2385,7.1248,7.2265,7.2206,7.1846,7.2445,7.2206,7.1577,7.0949,7.044,6.9961,6.9183,6.8764,6.8256,6.7238,6.6819,6.6221,6.4515,6.4066,6.3827,6.3199,6.3079,6.3079,6.3079,6.2061,6.1463,6.2032,0.0,6.0685,6.1822,6.2032,6.2301,6.2869,6.2929,6.266,6.2002,6.1942,6.1882,6.1792,6.1972,6.2361,6.2899,6.2929,6.2959,6.3079,6.2817,6.2701,6.2672,6.2438,6.2438,6.2701,6.2701,6.2701,6.2701,6.3501,6.3857,6.3887,6.4485,6.4784,6.4874,6.4874,6.5353,6.6011,6.6011,6.643,6.6999,7.03,7.1856,7.3293,7.3293,7.4189,7.4869,7.4869,7.4869,7.4988,7.5318,7.6215,7.6814,7.6784,7.7382,7.7652,7.7322,7.6754,7.6365,7.6335,7.5976,7.5497,7.4899,7.4869,7.4869,7.4869,7.4869,7.4869,7.4869,7.4869,7.4869,7.4869,7.4869,7.4869,7.4869,7.4869,7.4869,7.4869,7.448,7.436,7.439,7.4031,7.3911,7.3971,7.3971,7.3971,7.3911,7.3522,7.3432,7.3432,7.2954,7.2684,7.2565,7.2834,7.2684,7.2505,7.2834,7.2684,7.2206,7.1188,7.0709,7.032,6.9692,6.9273,6.8824,6.8226,6.8076,6.7597,6.5951,6.5622,6.5203,6.3827,6.3558,6.3558,6.3558,6.248,6.2002,6.2989,6.2002,6.1523,6.251,6.263,6.275,6.3049,6.3079,6.2959,6.266,6.263,6.263,6.263,6.263,6.275,6.3079,6.3079,6.3079,6.3079,6.3079,6.3079,6.3079,6.2175,6.1909,6.2261,6.2261,6.2437,6.2849,6.404,6.4545,6.4575,6.4904,6.5233,6.5562,6.5562,6.5951,6.655,6.655,6.6939,6.7478,6.8208,6.9783,7.1177,7.1177,7.284,7.4189,7.4189,7.4564,7.4869,7.4869,7.5886,7.6425,7.5946,7.6784,7.7173,7.6664,7.6485,7.6185,7.5707,7.5168,7.4958,7.5108,7.5108,7.5048,7.4869,7.4869,7.4869,7.4869,7.4869,7.4869,7.4869,7.4869,7.4869,7.4869,7.4869,7.4869,7.4839,7.433,7.442,7.4839,7.433,7.442,7.4869,7.4869,7.4869,7.4749,7.3732,7.3911,7.445,7.3043,7.3073,7.3642,7.3432,7.3283,7.3163,7.3343,7.3373,7.3073,7.1727,7.1368,7.1218,7.059,7.0051,6.9602,6.9303,6.9243,6.8854,6.7508,6.7208,6.67,6.4994,6.4575,6.4425,6.4276,0.0,6.266,6.3647,6.281,6.2331,6.2989,6.3079,6.3079,6.3079,6.3079,6.3079,6.3079,6.3079,6.3079,6.3079,6.3079,6.3139,6.3288,6.3139,6.3079,6.3079,6.3228,6.3288,6.3288,6.2085,6.1837,6.2331,6.2331,6.2593,6.3149,6.4604,6.5263,6.5263,6.5413,6.5862,6.646,6.646,6.6879,6.7448,6.7448,6.7777,6.8136,6.6,6.7675,6.9113,6.9113,7.074,7.2142,7.2142,7.3672,7.4869,7.4869,7.5527,7.5946,7.5916,7.5976,7.6036,7.5976,7.5377,7.4988,7.4958,7.4899,7.5168,7.5796,7.5826,7.5527,7.4899,7.4869,7.4869,7.4869,7.4869,7.4869,7.4869,7.4869,7.4869,7.4869,7.4869,7.4869,7.4869,7.4839,7.4839,7.4869,7.4839,7.4839,7.4869,7.4869,7.4869,7.4869,7.4779,7.439,7.4031,7.451,7.3911,7.3193,7.436,7.43,7.3941,7.454,7.4719,7.445,7.3133,7.2774,7.2595,7.1906,7.1697,7.1368,7.0171,6.9901,6.9542,6.8166,6.7897,6.7657,6.6909,6.6281,6.5652,6.5054,0.0,0.0,6.3139,6.254,6.2331,6.2989,6.3079,6.3079,6.3079,6.3079,6.3079,6.3079,6.3079,6.3079,6.3079,6.3079,6.3348,6.3917,6.3378,6.3079,6.3079,6.3647,6.3917,6.3947,6.4457,6.4696,6.4755,6.4755,6.4785,6.4875,6.5592,6.5951,6.5981,6.661,6.7238,6.7837,6.7837,6.8256,6.8854,6.8854,6.8884,6.8914,6.3962,6.5556,6.6984,6.6984,6.8662,7.0447,7.1712,7.2528,7.3503,7.4731,7.5467,7.5736,7.5318,7.5647,7.5736,7.5318,7.5407,7.5527,7.5527,7.5886,7.5826,7.5288,7.5677,7.5587,7.4899,7.4869,7.4869,7.4869,7.4869,7.4869,7.4869,7.4869,7.4869,7.4869,7.4869,7.4869,7.4869,7.4869,7.4869,7.4869,7.4869,7.4869,7.4869,7.4869,7.4869,7.4839,7.442,7.436,7.448,7.433,7.421,7.421,7.4719,7.4719,7.454,7.4809,7.4869,7.4779,7.427,7.3821,7.3373,7.2684,7.2535,7.2385,7.1906,7.1787,7.1547,7.059,7.0081,6.9482,6.8435,6.7687,6.6999,6.634,0.0,6.4276,6.4276,6.3378,6.278,6.3049,6.3079,6.3079,6.3079,6.3079,6.3079,6.3079,6.3079,6.3258,6.3617,6.4066,6.4395,6.4635,6.4425,6.4276,6.4276,6.4515,6.4635,6.4635,6.4904,6.5233,6.5652,6.5652,6.6071,6.6849,6.67,6.7089,6.7867,6.7687,6.8016,6.8615,6.8615,6.8764,6.9004,6.9004,6.9243,6.9542,6.2822,6.3882,6.487,6.487,6.6546,6.8435,6.9755,7.0521,7.1712,7.3672,7.4365,7.4723,7.486,7.5288,7.5377,7.4929,7.5497,7.5916,7.5916,7.6664,7.6544,7.5258,7.5826,7.5766,7.4899,7.4869,7.4869,7.4869,7.4869,7.4869,7.4869,7.4869,7.4869,7.4869,7.4869,7.4869,7.4869,7.4869,7.4869,7.4869,7.4869,7.4869,7.4869,7.4869,7.4869,7.4809,7.436,7.448,7.4809,7.436,7.451,7.4869,7.4869,7.4869,7.4869,7.4869,7.4869,7.4869,7.4869,7.454,7.4031,7.3402,7.3223,7.3163,7.2954,7.2924,7.2774,7.2295,7.1846,7.1278,7.038,6.9482,6.8675,6.8046,6.6819,6.5802,6.5383,6.4575,6.3917,6.3707,6.3498,6.3378,6.3378,6.3378,6.3378,6.3378,6.3558,6.3887,6.4306,6.4784,6.5114,6.5323,6.5323,6.5443,6.5652,6.5443,6.5323,6.5353,6.5742,6.6191,6.664,6.6849,6.7448,6.8256,6.7807,6.8136,6.8974,6.8495,6.8704,6.9303,6.9303,6.9423,6.9602,6.9602,6.9901,7.0201,6.2822,6.2822,6.2822,6.2822,6.4418,6.5765,6.5765,6.7522,6.956,7.164,7.1856,7.2599,7.4633,7.4869,7.4869,7.4869,7.5497,7.5916,7.5916,7.7113,7.7263,7.5976,7.6514,7.6215,7.4929,7.4869,7.4869,7.4869,7.4869,7.4869,7.4869,7.4869,7.4869,7.4869,7.4869,7.4869,7.4869,7.4869,7.4869,7.4869,7.4869,7.4869,7.4869,7.4869,7.4869,7.4869,7.4869,7.4869,7.4869,7.4869,7.4869,7.4869,7.4869,7.4869,7.4869,7.4869,7.4869,7.4869,7.4869,7.4869,7.4719,7.4061,7.3911,7.3732,7.3073,7.2924,7.2924,7.2924,7.2924,7.2924,7.2924,7.1816,7.0709,7.0081,6.8854,6.7537,6.6191,6.6011,6.5772,6.5114,6.4425,6.4006,6.4006,6.4006,6.4006,6.4006,6.4635,6.5054,6.5054,6.5054,6.5353,6.6011,6.6041,6.634,6.6999,6.634,6.6011,6.6041,6.7358,6.7956,6.8016,6.8704,6.9004,6.9004,6.9004,6.9004,6.9004,6.9004,6.9393,6.9991,6.9991,7.035,7.0889,7.0889,7.0889,7.0889,6.2822,6.2822,6.2822,6.2822,6.3286,6.4177,6.5529,6.6312,6.7445,6.956,6.9783,7.0521,7.2599,7.277,7.3363,7.48,7.5497,7.6275,7.7173,7.8041,7.7921,7.6604,7.6724,7.6425,7.5617,7.5138,7.4869,7.4869,7.4869,7.4869,7.4869,7.4869,7.4869,7.4869,7.4869,7.4869,7.4869,7.4869,7.4869,7.4869,7.4869,7.4869,7.4869,7.4869,7.4869,7.4869,7.4869,7.4869,7.4869,7.4869,7.4869,7.4869,7.4869,7.4869,7.4869,7.4869,7.4869,7.4869,7.4869,7.4869,7.4839,7.4629,7.4569,7.454,7.433,7.43,7.43,7.43,7.3911,7.3612,7.3612,7.2894,7.1936,7.0799,6.9931,6.8914,6.7567,6.658,6.5951,6.5742,6.5114,6.4725,6.4725,6.4725,6.4725,6.4725,6.5772,6.64,6.64,6.7298,6.7897,6.8106,6.7627,6.7717,6.8405,6.7268,6.6939,6.7388,6.7777,6.8226,6.8704,6.8914,6.9243,6.9662,6.9183,6.9512,7.029,6.9871,7.0051,7.062,7.062,7.0739,7.0889,7.0889,7.0889,7.0889,6.2822,6.2822,6.2822,6.2822,6.2822,6.328,6.4727,6.4994,6.5685,6.7747,6.8028,6.8682,7.0549,7.1423,7.2385,7.3603,7.5259,7.6724,7.7741,7.843,7.843,7.7652,7.7352,7.6664,7.5527,7.5347,7.5138,7.4869,7.4869,7.4869,7.4869,7.4869,7.4869,7.4869,7.4869,7.4869,7.4869,7.4869,7.4869,7.4869,7.4869,7.4869,7.4869,7.4869,7.4869,7.4869,7.4869,7.4869,7.4869,7.4869,7.4869,7.4869,7.4869,7.4869,7.4869,7.4869,7.4869,7.4869,7.4869,7.4869,7.4869,7.4869,7.4869,7.4869,7.4869,7.4869,7.4869,7.4869,7.4569,7.43,7.43,7.3762,7.3043,7.2206,7.1338,7.035,6.9273,6.8226,6.7388,6.6849,6.6191,6.5712,6.5443,6.5413,6.5622,6.6161,6.6939,6.7508,6.7777,6.8555,6.9004,6.9004,6.8585,6.8585,6.9004,6.8196,6.7986,6.8375,6.8645,6.8974,6.9393,6.9632,6.9961,7.032,6.9931,7.0201,7.0859,7.05,7.056,7.0889,7.0889,7.0889,7.0949,7.1188,7.1128,7.0949,6.2822,6.2822,6.2822,6.2822,6.2822,6.3023,6.3601,6.3701,6.4393,6.6287,6.6449,6.6977,6.8524,7.0311,7.148,7.1726,7.4697,7.686,7.7456,7.8328,7.8759,7.8699,7.813,7.6904,7.5018,7.5587,7.5557,7.4869,7.4869,7.4869,7.4869,7.4869,7.4869,7.4869,7.4869,7.4869,7.4869,7.4869,7.4869,7.4869,7.4869,7.4869,7.4869,7.4869,7.4869,7.4869,7.4869,7.4869,7.4869,7.4869,7.4869,7.4869,7.4869,7.4869,7.4869,7.4869,7.4869,7.4869,7.4869,7.4869,7.4869,7.4869,7.4869,7.4869,7.4869,7.4869,7.4869,7.4869,7.4869,7.4869,7.4869,7.439,7.3971,7.3911,7.2864,7.1816,7.1188,7.05,6.9602,6.8375,6.7537,6.6849,6.6251,6.6191,6.67,6.7956,6.8106,6.8435,6.9064,6.9153,6.9183,6.9183,6.9123,6.9123,6.9183,6.9123,6.9093,6.9093,6.9692,7.0021,7.0081,7.0649,7.0889,7.0889,7.0889,7.0889,7.0889,7.0889,7.0889,7.0889,7.0889,7.0889,7.0979,7.1637,7.1517,7.1068,6.2822,6.2822,6.2822,6.2822,6.2822,6.3023,6.3601,6.3701,6.3992,6.4869,6.4621,6.5106,6.6951,6.7604,6.848,7.0004,7.3238,7.5185,7.533,7.7502,7.8549,7.8041,7.7891,7.7143,7.5707,7.5826,7.5557,7.4869,7.4869,7.4869,7.4869,7.4869,7.4869,7.4869,7.4869,7.4869,7.4869,7.4869,7.4869,7.4869,7.4869,7.4869,7.4869,7.4869,7.4869,7.4869,7.4869,7.4869,7.4869,7.4869,7.4869,7.4869,7.4869,7.4869,7.4869,7.4869,7.4869,7.4869,7.4869,7.4869,7.4869,7.4869,7.4869,7.4869,7.4869,7.4869,7.4869,7.4869,7.4869,7.4869,7.4869,7.4749,7.448,7.3971,7.3642,7.3223,7.2565,7.1457,7.059,7.032,6.8794,6.7717,6.7567,6.7537,6.7897,6.8704,6.9243,6.9602,6.9752,7.0231,7.05,7.05,7.0021,6.9991,7.047,7.0021,6.9782,6.9782,6.9901,7.0231,7.0709,7.0829,7.0889,7.0889,7.0889,7.0889,7.0889,7.0889,7.0889,7.0889,7.0889,7.0889,7.0979,7.1637,7.1787,7.147,6.2822,6.2822,6.2822,6.2822,6.3048,6.3425,6.3977,6.4279,6.4555,6.4831,6.463,6.4746,6.5544,6.6521,6.7878,6.9879,7.2906,7.4736,7.4736,7.7254,7.8639,7.828,7.7981,7.7352,7.6365,7.6066,7.5557,7.4869,7.4869,7.4869,7.4869,7.4869,7.4869,7.4869,7.4869,7.4869,7.4869,7.4869,7.4869,7.4869,7.4869,7.4869,7.4869,7.4869,7.4869,7.4869,7.4869,7.4869,7.4869,7.4869,7.4869,7.4869,7.4869,7.4869,7.4869,7.4869,7.4869,7.4869,7.4869,7.4869,7.4869,7.4869,7.4869,7.4869,7.4869,7.4869,7.4869,7.4869,7.4869,7.4869,7.4869,7.4869,7.4779,7.442,7.4091,7.3762,7.3432,7.2206,7.1248,7.0949,6.9722,6.8794,6.8495,6.8465,6.8734,6.9423,6.9782,7.0111,7.041,7.1038,7.1368,7.1368,7.1068,7.1218,7.1846,7.1218,7.1068,7.1368,7.0739,7.059,7.0889,7.0889,7.0889,7.0889,7.0889,7.0889,7.0919,7.1248,7.1188,7.0949,7.1248,7.1188,7.0979,7.1637,7.1876,7.1553,6.2822,6.2822,6.2822,6.2822,6.3299,6.3877,6.4379,6.4931,6.5333,6.5409,6.5358,6.5107,6.4655,6.6166,6.7824,6.9552,7.2231,7.3947,7.4325,7.6769,7.8397,7.8789,7.816,7.7502,7.6844,7.6335,7.5677,7.4869,7.4869,7.4869,7.4869,7.4869,7.4869,7.4869,7.4869,7.4869,7.4869,7.4869,7.4869,7.4869,7.4869,7.4869,7.4869,7.4869,7.4869,7.4869,7.4869,7.4869,7.4899,7.5018,7.5048,7.5078,7.5168,7.5138,7.5048,7.5048,7.5048,7.5018,7.4899,7.4958,7.5018,7.4899,7.4869,7.4869,7.4869,7.4869,7.4869,7.4869,7.4869,7.4869,7.4869,7.4869,7.4869,7.4869,7.442,7.4061,7.4061,7.3013,7.2026,7.1487,7.0649,6.9871,6.9243,6.9183,6.9423,7.0081,7.0231,7.053,7.1038,7.1697,7.2056,7.2056,7.2056,7.2325,7.2894,7.2355,7.2355,7.2894,7.1787,7.1248,7.1248,7.1248,7.1248,7.1248,7.1248,7.1248,7.1278,7.1846,7.1727,7.1242,7.1487,7.1434,7.1308,7.1876,7.2056,7.1672,6.2822,6.2822,6.2822,6.2822,6.3299,6.3877,6.4379,6.4931,6.5459,6.5936,6.5584,6.5258,6.5183,6.5411,6.5926,6.6636,6.873,7.0852,7.2683,7.4811,7.6885,7.8717,7.816,7.7502,7.6844,7.6754,7.6096,7.4869,7.4869,7.4869,7.4869,7.4869,7.4869,7.4869,7.4869,7.4869,7.4869,7.4869,7.4869,7.4869,7.4869,7.4869,7.4869,7.4869,7.4869,7.4869,7.4869,7.4869,7.4958,7.5557,7.5766,7.5856,7.6395,7.6185,7.5766,7.5766,7.5766,7.5647,7.5048,7.5318,7.5617,7.5018,7.4869,7.4869,7.4869,7.4869,7.4869,7.4869,7.4869,7.4869,7.4869,7.4869,7.4869,7.4869,7.4809,7.4749,7.4749,7.4091,7.3582,7.3492,7.1876,7.053,6.9901,6.9842,7.0111,7.0739,7.1308,7.1667,7.1757,7.2415,7.2774,7.2774,7.2774,7.2834,7.2924,7.2834,7.2834,7.2924,7.2744,7.2654,7.2654,7.2654,7.2654,7.2654,7.2654,7.2654,7.2654,7.2744,7.2714,7.2425,7.0838,7.118,7.2654,7.2744,7.2774,7.2388,6.2822,6.2822,6.2923,6.3249,6.3751,6.4304,6.4831,6.5383,6.5835,6.6086,6.5886,6.576,6.576,6.576,6.5835,6.6086,6.8106,7.0176,7.2348,7.4456,7.6558,7.8717,7.816,7.7682,7.7382,7.7023,7.6544,7.5976,7.5617,7.5258,7.4869,7.4869,7.4869,7.4869,7.4869,7.4869,7.4869,7.4869,7.4869,7.4869,7.4869,7.4869,7.4869,7.4869,7.4869,7.4869,7.4869,7.4869,7.4988,7.5677,7.5916,7.6006,7.6634,7.6634,7.6425,7.6425,7.6185,7.5826,7.5527,7.5377,7.5347,7.5437,7.5168,7.5078,7.5796,7.5407,7.4869,7.4869,7.4869,7.4869,7.4869,7.4869,7.4869,7.4869,7.4869,7.4869,7.4869,7.43,7.3762,7.3402,7.2565,7.1906,7.1637,7.1607,7.1727,7.1996,7.2295,7.2445,7.2445,7.3103,7.3462,7.3462,7.3462,7.3642,7.4001,7.3642,7.3642,7.4001,7.4001,7.3612,7.2924,7.2924,7.2924,7.2924,7.2924,7.2924,7.2954,7.3313,7.3253,7.2723,7.1086,7.0518,7.0692,7.0692,7.1162,7.1331]}]]